Date StartTime U_cm/s V_cm/s W_cm/s Ustd_cm/s Vstd_cm/s Wstd_cm/s Uvar_(cm/s)^2 Vvar_(cm/s)^2 Wvar_(cm/s)^2 KE_(m/s)^2 TurbulentKE_(m/s)^2 HorizWindSpeed_cm/s FrictionSpeec_cm/s DragCoef SpeedOfSound_m/s SonicTemperature_C Pressure_mb 
01/12/2014  00:00:00       10.445      256.987      -18.565       68.557      133.404       67.488     4700.004    17796.751     4554.568        4.677        1.353      257.199       74.701        0.084      334.308        4.193      863.997
01/12/2014  00:01:00        9.361      297.127      -35.693       66.831      129.745       52.219     4466.377    16833.816     2726.827        5.683        1.201      297.274       65.603        0.049      334.317        4.207      863.970
01/12/2014  00:02:00       14.666      255.260      -30.440       72.812       99.635       54.882     5301.529     9927.165     3012.034        4.227        0.912      255.681       50.980        0.040      334.317        4.206      863.978
01/12/2014  00:03:00       22.144      168.512       -7.386       61.252       91.102       50.880     3751.801     8299.485     2588.776        2.179        0.732      169.961       52.995        0.097      334.308        4.193      863.948
01/12/2014  00:04:00       43.192      114.707       10.918       87.543       97.590       56.830     7663.734     9523.808     3229.616        1.778        1.021      122.569       47.566        0.151      334.315        4.206      863.901
01/12/2014  00:05:00       25.656      228.530      -24.803       84.209      103.791       62.332     7091.173    10772.546     3885.231        3.762        1.087      229.965       52.407        0.052      334.305        4.186      863.869
01/12/2014  00:06:00       -8.954      288.209      -38.366       68.303      112.513       50.111     4665.350    12659.115     2511.085        5.222        0.992      288.348       51.230        0.032      334.307        4.190      863.837
01/12/2014  00:07:00        8.514      257.896      -18.238      102.890      122.362       64.401    10586.337    14972.361     4147.530        4.831        1.485      258.036       74.489        0.083      334.301        4.179      863.837
01/12/2014  00:08:00      -41.722      268.145      -30.536       53.446       79.755       37.738     2856.518     6360.791     1424.136        4.261        0.532      271.371       24.724        0.008      334.322        4.213      863.834
01/12/2014  00:09:00       27.893      211.630      -15.058       71.201      102.718       54.927     5069.626    10550.973     3017.015        3.221        0.932      213.460       53.206        0.062      334.318        4.208      863.811
01/12/2014  00:10:00       15.147      217.340      -22.894       61.482      110.763       52.134     3780.020    12268.528     2717.961        3.338        0.938      217.868       59.947        0.076      334.277        4.140      863.787
01/12/2014  00:11:00       -6.552      303.315      -27.681       82.679      107.827       59.937     6835.737    11626.663     3592.492        5.743        1.103      303.386       55.795        0.034      334.277        4.141      863.797
01/12/2014  00:12:00       -6.736      304.147      -29.074       92.373      131.513       59.860     8532.689    17295.623     3583.182        6.140        1.471      304.222       68.942        0.051      334.280        4.144      863.797
01/12/2014  00:13:00      -16.963      256.640      -26.335       89.154      122.453       56.624     7948.524    14994.750     3206.304        4.649        1.307      257.200       69.197        0.072      334.261        4.115      863.815
01/12/2014  00:14:00       19.556      381.769      -51.803       86.525      175.048       59.815     7486.620    30641.848     3577.815        9.525        2.085      382.269       75.773        0.039      334.268        4.125      863.841
01/12/2014  00:15:00      -52.648      345.142      -35.990       75.822      147.354       61.346     5748.904    21713.126     3763.371        7.720        1.561      349.134       69.147        0.039      334.261        4.113      863.884
01/12/2014  00:16:00      -51.412      279.036      -24.546      104.363      127.356       58.890    10891.564    16219.510     3468.038        5.584        1.529      283.733       63.743        0.050      334.278        4.141      863.911
01/12/2014  00:17:00      -43.696      336.989      -51.344       93.852      137.700       49.380     8808.212    18961.155     2438.431        7.415        1.510      339.810       61.481        0.033      334.285        4.154      863.924
01/12/2014  00:18:00      -89.174      274.172      -37.233       77.830      146.590       60.077     6057.573    21488.590     3609.286        5.783        1.558      288.309       70.001        0.059      334.317        4.207      863.969
01/12/2014  00:19:00      -33.602      327.550      -38.720      121.014      164.479       76.772    14644.286    27053.452     5893.981        7.875        2.380      329.269       80.440        0.060      334.285        4.154      863.976
01/12/2014  00:20:00      -33.106      220.761      -15.101       79.016       98.646       52.141     6243.464     9730.984     2718.663        3.437        0.935      223.229       42.218        0.036      334.279        4.144      863.967
01/12/2014  00:21:00      -45.931      268.287      -38.084       78.312       80.711       44.129     6132.845     6514.341     1947.395        4.506        0.730      272.191       39.736        0.021      334.308        4.191      863.956
01/12/2014  00:22:00      -57.072      310.198      -42.440       65.390       92.779       43.142     4275.788     8607.961     1861.228        5.801        0.737      315.404       48.070        0.023      334.257        4.107      863.931
01/12/2014  00:23:00      -34.399      154.234      -32.188       57.518       65.466       28.825     3308.376     4285.839      830.868        1.721        0.421      158.023       22.088        0.020      334.309        4.196      863.890
01/12/2014  00:24:00      -30.399      303.578      -44.736       51.338      125.429       36.543     2635.618    15732.418     1335.404        5.739        0.985      305.096       48.132        0.025      334.269        4.125      863.866
01/12/2014  00:25:00      -57.838      296.281      -36.873       80.636       80.529       39.525     6502.243     6484.848     1562.198        5.352        0.727      301.873       38.111        0.016      334.257        4.106      863.865
01/12/2014  00:26:00      -78.687      217.428      -31.378       54.076       90.945       38.126     2924.245     8271.004     1453.590        3.355        0.632      231.229       22.077        0.009      334.304        4.185      863.878
01/12/2014  00:27:00     -115.311      248.871      -40.514       73.428       95.439       44.745     5391.699     9108.517     2002.125        4.669        0.825      274.287       40.000        0.021      334.248        4.092      863.885
01/12/2014  00:28:00      -86.924      225.369      -26.922       54.510       87.482       39.983     2971.294     7653.028     1598.604        3.565        0.611      241.552       34.328        0.020      334.316        4.204      863.874
01/12/2014  00:29:00      -75.471      116.187      -29.919       69.304       85.472       40.078     4803.041     7305.449     1606.267        1.690        0.686      138.547       53.098        0.147      334.361        4.281      863.873
01/12/2014  00:30:00      -44.404      189.326      -24.833       54.169       75.145       29.198     2934.308     5646.802      852.505        2.393        0.472      194.463       25.074        0.017      334.300        4.179      863.886
01/12/2014  00:31:00      -82.205      193.960       -8.813       53.236      121.098       43.628     2834.078    14664.690     1903.435        3.193        0.970      210.661       55.808        0.070      334.267        4.125      863.916
01/12/2014  00:32:00     -130.802      235.840      -40.485       72.612       72.102       49.716     5272.476     5198.641     2471.667        4.365        0.647      269.685       49.642        0.034      334.236        4.069      863.969
01/12/2014  00:33:00      -41.713      205.156      -27.454       69.187       64.490       37.054     4786.902     4159.006     1372.982        2.745        0.516      209.353       29.986        0.021      334.253        4.101      863.986
01/12/2014  00:34:00      -27.288      330.431      -39.901       66.930       68.394       37.520     4479.618     4677.805     1407.733        6.104        0.528      331.556       31.544        0.009      334.272        4.131      863.971
01/12/2014  00:35:00      -27.646      354.984      -45.169       46.211       72.953       30.203     2135.479     5322.114      912.193        6.859        0.418      356.059       29.459        0.007      334.246        4.088      863.977
01/12/2014  00:36:00        3.555      236.250      -29.652       49.432       74.065       40.272     2443.496     5485.664     1621.827        3.313        0.478      236.277       41.007        0.030      334.260        4.112      864.012
01/12/2014  00:37:00        9.423      126.744      -11.222       30.460       51.302       28.928      927.798     2631.846      836.832        1.034        0.220      127.094       31.821        0.063      334.204        4.021      864.049
01/12/2014  00:38:00       17.149      237.117      -29.133       58.336       88.751       45.235     3403.038     7876.678     2046.225        3.534        0.666      237.736       49.136        0.043      334.205        4.021      864.086
01/12/2014  00:39:00      -83.465      241.438      -32.452       58.496       70.822       40.913     3421.801     5015.801     1673.899        3.821        0.506      255.458       41.304        0.026      334.290        4.160      864.138
01/12/2014  00:40:00      -74.959      152.436      -14.758       57.953       82.757       37.963     3358.501     6848.747     1441.160        2.036        0.582      169.869       45.092        0.070      334.362        4.283      864.178
01/12/2014  00:41:00      -86.336      159.483      -11.882       61.481       69.335       43.882     3779.861     4807.360     1925.669        2.177        0.526      181.353       37.629        0.043      334.313        4.202      864.203
01/12/2014  00:42:00      -84.054      189.870      -32.999       47.787       56.586       31.833     2283.569     3201.971     1013.356        2.535        0.325      207.643       28.049        0.018      334.301        4.181      864.214
01/12/2014  00:43:00      -80.800      282.415      -27.485       79.601       98.291       59.329     6336.371     9661.091     3519.880        5.328        0.976      293.746       54.313        0.034      334.302        4.181      864.236
01/12/2014  00:44:00     -135.772      165.106      -16.672       67.065       97.793       47.767     4497.765     9563.415     2281.667        3.115        0.817      213.761       46.171        0.047      334.325        4.220      864.248
01/12/2014  00:45:00      -50.779      246.159      -27.522       76.896       90.283       43.935     5913.028     8151.007     1930.312        3.996        0.800      251.342       39.827        0.025      334.295        4.170      864.269
01/12/2014  00:46:00      -39.719      264.671      -20.050       71.295      106.673       46.764     5083.042    11379.099     2186.827        4.534        0.932      267.635       42.230        0.025      334.303        4.182      864.274
01/12/2014  00:47:00      -60.376      290.887      -29.303       58.258       65.224       34.401     3393.998     4254.115     1183.422        4.897        0.442      297.087       32.642        0.012      334.281        4.143      864.245
01/12/2014  00:48:00      -41.375      188.393      -26.188       36.197       43.242       24.356     1310.191     1869.839      593.227        2.083        0.189      192.883       14.546        0.006      334.396        4.339      864.188
01/12/2014  00:49:00      -45.814      116.301       -9.317       33.298       86.685       25.672     1108.733     7514.260      659.040        1.250        0.464      124.999       29.850        0.057      334.469        4.461      864.158
01/12/2014  00:50:00     -108.367       86.653      -10.979       60.047       63.322       32.183     3605.661     4009.726     1035.772        1.401        0.433      138.752       33.495        0.058      334.396        4.339      864.163
01/12/2014  00:51:00     -138.280       45.340       -6.524       64.340       58.319       44.240     4139.671     3401.091     1957.176        1.536        0.475      145.523       34.614        0.057      334.552        4.600      864.158
01/12/2014  00:52:00      -90.555      250.528      -27.744       72.680      102.973       42.339     5282.434    10603.444     1792.613        4.470        0.884      266.392       37.697        0.020      334.461        4.446      864.135
01/12/2014  00:53:00     -158.512      282.129      -46.389       69.472       80.151       50.083     4826.336     6424.134     2508.279        6.031        0.688      323.609       41.644        0.017      334.427        4.388      864.117
01/12/2014  00:54:00      -60.928      199.315      -23.509       62.966       61.495       33.924     3964.676     3781.635     1150.848        2.644        0.445      208.419       29.212        0.020      334.405        4.353      864.102
01/12/2014  00:55:00      -26.898      253.699      -21.227       61.211      114.205       43.228     3746.784    13042.795     1868.701        4.209        0.933      255.121       50.933        0.040      334.410        4.361      864.048
01/12/2014  00:56:00      -99.720      293.784      -34.347       52.618       80.292       37.901     2768.602     6446.795     1436.495        5.404        0.533      310.247       39.931        0.017      334.421        4.378      863.992
01/12/2014  00:57:00      -90.070      143.104      -25.512       50.166       81.022       36.303     2516.633     6564.540     1317.902        1.982        0.520      169.090       33.824        0.040      334.498        4.509      863.976
01/12/2014  00:58:00     -130.798       63.474      -21.636       54.097       61.171       29.181     2926.490     3741.894      851.537        1.456        0.376      145.386       32.389        0.050      334.437        4.407      863.995
01/12/2014  00:59:00     -191.497      -47.706       -8.212       77.082       55.671       34.068     5941.565     3099.297     1160.616        2.461        0.510      197.350       31.060        0.025      334.310        4.196      864.005
01/12/2014  01:00:00     -105.992      -18.363        8.407       61.297       53.061       34.796     3757.301     2815.454     1210.738        0.971        0.389      107.570       29.709        0.076      334.154        3.939      864.017
01/12/2014  01:01:00     -245.765      -64.811       -8.467      108.273       98.222       42.733    11723.019     9647.608     1826.075        4.393        1.160      254.167       39.194        0.024      334.192        4.000      864.031
01/12/2014  01:02:00     -411.103      -91.267      -31.387      107.526      103.107       65.146    11561.836    10631.025     4244.019       10.237        1.322      421.112       52.586        0.016      334.200        4.012      864.058
01/12/2014  01:03:00     -331.498      -42.092      -27.141       99.618       96.569       62.738     9923.801     9325.588     3936.022        6.779        1.159      334.160       60.507        0.033      334.130        3.896      864.104
01/12/2014  01:04:00     -342.608      -33.738      -22.904      137.193       98.876       68.046    18822.048     9776.466     4630.269        7.613        1.661      344.265       72.577        0.044      334.158        3.942      864.105
01/12/2014  01:05:00     -331.852      -30.102      -30.856       83.776       72.878       50.834     7018.429     5311.185     2584.143        6.345        0.746      333.215       44.490        0.018      334.163        3.949      864.041
01/12/2014  01:06:00     -132.180      -32.877       -9.693      101.408       66.444       39.142    10283.598     4414.836     1532.112        1.744        0.812      136.207       39.979        0.086      334.157        3.942      863.978
01/12/2014  01:07:00     -158.841       24.281      -29.665       59.229      101.031       45.447     3508.102    10207.296     2065.458        2.124        0.789      160.686       37.665        0.055      334.166        3.957      863.955
01/12/2014  01:08:00     -243.406     -101.174      -31.909       91.102       85.146       45.225     8299.551     7249.839     2045.304        4.404        0.880      263.596       29.247        0.012      334.180        3.978      863.909
01/12/2014  01:09:00     -313.425       -2.900      -17.216      111.068       80.178       41.642    12336.205     6428.549     1734.048        5.952        1.025      313.438       46.361        0.022      334.403        4.349      863.841
01/12/2014  01:10:00     -255.333        5.999      -32.063       63.258       96.428       38.743     4001.633     9298.265     1501.011        4.053        0.740      255.403       23.203        0.008      334.538        4.573      863.800
01/12/2014  01:11:00     -293.570      -35.878      -38.502      104.644       90.856       42.498    10950.457     8254.877     1806.095        5.498        1.051      295.754       42.600        0.021      334.420        4.377      863.821
01/12/2014  01:12:00     -331.433      -66.104      -23.583      102.699       81.289       44.825    10547.145     6607.853     2009.298        6.697        0.958      337.961       33.324        0.010      334.256        4.103      863.866
01/12/2014  01:13:00     -233.087      -54.580      -10.065      105.876       71.005       61.698    11209.789     5041.717     3806.596        3.873        1.003      239.392       60.777        0.064      334.142        3.915      863.848
01/12/2014  01:14:00     -130.184      -54.525      -14.508       78.792       53.634       40.750     6208.239     2876.590     1660.602        1.544        0.537      141.142       28.360        0.040      334.167        3.960      863.774
01/12/2014  01:15:00      -89.576        0.934       -1.084       97.362      102.264       56.939     9479.391    10457.975     3242.075        1.560        1.159       89.581       50.980        0.324      334.291        4.167      863.742
01/12/2014  01:16:00     -214.237      -12.784      -43.022       81.148      131.880       43.666     6584.922    17392.301     1906.704        3.689        1.294      214.618       32.872        0.023      334.330        4.229      863.731
01/12/2014  01:17:00     -233.689      -92.101      -14.096      126.931       89.577       48.614    16111.543     8023.977     2363.278        4.489        1.325      251.184       40.643        0.026      334.369        4.292      863.714
01/12/2014  01:18:00     -216.345       -5.702      -24.787      125.956       87.266       44.764    15864.974     7615.309     2003.819        3.646        1.274      216.420       58.513        0.073      334.375        4.304      863.692
01/12/2014  01:19:00     -149.051       84.123       -8.909       78.108       89.394       53.578     6100.854     7991.274     2870.621        2.316        0.848      171.152       45.219        0.070      334.506        4.522      863.651
01/12/2014  01:20:00     -332.997     -112.361      -19.010      130.766       84.890       56.092    17099.619     7206.229     3146.352        7.566        1.373      351.443       54.552        0.024      334.273        4.133      863.608
01/12/2014  01:21:00     -291.368      -13.802      -41.036       97.309       88.588       46.541     9469.105     7847.829     2166.039        5.312        0.974      291.695       33.812        0.013      334.236        4.072      863.562
01/12/2014  01:22:00     -253.080      -46.998       -6.701       95.634       79.950       52.367     9145.808     6392.069     2742.338        4.229        0.914      257.407       45.636        0.031      334.233        4.067      863.517
01/12/2014  01:23:00     -261.955     -114.942       -4.391       84.806       58.051       39.533     7192.006     3369.937     1562.864        4.699        0.606      286.064       34.893        0.015      334.157        3.940      863.492
01/12/2014  01:24:00     -308.941      -55.295      -11.517      113.582       74.146       42.697    12900.926     5497.653     1823.043        5.942        1.011      313.850       44.464        0.020      334.101        3.848      863.482
01/12/2014  01:25:00     -280.920      -92.433       -1.094      146.970      112.398       63.781    21600.078    12633.335     4067.976        6.287        1.915      295.737       73.142        0.061      334.096        3.839      863.465
01/12/2014  01:26:00     -380.961      -84.842      -27.303      125.126      116.321       70.107    15656.516    13530.646     4914.969        9.358        1.705      390.294       59.309        0.023      334.061        3.782      863.484
01/12/2014  01:27:00     -339.903     -102.278      -25.604      105.825       82.074       57.868    11198.925     6736.208     3348.755        7.396        1.064      354.958       44.062        0.015      334.099        3.845      863.484
01/12/2014  01:28:00     -312.992     -115.126      -40.827      103.949      104.741       69.754    10805.355    10970.709     4865.586        6.976        1.332      333.494       51.716        0.024      334.104        3.852      863.495
01/12/2014  01:29:00     -248.303      -70.334       -3.490      132.411       87.400       63.206    17532.758     7638.673     3994.998        4.788        1.458      258.072       70.107        0.074      334.137        3.908      863.498
01/12/2014  01:30:00     -276.948      -63.881      -17.950      130.154       71.759       48.577    16940.178     5149.391     2359.750        5.277        1.222      284.220       52.159        0.034      334.109        3.861      863.519
01/12/2014  01:31:00     -444.739      -66.645      -44.234      109.284       92.572       52.945    11942.946     8569.625     2803.155       11.375        1.166      449.705       54.688        0.015      334.106        3.855      863.550
01/12/2014  01:32:00     -223.068      -68.731       -3.821      119.021       86.411       53.363    14165.917     7466.777     2847.663        3.949        1.224      233.416       38.189        0.027      334.066        3.790      863.550
01/12/2014  01:33:00     -298.175     -106.675      -32.288      137.564       93.783       69.387    18923.929     8795.245     4814.537        6.693        1.627      316.683       71.541        0.051      334.021        3.716      863.557
01/12/2014  01:34:00     -354.915      -51.947      -29.400      131.452      102.123       60.515    17279.536    10429.173     3662.101        8.044        1.569      358.697       64.347        0.032      333.943        3.585      863.557
01/12/2014  01:35:00     -397.353      -37.882      -34.133      104.748      117.634       54.328    10972.187    13837.827     2951.551        9.412        1.388      399.154       52.083        0.017      333.952        3.603      863.545
01/12/2014  01:36:00     -300.554      -56.890      -37.740       96.703       77.450       58.555     9351.393     5998.520     3428.736        5.688        0.939      305.891       51.744        0.029      333.930        3.565      863.539
01/12/2014  01:37:00     -200.867      -69.001      -13.152      112.576       81.980       53.245    12673.444     6720.743     2835.072        3.375        1.111      212.388       55.610        0.069      333.886        3.491      863.524
01/12/2014  01:38:00     -280.779     -117.673      -26.396       93.703       89.414       54.165     8780.229     7994.926     2933.871        5.654        0.985      304.440       54.230        0.032      333.871        3.467      863.525
01/12/2014  01:39:00     -251.454      -92.046      -11.359      125.350      102.732       66.777    15712.589    10553.827     4459.193        5.127        1.536      267.771       63.456        0.056      333.810        3.365      863.520
01/12/2014  01:40:00     -350.360       -0.292      -46.516      169.196      124.831       66.355    28627.406    15582.711     4402.942        8.676        2.431      350.360       61.637        0.031      333.806        3.358      863.527
01/12/2014  01:41:00     -161.096        1.230      -12.298       80.740       89.385       51.566     6519.018     7989.639     2659.071        2.163        0.858      161.100       39.804        0.061      333.775        3.310      863.549
01/12/2014  01:42:00     -299.988      -96.236      -28.502       94.116       73.102       54.675     8857.795     5343.957     2989.358        5.863        0.860      315.046       41.342        0.017      333.826        3.391      863.582
01/12/2014  01:43:00     -244.144     -101.637      -29.648       76.414       64.759       44.718     5839.063     4193.668     1999.669        4.142        0.602      264.455       33.784        0.016      333.815        3.372      863.618
01/12/2014  01:44:00     -185.244      -45.858        4.016      136.576       91.927       43.820    18652.990     8450.609     1920.200        3.272        1.451      190.836       53.527        0.079      333.818        3.380      863.664
01/12/2014  01:45:00     -167.985      120.719      -24.132       84.669      142.084       55.494     7168.882    20187.824     3079.607        3.690        1.522      206.863       38.289        0.034      333.896        3.509      863.692
01/12/2014  01:46:00     -185.288      -61.108      -27.264       86.601       79.975       66.225     7499.727     6395.947     4385.776        2.854        0.914      195.105       56.814        0.085      333.943        3.588      863.721
01/12/2014  01:47:00     -159.692       25.084      -26.943      112.137       89.964       54.937    12574.738     8093.459     3018.041        2.527        1.184      161.650       51.204        0.100      333.933        3.573      863.766
01/12/2014  01:48:00     -217.468       64.665      -36.657      114.540      181.985       61.336    13119.312    33118.697     3762.112        5.140        2.500      226.879       69.474        0.094      333.916        3.539      863.772
01/12/2014  01:49:00     -189.901       33.315      -26.830       81.784       90.428       51.739     6688.623     8177.167     2676.900        2.771        0.877      192.801       38.129        0.039      333.922        3.553      863.786
01/12/2014  01:50:00     -172.818       27.719      -22.474       89.129      111.567       55.848     7943.984    12447.285     3118.944        2.732        1.176      175.027       54.087        0.095      333.890        3.499      863.787
01/12/2014  01:51:00     -166.681       95.247      -35.547       87.116       71.158       44.576     7589.173     5063.508     1987.012        2.638        0.732      191.975       42.520        0.049      333.918        3.546      863.804
01/12/2014  01:52:00     -206.946       74.124      -36.936      113.166       93.321       54.500    12806.623     8708.893     2970.252        3.708        1.224      219.821       54.500        0.061      333.935        3.574      863.805
01/12/2014  01:53:00     -274.276     -123.389      -18.468      111.545       96.672       54.744    12442.231     9345.520     2996.925        5.778        1.239      300.753       33.218        0.012      333.778        3.313      863.823
01/12/2014  01:54:00     -210.009      -97.436      -26.333      121.522       89.897       53.209    14767.500     8081.501     2831.185        3.998        1.284      231.512       46.633        0.041      333.694        3.173      863.839
01/12/2014  01:55:00     -156.316       71.787      -20.780       80.546       92.293       42.545     6487.700     8517.920     1810.073        2.341        0.841      172.012       29.324        0.029      333.705        3.192      863.815
01/12/2014  01:56:00     -139.406       66.797      -29.378       98.582       94.989       55.152     9718.352     9022.880     3041.709        2.327        1.089      154.583       62.031        0.161      333.741        3.253      863.827
01/12/2014  01:57:00     -139.101      112.071      -19.463       80.333      117.366       58.140     6453.371    13774.805     3380.215        2.794        1.180      178.631       47.055        0.069      333.780        3.317      863.806
01/12/2014  01:58:00     -129.760       36.740      -18.756       78.629       53.584       52.777     6182.581     2871.291     2785.377        1.519        0.592      134.861       48.455        0.129      333.780        3.318      863.825
01/12/2014  01:59:00     -129.918       47.487       -8.395       80.688      124.949       64.417     6510.507    15612.331     4149.601        2.273        1.314      138.325       50.811        0.135      333.760        3.283      863.832
01/12/2014  02:00:00     -150.798       37.185      -23.560       73.031       85.183       37.557     5333.589     7256.118     1410.494        1.934        0.700      155.315       35.057        0.051      333.711        3.202      863.817
01/12/2014  02:01:00     -231.108      -47.632      -30.801       79.511       70.804       41.691     6321.927     5013.196     1738.098        3.485        0.654      235.966       23.893        0.010      333.639        3.082      863.805
01/12/2014  02:02:00     -234.754      -35.948      -18.992       60.198       92.382       51.270     3623.826     8534.399     2628.597        3.577        0.739      237.490       36.544        0.024      333.584        2.991      863.821
01/12/2014  02:03:00     -237.651      -12.088      -11.116       86.770       80.355       43.722     7529.071     6456.855     1911.612        3.632        0.795      237.958       46.674        0.038      333.531        2.902      863.850
01/12/2014  02:04:00     -212.274      -55.314      -13.429       64.688       68.690       41.078     4184.526     4718.379     1687.419        2.944        0.530      219.362       28.848        0.017      333.525        2.891      863.866
01/12/2014  02:05:00     -228.868      -76.028      -17.418       81.487       57.481       38.480     6640.158     3304.072     1480.721        3.494        0.571      241.166       15.425        0.004      333.527        2.896      863.925
01/12/2014  02:06:00     -166.081      -56.783        4.583      126.575       90.275       60.902    16021.121     8149.510     3709.007        2.935        1.394      175.520       74.159        0.179      333.526        2.896      863.933
01/12/2014  02:07:00     -241.639      -33.196       -2.064      118.874       94.102       53.356    14131.068     8855.130     2846.896        4.266        1.292      243.908       50.920        0.044      333.474        2.808      863.956
01/12/2014  02:08:00     -187.547      -89.132       -2.520      105.201       90.516       47.758    11067.188     8193.156     2280.822        3.233        1.077      207.650       42.329        0.042      333.491        2.837      863.947
01/12/2014  02:09:00     -182.753      -35.443      -17.817       87.476       75.366       41.627     7652.098     5680.066     1732.795        2.502        0.753      186.158       34.615        0.035      333.489        2.833      863.952
01/12/2014  02:10:00     -197.922      114.412      -25.537       83.852       94.766       59.776     7031.221     8980.555     3573.222        3.625        0.979      228.612       49.936        0.048      333.524        2.892      863.958
01/12/2014  02:11:00     -162.837       37.438       -4.828       56.444       70.503       46.899     3185.918     4970.739     2199.504        1.915        0.518      167.086       24.108        0.021      333.526        2.896      863.977
01/12/2014  02:12:00     -217.975       76.269      -19.857      104.966       93.427       52.639    11017.923     8728.614     2770.854        3.812        1.126      230.933       55.797        0.058      333.565        2.962      864.014
01/12/2014  02:13:00     -168.134        0.881      -20.353       56.263       62.992       37.876     3165.558     3968.027     1434.611        1.862        0.428      168.136       22.278        0.018      333.572        2.973      864.043
01/12/2014  02:14:00     -245.717      -86.212       -6.229      126.035       86.890       53.085    15884.822     7549.836     2818.069        4.705        1.313      260.403       50.844        0.038      333.457        2.780      864.078
01/12/2014  02:15:00     -170.564       38.473      -22.476       87.710      103.886       47.314     7693.086    10792.298     2238.635        2.590        1.036      174.849       39.555        0.051      333.454        2.774      864.064
01/12/2014  02:16:00     -211.868      -23.810      -41.200       78.220       59.910       44.595     6118.398     3589.162     1988.743        2.942        0.585      213.201       28.728        0.018      333.515        2.876      864.042
01/12/2014  02:17:00     -196.608       24.223      -24.205       84.587      128.527       48.781     7154.975    16519.296     2379.620        3.294        1.303      198.095       38.035        0.037      333.513        2.873      864.029
01/12/2014  02:18:00     -243.534      -68.344      -27.323       95.293       84.330       46.103     9080.781     7111.608     2125.512        4.152        0.916      252.942       40.734        0.026      333.526        2.894      864.021
01/12/2014  02:19:00     -260.369      -50.304      -31.819       89.440      116.277       48.685     7999.589    13520.378     2370.250        4.761        1.195      265.184       31.993        0.015      333.572        2.971      864.008
01/12/2014  02:20:00     -153.721      -15.985      -27.888       72.485       80.762       50.632     5254.015     6522.531     2563.549        1.950        0.717      154.550       18.292        0.014      333.550        2.936      864.006
01/12/2014  02:21:00     -188.633     -100.653        1.185      125.148       87.437       53.421    15661.948     7645.147     2853.752        3.593        1.308      213.807       50.223        0.055      333.537        2.913      864.018
01/12/2014  02:22:00     -254.222      -63.753      -14.822      119.745      106.035       56.699    14338.834    11243.318     3214.762        4.885        1.440      262.094       51.399        0.038      333.516        2.879      864.025
01/12/2014  02:23:00     -168.998      -39.003       -9.180      146.245       88.566       64.784    21387.601     7843.879     4197.028        3.179        1.671      173.441       75.466        0.189      333.508        2.865      864.052
01/12/2014  02:24:00     -103.832      -38.989        0.321      110.786       92.619       52.357    12273.488     8578.290     2741.211        1.794        1.180      110.910       62.210        0.315      333.494        2.843      864.062
01/12/2014  02:25:00     -289.346      -50.051      -20.512       91.538       97.978       42.657     8379.294     9599.768     1819.594        5.322        0.990      293.643       35.380        0.015      333.437        2.747      864.074
01/12/2014  02:26:00     -232.617      -54.444      -41.986       91.847       94.546       52.675     8435.914     8939.034     2774.651        3.949        1.007      238.903       29.116        0.015      333.432        2.738      864.076
01/12/2014  02:27:00     -109.114      -65.712        2.365      114.923       75.434       54.876    13207.285     5690.338     3011.418        1.907        1.095      127.373       66.198        0.270      333.420        2.722      864.119
01/12/2014  02:28:00     -135.402      -59.534       -5.270      145.364       83.623       45.419    21130.684     6992.857     2062.855        2.604        1.509      147.912       67.238        0.207      333.429        2.736      864.116
01/12/2014  02:29:00     -172.609      -40.265      -12.047       80.345       81.691       48.486     6455.322     6673.472     2350.940        2.352        0.774      177.244       28.052        0.025      333.412        2.708      864.131
01/12/2014  02:30:00     -160.667       68.873      -28.343       85.751       83.022       50.640     7353.235     6892.628     2564.426        2.408        0.841      174.807       47.022        0.072      333.485        2.828      864.163
01/12/2014  02:31:00     -161.540      130.520      -19.803       98.762      121.875       67.874     9753.848    14853.488     4606.914        3.636        1.461      207.679       67.395        0.105      333.520        2.886      864.195
01/12/2014  02:32:00     -127.360       12.800       -1.973       70.729       72.542       46.671     5002.634     5262.326     2178.160        1.441        0.622      128.002       47.748        0.139      333.531        2.905      864.233
01/12/2014  02:33:00      -67.931       24.096       -1.928       93.474       58.742       57.753     8737.472     3450.585     3335.459        1.036        0.776       72.078       56.881        0.623      333.577        2.982      864.243
01/12/2014  02:34:00     -137.531       97.360       -7.302       98.848      121.766       67.388     9770.916    14826.984     4541.160        2.879        1.457      168.505       76.880        0.208      333.550        2.938      864.231
01/12/2014  02:35:00      -85.756      140.137      -12.815       59.944      117.990       54.830     3593.224    13921.534     3006.350        2.384        1.026      164.294       45.228        0.076      333.590        3.003      864.220
01/12/2014  02:36:00      -93.835      126.307      -12.968       72.212      107.899       44.183     5214.542    11642.207     1952.144        2.186        0.940      157.349       50.539        0.103      333.621        3.054      864.245
01/12/2014  02:37:00      -58.277      134.927        4.509      100.455       90.198       51.363    10091.241     8135.646     2638.112        2.124        1.043      146.975       57.935        0.155      333.558        2.950      864.242
01/12/2014  02:38:00      -96.151      120.850      -22.042       94.139       65.163       62.462     8862.201     4246.168     3901.538        2.067        0.850      154.433       51.565        0.111      333.595        3.011      864.266
01/12/2014  02:39:00     -172.604      170.298      -16.500       74.984      109.695       55.745     5622.536    12032.964     3107.470        3.991        1.038      242.474       39.487        0.027      333.617        3.046      864.278
01/12/2014  02:40:00     -127.353      162.220      -36.235       76.768       89.671       44.021     5893.373     8040.913     1937.823        2.986        0.794      206.238       33.538        0.026      333.593        3.007      864.271
01/12/2014  02:41:00     -134.578      106.840      -31.481       79.963      103.172       45.676     6394.153    10644.388     2086.299        2.482        0.956      171.831       39.609        0.053      333.562        2.957      864.235
01/12/2014  02:42:00     -145.116      127.269       -9.114       93.571       85.611       54.821     8755.566     7329.250     3005.378        2.821        0.955      193.019       37.995        0.039      333.541        2.921      864.230
01/12/2014  02:43:00     -191.664      144.668      -33.514      107.221      121.527       56.314    11496.258    14768.807     3171.250        4.411        1.472      240.133       57.730        0.058      333.531        2.905      864.231
01/12/2014  02:44:00     -172.087      180.052      -24.217       94.123       96.514       59.724     8859.089     9315.047     3566.917        4.218        1.087      249.063       54.029        0.047      333.505        2.859      864.200
01/12/2014  02:45:00     -155.814      100.442      -39.135       81.958       81.924       55.440     6717.137     6711.499     3073.542        2.620        0.825      185.382       43.015        0.054      333.507        2.863      864.158
01/12/2014  02:46:00     -159.761      170.351      -22.906      105.212       83.047       59.743    11069.639     6896.849     3569.261        3.830        1.077      233.544       54.966        0.055      333.511        2.873      864.170
01/12/2014  02:47:00     -144.601      127.095      -23.155      106.004       95.945       55.796    11236.789     9205.494     3113.234        3.057        1.178      192.516       60.670        0.099      333.504        2.859      864.180
01/12/2014  02:48:00     -172.020      133.221      -34.646      111.929      108.058       58.535    12528.140    11676.484     3426.383        3.808        1.382      217.574       45.301        0.043      333.553        2.940      864.195
01/12/2014  02:49:00     -160.990      116.758      -28.269       98.115      103.975       52.134     9626.533    10810.796     2717.910        3.175        1.158      198.872       48.042        0.058      333.604        3.024      864.247
01/12/2014  02:50:00     -188.966      127.166      -33.291       98.643       98.283       52.574     9730.485     9659.635     2764.000        3.757        1.108      227.770       45.716        0.040      333.503        2.857      864.288
01/12/2014  02:51:00      -81.296      191.029      -21.160      102.014      119.734       48.247    10406.936    14336.273     2327.798        3.531        1.354      207.608       44.421        0.046      333.469        2.801      864.304
01/12/2014  02:52:00       -9.359      274.226      -45.050       52.773       51.789       22.859     2785.023     2682.062      522.554        4.165        0.299      274.386        9.856        0.001      333.395        2.678      864.345
01/12/2014  02:53:00       54.079      178.685      -13.452       50.759       72.236       46.040     2576.436     5218.070     2119.648        2.247        0.496      186.689       42.834        0.053      333.365        2.631      864.390
01/12/2014  02:54:00       67.649      111.643       -3.375       60.511       63.237       40.664     3661.561     3998.906     1653.588        1.318        0.466      130.540       37.698        0.083      333.322        2.561      864.432
01/12/2014  02:55:00       61.118      160.402       -9.367       71.426       82.076       60.180     5101.734     6736.526     3621.622        2.250        0.773      171.651       48.688        0.080      333.306        2.532      864.437
01/12/2014  02:56:00       62.372      138.985      -11.418       56.210       81.528       55.582     3159.574     6646.804     3089.364        1.811        0.645      152.338       50.126        0.108      333.262        2.461      864.440
01/12/2014  02:57:00       68.543       92.193        3.809       72.663       51.285       48.388     5279.862     2630.144     2341.411        1.173        0.513      114.881       35.047        0.093      333.190        2.340      864.437
01/12/2014  02:58:00       34.620       76.006        1.362       45.379       52.926       41.861     2059.286     2801.204     1752.314        0.679        0.331       83.519       34.157        0.167      333.190        2.341      864.446
01/12/2014  02:59:00       70.259       69.440        2.706       56.692       57.544       35.513     3214.007     3311.369     1261.143        0.877        0.389       98.784       34.636        0.123      333.240        2.425      864.449
01/12/2014  03:00:00       63.589       43.622       19.604       65.398       42.669       40.295     4276.913     1820.663     1623.660        0.702        0.386       77.113       33.599        0.190      333.339        2.588      864.432
01/12/2014  03:01:00       18.053       99.839      -10.458       48.085       91.984       33.695     2312.141     8461.041     1135.367        1.115        0.595      101.458       38.872        0.147      333.311        2.541      864.431
01/12/2014  03:02:00       28.294       40.491        3.685       57.948       47.189       31.312     3358.027     2226.834      980.447        0.451        0.328       49.397       31.421        0.405      333.361        2.625      864.447
01/12/2014  03:03:00       -9.138       43.070       -1.986       39.461       33.491       17.666     1557.160     1121.647      312.076        0.247        0.150       44.028       13.375        0.092      333.362        2.627      864.462
01/12/2014  03:04:00      -55.637       51.168       -6.760       40.351       67.925       28.950     1628.218     4613.819      838.114        0.642        0.354       75.589       35.494        0.220      333.356        2.617      864.472
01/12/2014  03:05:00       14.359      174.323      -13.104       56.929       73.006       38.917     3240.963     5329.823     1514.499        2.042        0.504      174.914       28.301        0.026      333.317        2.552      864.488
01/12/2014  03:06:00      105.120      200.595      -20.822       99.639      106.872       55.835     9927.967    11421.576     3117.556        3.809        1.223      226.469       57.786        0.065      333.511        2.871      864.454
01/12/2014  03:07:00       70.317      207.325      -15.335       82.988      145.758       68.339     6886.947    21245.454     4670.215        4.048        1.640      218.925       76.267        0.121      333.461        2.787      864.463
01/12/2014  03:08:00       13.235      236.430      -37.080       58.286       77.401       41.566     3397.203     5990.959     1727.718        3.428        0.556      236.800       35.822        0.023      333.549        2.931      864.496
01/12/2014  03:09:00      -18.405      219.417      -34.158       75.653       79.435       32.974     5723.371     6309.968     1087.293        3.138        0.656      220.187       29.404        0.018      333.666        3.127      864.509
01/12/2014  03:10:00       12.860      147.986       -2.553       69.368       63.286       45.687     4811.948     4005.092     2087.282        1.649        0.545      148.544       37.329        0.063      333.717        3.212      864.515
01/12/2014  03:11:00      -18.168      185.002       -2.663       88.483       78.556       58.062     7829.296     6170.977     3371.197        2.596        0.869      185.892       59.245        0.102      333.780        3.316      864.546
01/12/2014  03:12:00      -56.328      256.434      -21.121       78.031       67.468       38.752     6088.892     4551.992     1501.756        4.076        0.607      262.548       36.359        0.019      334.004        3.685      864.530
01/12/2014  03:13:00       51.539      148.358      -13.685       74.060       90.477       48.593     5484.956     8186.090     2361.241        2.044        0.802      157.056       45.353        0.083      334.037        3.743      864.550
01/12/2014  03:14:00      -68.303      213.607      -22.180      125.995       90.913       58.325    15874.664     8265.184     3401.786        3.916        1.377      224.261       47.456        0.045      333.949        3.595      864.584
01/12/2014  03:15:00      -61.448      167.214      -29.829       75.194      109.447       42.047     5654.134    11978.627     1767.980        2.601        0.970      178.147       40.564        0.052      333.845        3.424      864.597
01/12/2014  03:16:00      -80.259      394.688      -51.981       82.670       85.286       50.430     6834.367     7273.722     2543.140        9.078        0.833      402.766       49.136        0.015      333.816        3.374      864.604
01/12/2014  03:17:00     -108.346      222.658      -37.630       61.476      110.606       41.928     3779.296    12233.588     1757.997        4.025        0.889      247.620       37.129        0.022      333.830        3.398      864.617
01/12/2014  03:18:00      -74.489      137.311      -11.441       75.615       80.370       48.603     5717.591     6459.388     2362.289        1.953        0.727      156.214       55.243        0.125      333.815        3.374      864.615
01/12/2014  03:19:00      -36.981      332.863      -40.349       55.922      131.217       38.930     3127.311    17217.810     1515.559        6.782        1.093      334.911       38.080        0.013      333.800        3.348      864.594
01/12/2014  03:20:00     -124.269      216.348      -30.118       85.069      117.157       44.224     7236.756    13725.651     1955.754        4.303        1.146      249.498       40.127        0.026      333.809        3.363      864.579
01/12/2014  03:21:00     -205.702      264.646      -58.219       65.021       89.982       40.982     4227.739     8096.838     1679.510        6.487        0.700      335.187       37.203        0.012      333.900        3.514      864.601
01/12/2014  03:22:00     -118.517      207.998      -29.712       58.629       84.491       36.571     3437.322     7138.727     1337.430        3.505        0.596      239.394       36.520        0.023      333.881        3.485      864.603
01/12/2014  03:23:00     -102.255      221.075      -24.728       52.621       72.341       42.466     2768.939     5233.269     1803.382        3.487        0.490      243.578       41.027        0.028      333.942        3.584      864.592
01/12/2014  03:24:00     -142.453       95.354      -18.814       70.615       64.972       40.753     4986.520     4221.340     1660.790        2.030        0.543      171.422       41.815        0.060      333.788        3.330      864.550
01/12/2014  03:25:00      -69.824      148.937      -29.288       58.851       98.978       31.624     3463.462     9796.699     1000.074        2.109        0.713      164.492       42.465        0.067      333.892        3.504      864.518
01/12/2014  03:26:00      -90.784      115.739      -22.286       49.323       71.012       34.137     2432.797     5042.740     1165.335        1.539        0.432      147.097       25.751        0.031      333.799        3.350      864.528
01/12/2014  03:27:00      -57.593      128.331      -27.776       61.572       50.691       24.384     3791.097     2569.562      594.567        1.376        0.348      140.662       22.143        0.025      333.832        3.405      864.498
01/12/2014  03:28:00     -115.350       50.976      -22.002       33.020       35.812       22.171     1090.295     1282.500      491.551        0.963        0.143      126.112        7.895        0.004      333.886        3.494      864.504
01/12/2014  03:29:00     -162.924       73.220      -14.823       52.599       44.802       33.399     2766.633     2007.198     1115.525        1.901        0.294      178.621       21.915        0.015      333.844        3.424      864.529
01/12/2014  03:30:00     -134.597       49.813      -11.176       51.885       41.633       27.852     2692.002     1733.336      775.744        1.296        0.260      143.519       18.858        0.017      333.694        3.176      864.510
01/12/2014  03:31:00     -106.423       92.527      -10.730      113.712      142.441       44.662    12930.334    20289.365     1994.678        2.760        1.761      141.022       49.520        0.123      333.624        3.057      864.467
01/12/2014  03:32:00      -96.022      127.365      -19.341       49.945       76.607       39.740     2494.498     5868.654     1579.282        1.788        0.497      159.506       42.306        0.070      333.655        3.110      864.438
01/12/2014  03:33:00     -170.020      114.070      -29.530       67.493       65.522       39.908     4555.345     4293.178     1592.621        2.661        0.522      204.741       36.417        0.032      333.588        2.998      864.412
01/12/2014  03:34:00     -201.216       73.612      -36.487       73.878       55.856       35.337     5457.934     3119.885     1248.679        2.853        0.491      214.258       27.840        0.017      333.474        2.808      864.396
01/12/2014  03:35:00      -49.347      127.810      -14.695       59.520       85.293       38.646     3542.606     7274.918     1493.489        1.565        0.616      137.005       29.423        0.046      333.499        2.851      864.370
01/12/2014  03:36:00      -96.546       94.882      -13.328       48.957       49.042       27.432     2396.828     2405.095      752.518        1.203        0.278      135.366       28.076        0.043      333.415        2.714      864.368
01/12/2014  03:37:00     -112.977       97.479      -24.195       67.135       68.180       31.087     4507.162     4648.557      966.392        1.649        0.506      149.218       35.714        0.057      333.367        2.635      864.378
01/12/2014  03:38:00      -81.979      102.095      -10.880       46.383       44.325       28.668     2151.361     1964.705      821.875        1.110        0.247      130.935       25.264        0.037      333.277        2.484      864.365
01/12/2014  03:39:00      -60.723      105.091      -11.564       44.710       39.478       26.782     1998.941     1558.537      717.288        0.957        0.214      121.373       22.630        0.035      333.355        2.614      864.350
01/12/2014  03:40:00     -156.262      145.071      -34.725       55.831       52.800       38.420     3117.137     2787.884     1476.090        2.702        0.369      213.222       33.822        0.025      333.268        2.469      864.336
01/12/2014  03:41:00      -74.565      109.417      -12.073       37.383       52.489       27.708     1397.455     2755.073      767.706        1.130        0.246      132.408       20.876        0.025      333.279        2.491      864.320
01/12/2014  03:42:00      -46.769      179.515      -18.638       32.393       52.487       26.533     1049.313     2754.892      704.006        1.963        0.225      185.507       22.723        0.015      333.310        2.538      864.296
01/12/2014  03:43:00      -74.048      112.075      -26.442       28.008       41.919       20.784      784.447     1757.219      431.993        1.086        0.149      134.328       15.220        0.013      333.388        2.670      864.292
01/12/2014  03:44:00      -56.512       48.975       -6.810       28.991       49.404       20.369      840.471     2440.713      414.903        0.467        0.185       74.781       17.191        0.053      333.295        2.515      864.322
01/12/2014  03:45:00      -39.546      136.299      -16.943       45.158       52.026       28.579     2039.268     2706.699      816.750        1.299        0.278      141.920       25.319        0.032      333.384        2.664      864.353
01/12/2014  03:46:00      -75.524      146.535      -22.191       45.861       51.217       28.553     2103.192     2623.175      815.289        1.660        0.277      164.853       21.168        0.016      333.281        2.492      864.370
01/12/2014  03:47:00      -12.529      199.302      -25.757       26.544       35.005       17.487      704.560     1225.325      305.782        2.139        0.112      199.695       10.274        0.003      333.207        2.369      864.369
01/12/2014  03:48:00      -24.714      193.709      -25.081       38.707       48.259       21.721     1498.209     2328.885      471.784        2.153        0.215      195.279       18.230        0.009      333.172        2.312      864.375
01/12/2014  03:49:00      -56.750      267.856      -31.699       41.193       74.318       29.681     1696.889     5523.231      880.947        4.204        0.405      273.802       36.135        0.017      333.173        2.313      864.390
01/12/2014  03:50:00      -52.812      251.561      -24.564       49.035       58.019       31.966     2404.431     3366.172     1021.818        3.673        0.340      257.045       29.708        0.013      333.091        2.177      864.410
01/12/2014  03:51:00      -67.262      247.687      -28.525       60.884       81.805       30.938     3706.922     6692.125      957.158        3.902        0.568      256.658       35.223        0.019      333.127        2.236      864.425
01/12/2014  03:52:00      -78.196      236.830      -28.948       60.961       87.586       43.258     3716.202     7671.357     1871.240        3.815        0.663      249.405       39.790        0.025      333.123        2.229      864.433
01/12/2014  03:53:00     -111.811      201.207      -30.012       52.598       61.059       33.434     2766.553     3728.177     1117.860        3.075        0.381      230.187       27.403        0.014      333.179        2.322      864.420
01/12/2014  03:54:00     -127.620      194.385      -35.393       38.065       59.103       33.266     1448.940     3493.140     1106.607        3.069        0.302      232.535       22.043        0.009      333.167        2.300      864.405
01/12/2014  03:55:00     -115.824      119.881      -21.776       53.104       69.956       33.840     2820.046     4893.856     1145.118        1.856        0.443      166.693       35.029        0.044      333.238        2.420      864.393
01/12/2014  03:56:00     -131.907       85.412      -22.951       55.482       68.127       34.588     3078.279     4641.225     1196.351        1.707        0.446      157.145       28.637        0.033      333.318        2.552      864.366
01/12/2014  03:57:00     -144.797        8.849      -21.350       63.854       51.454       26.919     4077.348     2647.538      724.644        1.447        0.372      145.068       12.712        0.008      333.193        2.346      864.339
01/12/2014  03:58:00     -202.718      -59.432      -11.431       92.744       49.851       36.169     8601.503     2485.119     1308.170        2.857        0.620      211.251       40.561        0.037      333.090        2.176      864.302
01/12/2014  03:59:00     -303.019      -72.324      -14.062       91.079       72.119       46.848     8295.351     5201.199     2194.759        5.647        0.785      311.530       44.073        0.020      333.044        2.099      864.279
01/12/2014  04:00:00     -204.017      -52.735        5.681       94.343       88.928       51.017     8900.568     7908.272     2602.707        3.192        0.971      210.722       41.728        0.039      332.966        1.969      864.262
01/12/2014  04:01:00     -283.509      -30.539      -12.778      115.273       71.126       50.717    13287.759     5058.881     2572.225        5.119        1.046      285.149       57.336        0.040      332.918        1.890      864.260
01/12/2014  04:02:00     -293.390      -68.822      -13.789      129.083       69.008       45.373    16662.415     4762.080     2058.666        5.724        1.174      301.354       56.763        0.035      332.956        1.952      864.282
01/12/2014  04:03:00     -163.570      -28.949      -11.141       91.336       57.553       38.444     8342.245     3312.327     1477.908        2.042        0.657      166.112       41.755        0.063      332.944        1.935      864.316
01/12/2014  04:04:00     -112.311        1.073       -5.445       43.296       49.073       38.013     1874.527     2408.146     1445.023        0.919        0.286      112.316       25.820        0.053      332.968        1.975      864.358
01/12/2014  04:05:00      -71.023       46.868       -2.744       59.818       93.458       53.252     3578.251     8734.338     2835.790        1.120        0.757       85.093       46.170        0.294      332.969        1.977      864.411
01/12/2014  04:06:00      -85.207       72.632      -11.001       37.548       56.150       32.124     1409.843     3152.862     1031.981        0.912        0.280      111.962       20.967        0.035      332.991        2.014      864.487
01/12/2014  04:07:00      -82.748      158.054      -17.476       53.081       69.061       41.494     2817.552     4769.425     1721.770        2.072        0.465      178.405       32.493        0.033      333.093        2.180      864.562
01/12/2014  04:08:00      -58.224      147.147      -19.287       54.939       59.666       30.262     3018.263     3560.000      915.789        1.645        0.375      158.247       27.663        0.031      333.152        2.278      864.645
01/12/2014  04:09:00     -105.012      175.138      -31.884       56.567       53.483       35.974     3199.774     2860.483     1294.154        2.503        0.368      204.208       35.953        0.031      333.096        2.185      864.716
01/12/2014  04:10:00     -119.542      114.512      -27.344       74.416       58.049       38.612     5537.776     3369.688     1490.912        1.927        0.520      165.539       48.185        0.085      333.026        2.071      864.749
01/12/2014  04:11:00     -124.493      109.548      -26.202       44.899       68.569       34.594     2015.902     4701.711     1196.751        1.805        0.396      165.829       39.303        0.056      333.006        2.037      864.750
01/12/2014  04:12:00      -85.644      143.983      -20.740       55.050       86.046       34.703     3030.518     7403.833     1204.288        2.007        0.582      167.529       44.162        0.069      333.059        2.125      864.752
01/12/2014  04:13:00     -104.816      222.078      -31.888       58.469       97.758       37.561     3418.678     9556.570     1410.864        3.785        0.719      245.571       35.262        0.021      333.164        2.295      864.755
01/12/2014  04:14:00      -86.647      201.655      -26.497       54.948       83.357       31.896     3019.291     6948.454     1017.332        2.993        0.549      219.482       37.662        0.029      333.229        2.404      864.745
01/12/2014  04:15:00     -214.360      269.582      -56.196       66.753       77.944       47.777     4455.915     6075.190     2282.684        6.730        0.641      344.419       41.050        0.014      333.331        2.573      864.739
01/12/2014  04:16:00     -225.748      336.814      -56.762       79.691      102.543       49.199     6350.661    10514.965     2420.504        9.345        0.964      405.470       52.050        0.016      333.326        2.565      864.744
01/12/2014  04:17:00     -116.795      351.494      -29.941       79.999      110.639       54.485     6399.899    12240.954     2968.603        7.984        1.080      370.391       59.648        0.026      333.501        2.853      864.718
01/12/2014  04:18:00     -117.859      259.194      -28.608       64.321      100.290       49.347     4137.225    10058.126     2435.147        4.926        0.832      284.732       46.049        0.026      333.639        3.084      864.705
01/12/2014  04:19:00      -97.315      236.959      -20.366       45.110       96.618       39.904     2034.870     9335.049     1592.294        3.950        0.648      256.163       40.180        0.025      333.594        3.008      864.653
01/12/2014  04:20:00     -147.544      155.066      -24.559       55.791       74.108       34.301     3112.615     5492.061     1176.569        2.810        0.489      214.044       23.910        0.012      333.480        2.818      864.610
01/12/2014  04:21:00     -100.068      145.338      -27.152       88.118       96.414       42.653     7764.786     9295.643     1819.291        2.537        0.944      176.456       35.706        0.041      333.412        2.707      864.582
01/12/2014  04:22:00     -164.781      172.843      -42.435       72.030       84.115       45.268     5188.260     7075.357     2049.212        3.657        0.716      238.804       39.173        0.027      333.545        2.926      864.588
01/12/2014  04:23:00     -167.729      106.561      -28.854       58.631       67.394       39.889     3437.592     4541.985     1591.143        2.494        0.479      198.717       40.587        0.042      333.531        2.905      864.612
01/12/2014  04:24:00     -169.588      126.478      -35.962       67.929       72.542       42.213     4614.372     5262.366     1781.907        2.885        0.583      211.558       28.573        0.018      333.306        2.531      864.613
01/12/2014  04:25:00     -158.483       15.219      -24.824       83.243       88.828       39.670     6929.402     7890.410     1573.670        2.118        0.820      159.212       38.376        0.058      333.357        2.617      864.586
01/12/2014  04:26:00     -151.089       62.858      -23.526       70.395       49.534       34.604     4955.456     2453.602     1197.457        1.797        0.430      163.643       32.463        0.039      333.391        2.673      864.583
01/12/2014  04:27:00     -174.678      100.771      -23.260       84.642       48.497       39.770     7164.350     2352.001     1581.685        2.615        0.555      201.661       25.521        0.016      333.293        2.510      864.571
01/12/2014  04:28:00     -103.655      131.023      -25.627       45.641       61.318       29.531     2083.129     3759.954      872.055        1.764        0.336      167.067       24.433        0.021      333.242        2.428      864.545
01/12/2014  04:29:00     -129.841       95.690      -25.108       61.110       79.826       34.033     3734.433     6372.143     1158.229        1.895        0.563      161.292       40.374        0.063      333.267        2.468      864.547
01/12/2014  04:30:00     -164.144       44.112      -23.766       55.282       58.443       35.513     3056.120     3415.559     1261.155        1.859        0.387      169.968       29.104        0.029      333.260        2.457      864.536
01/12/2014  04:31:00     -144.631      -66.186      -13.262       85.542       48.778       35.810     7317.355     2379.289     1282.328        1.822        0.549      159.056       46.141        0.084      333.088        2.174      864.532
01/12/2014  04:32:00     -158.114      -26.115      -16.757       59.466       40.591       26.610     3536.221     1647.604      708.115        1.593        0.295      160.257       24.565        0.023      333.093        2.181      864.531
01/12/2014  04:33:00     -208.047      -32.577       -9.312       63.109       51.260       30.451     3982.690     2627.608      927.280        2.598        0.377      210.582       27.257        0.017      333.068        2.138      864.546
01/12/2014  04:34:00     -216.487       -5.404      -16.293       65.044       76.464       38.292     4230.693     5846.787     1466.260        2.935        0.577      216.555       22.953        0.011      332.975        1.985      864.599
01/12/2014  04:35:00     -156.319      -23.391      -15.565       70.269       77.792       44.063     4937.763     6051.636     1941.580        1.908        0.647      158.059       32.907        0.043      332.934        1.917      864.642
01/12/2014  04:36:00     -112.734        8.269      -12.914       55.475       65.575       29.428     3077.493     4300.086      865.987        1.059        0.412      113.037       32.433        0.082      332.910        1.881      864.653
01/12/2014  04:37:00     -106.370       49.769      -26.339       38.923       80.923       28.339     1515.024     6548.529      803.080        1.167        0.443      117.437       27.433        0.055      333.142        2.262      864.651
01/12/2014  04:38:00     -204.652      -85.003      -19.227       52.310       54.539       29.105     2736.337     2974.476      847.110        2.802        0.328      221.603       21.113        0.009      332.931        1.914      864.678
01/12/2014  04:39:00     -170.345      -59.683        0.740       93.374       80.085       49.799     8718.686     6413.674     2479.982        2.509        0.881      180.498       46.658        0.067      332.834        1.754      864.708
01/12/2014  04:40:00     -127.177       36.756      -16.425       50.191       63.009       30.843     2519.174     3970.106      951.283        1.262        0.372      132.382       23.736        0.032      332.834        1.755      864.760
01/12/2014  04:41:00     -188.423       98.965      -33.680       56.383       41.570       33.807     3179.073     1728.035     1142.893        2.624        0.303      212.831       27.876        0.017      333.183        2.328      864.807
01/12/2014  04:42:00     -122.953      -17.995        8.583       82.066       48.866       37.069     6734.833     2387.856     1374.115        1.300        0.525      124.263       37.651        0.092      332.927        1.907      864.875
01/12/2014  04:43:00      -75.614       10.229       -9.560       27.627       43.369       24.241      763.224     1880.853      587.634        0.457        0.162       76.303       10.980        0.021      332.844        1.772      864.915
01/12/2014  04:44:00      -99.660       67.017       -9.194       58.066       76.589       33.746     3371.667     5865.887     1138.784        1.244        0.519      120.097       23.728        0.039      332.846        1.773      864.962
01/12/2014  04:45:00     -164.878       49.240      -26.977       50.853       55.957       27.632     2586.077     3131.145      763.547        1.841        0.324      172.074       28.782        0.028      332.953        1.950      865.011
01/12/2014  04:46:00     -166.036       78.943      -25.307       44.437       46.028       37.180     1974.688     2118.613     1382.332        1.996        0.274      183.848       28.888        0.025      332.877        1.825      865.052
01/12/2014  04:47:00     -134.280      124.436      -27.484       60.339       50.802       42.897     3640.849     2580.815     1840.184        2.117        0.403      183.073       35.244        0.037      333.042        2.097      865.082
01/12/2014  04:48:00     -108.225      138.112      -25.272       54.446       52.979       28.827     2964.333     2806.809      831.014        1.901        0.330      175.464       23.976        0.019      333.163        2.298      865.092
01/12/2014  04:49:00     -133.616       28.679      -14.924       35.821       39.892       25.115     1283.148     1591.400      630.788        1.120        0.175      136.659       20.087        0.022      333.039        2.094      865.132
01/12/2014  04:50:00      -99.567       -3.572      -13.185       39.595       30.486       25.221     1567.786      929.379      636.099        0.662        0.157       99.631       23.094        0.054      332.923        1.902      865.188
01/12/2014  04:51:00      -88.002       41.927      -11.859       31.479       39.518       19.308      990.897     1561.676      372.812        0.628        0.146       97.479       16.624        0.029      332.929        1.912      865.232
01/12/2014  04:52:00     -107.227      150.141      -26.094       53.376       71.148       30.673     2848.956     5061.995      940.810        2.178        0.443      184.499       34.722        0.035      333.166        2.300      865.252
01/12/2014  04:53:00      -87.987      193.791      -25.400       38.154       42.615       26.724     1455.756     1816.028      714.165        2.496        0.199      212.830       20.138        0.009      333.233        2.410      865.275
01/12/2014  04:54:00      -54.223      194.003      -25.847       48.111       41.215       21.578     2314.679     1698.712      465.614        2.286        0.224      201.438       15.576        0.006      333.120        2.225      865.319
01/12/2014  04:55:00      -32.024      181.920      -24.858       29.694       38.615       19.357      881.741     1491.150      374.690        1.874        0.137      184.717       19.313        0.011      333.154        2.283      865.352
01/12/2014  04:56:00      -31.139      132.876      -19.531       38.871       41.161       20.322     1510.931     1694.262      412.989        1.131        0.181      136.476       19.117        0.020      333.131        2.245      865.384
01/12/2014  04:57:00      -50.909       75.553       -9.422       49.971       48.369       25.511     2497.084     2339.521      650.794        0.694        0.274       91.105       31.228        0.117      333.074        2.150      865.403
01/12/2014  04:58:00      -96.847      117.058      -28.718       29.657       40.664       27.101      879.555     1653.523      734.468        1.359        0.163      151.927       22.163        0.021      333.040        2.095      865.404
01/12/2014  04:59:00      -52.498      117.083      -10.324       34.949       33.057       25.591     1221.432     1092.778      654.904        0.977        0.148      128.313       22.097        0.030      333.113        2.215      865.419
01/12/2014  05:00:00      -85.021      143.047      -20.634       49.386       60.064       29.316     2438.970     3607.705      859.407        1.751        0.345      166.407       33.939        0.042      333.046        2.104      865.453
01/12/2014  05:01:00      -91.992       84.733      -20.223       37.597       64.416       23.482     1413.547     4149.434      551.407        1.108        0.306      125.069       22.370        0.032      332.947        1.941      865.475
01/12/2014  05:02:00     -102.609       88.601      -23.574       48.019       43.791       26.154     2305.809     1917.667      684.023        1.192        0.245      135.568       20.344        0.023      332.987        2.008      865.483
01/12/2014  05:03:00     -172.932      163.031      -41.922       53.837       74.847       40.060     2898.428     5602.078     1604.806        3.417        0.505      237.665       42.215        0.032      333.072        2.145      865.506
01/12/2014  05:04:00     -182.980      170.391      -49.774       59.051       69.629       37.747     3487.066     4848.141     1424.814        3.737        0.488      250.029       40.308        0.026      333.185        2.331      865.539
01/12/2014  05:05:00     -125.347      162.376      -26.586       51.326       59.880       36.249     2634.377     3585.562     1313.982        2.516        0.377      205.129       34.586        0.028      333.216        2.383      865.561
01/12/2014  05:06:00      -85.109      222.035      -26.087       52.459       89.811       34.124     2751.901     8065.999     1164.467        3.460        0.599      237.788       33.454        0.020      333.317        2.549      865.572
01/12/2014  05:07:00      -97.822      215.644      -30.889       60.992       65.195       32.045     3719.985     4250.379     1026.865        3.301        0.450      236.794       27.572        0.014      333.319        2.553      865.584
01/12/2014  05:08:00     -126.900      191.582      -29.806       65.534       85.177       41.170     4294.732     7255.151     1694.935        3.347        0.662      229.798       37.094        0.026      333.246        2.432      865.593
01/12/2014  05:09:00      -91.854      176.567      -22.232       49.631       78.513       38.255     2463.226     6164.237     1463.480        2.510        0.505      199.031       38.278        0.037      333.112        2.213      865.615
01/12/2014  05:10:00     -100.572      173.445      -28.022       52.882       57.202       37.119     2796.523     3272.053     1377.810        2.421        0.372      200.494       23.284        0.013      333.170        2.308      865.646
01/12/2014  05:11:00      -63.835      207.783      -18.427       50.037       87.169       42.781     2503.735     7598.371     1830.224        2.976        0.597      217.368       45.122        0.043      333.183        2.329      865.678
01/12/2014  05:12:00      -21.827      292.369      -44.054       56.938       76.485       32.004     3241.905     5850.028     1024.284        4.900        0.506      293.183       30.010        0.010      332.930        1.910      865.691
01/12/2014  05:13:00      -25.319      182.704      -22.183       58.023       68.326       36.483     3366.670     4668.384     1331.028        2.194        0.468      184.449       40.349        0.048      332.871        1.813      865.697
01/12/2014  05:14:00      -66.874      290.142      -33.052       60.124       81.625       38.877     3614.839     6662.718     1511.423        5.077        0.589      297.749       40.299        0.018      332.826        1.739      865.705
01/12/2014  05:15:00      -67.445      336.148      -46.430       59.816       70.595       29.029     3578.012     4983.653      842.665        6.455        0.470      342.847       25.704        0.006      332.854        1.784      865.745
01/12/2014  05:16:00      -27.219      363.173      -40.274       47.692       51.648       27.601     2274.497     2667.560      761.803        6.998        0.285      364.192       20.007        0.003      332.795        1.687      865.802
01/12/2014  05:17:00      -60.258      208.102      -22.824       43.507       91.670       32.308     1892.901     8403.343     1043.827        2.940        0.567      216.651       42.206        0.038      332.812        1.716      865.883
01/12/2014  05:18:00      -56.303      164.334      -17.566       35.791       42.055       21.494     1280.993     1768.630      461.976        1.700        0.176      173.712       12.783        0.005      332.934        1.919      865.936
01/12/2014  05:19:00      -83.387       79.341      -14.701       38.750       39.395       25.239     1501.549     1551.961      637.030        0.858        0.185      115.102       16.129        0.020      332.829        1.746      865.994
01/12/2014  05:20:00     -101.468      135.152      -30.267       59.907       66.743       39.606     3588.818     4454.595     1568.631        1.954        0.481      169.002       35.375        0.044      332.800        1.698      866.029
01/12/2014  05:21:00      -58.535      191.296      -24.958       41.957       62.197       40.734     1760.423     3868.489     1659.284        2.396        0.364      200.051       27.947        0.020      332.778        1.660      866.055
01/12/2014  05:22:00      -48.949      135.158      -15.156       56.182       74.756       36.362     3156.395     5588.426     1322.208        1.548        0.503      143.749       31.535        0.048      332.767        1.643      866.071
01/12/2014  05:23:00      -59.847       58.231      -15.119       48.580       45.377       20.757     2359.985     2059.040      430.841        0.602        0.242       83.501       16.812        0.041      332.817        1.727      866.074
01/12/2014  05:24:00      -38.805      125.092      -11.781       46.680       47.319       28.909     2179.067     2239.043      835.733        1.127        0.263      130.973       25.598        0.038      332.798        1.696      866.075
01/12/2014  05:25:00      -53.232       98.306      -16.335       50.746       51.888       30.595     2575.173     2692.363      936.044        0.948        0.310      111.794       25.658        0.053      332.778        1.662      866.100
01/12/2014  05:26:00      -89.225      215.095      -12.198       69.572      112.725       55.006     4840.287    12706.948     3025.700        3.747        1.029      232.867       57.847        0.062      332.903        1.866      866.138
01/12/2014  05:27:00     -121.400      132.572      -33.679       48.427       60.083       32.173     2345.147     3609.994     1035.129        2.022        0.350      179.759       30.136        0.028      332.870        1.814      866.163
01/12/2014  05:28:00     -107.506      140.268      -26.416       72.890       51.455       31.432     5312.914     2647.625      987.989        2.044        0.447      176.727       24.225        0.019      332.888        1.843      866.203
01/12/2014  05:29:00     -111.436      210.629      -34.042       65.483       71.204       45.828     4287.998     5069.949     2100.194        3.470        0.573      238.291       39.777        0.028      332.947        1.938      866.257
01/12/2014  05:30:00      -54.158      225.628      -23.285       55.577       73.222       41.468     3088.802     5361.509     1719.587        3.227        0.508      232.037       34.668        0.022      333.014        2.049      866.303
01/12/2014  05:31:00      -35.140      324.763      -40.969       55.229      109.262       32.774     3050.290    11938.226     1074.143        6.222        0.803      326.659       30.282        0.009      332.951        1.944      866.333
01/12/2014  05:32:00      -72.468      348.802      -45.413       77.306      101.063       38.977     5976.295    10213.635     1519.234        7.334        0.885      356.251       30.181        0.007      332.946        1.935      866.350
01/12/2014  05:33:00      -61.307      316.544      -34.208       55.790      133.811       41.436     3112.539    17905.283     1716.963        6.393        1.137      322.427       42.437        0.017      332.912        1.880      866.384
01/12/2014  05:34:00      -72.309      203.728      -33.354       53.903      105.787       44.251     2905.506    11190.860     1958.193        3.195        0.803      216.180       46.828        0.047      332.953        1.949      866.437
01/12/2014  05:35:00      -83.428      252.519      -22.304       73.599       93.178       46.880     5416.875     8682.073     2197.703        4.376        0.815      265.943       38.387        0.021      332.900        1.861      866.481
01/12/2014  05:36:00      -83.106      171.439      -25.223       61.277       78.738       33.837     3754.923     6199.669     1144.917        2.401        0.555      190.520       27.818        0.021      332.922        1.898      866.499
01/12/2014  05:37:00     -120.762      162.012      -36.043       58.088       72.883       39.177     3374.174     5311.925     1534.860        2.617        0.511      202.068       29.074        0.021      332.937        1.921      866.532
01/12/2014  05:38:00     -114.620      128.138      -29.022       54.798       65.043       36.017     3002.836     4230.556     1297.241        1.946        0.427      171.921       25.804        0.023      332.883        1.833      866.555
01/12/2014  05:39:00     -136.934      187.562      -33.778       53.438       69.326       38.569     2855.594     4806.109     1487.575        3.211        0.457      232.229       30.701        0.017      332.876        1.820      866.563
01/12/2014  05:40:00     -113.728      124.796      -24.875       60.113       70.955       32.104     3613.612     5034.603     1030.647        1.940        0.484      168.844       27.379        0.026      332.940        1.927      866.582
01/12/2014  05:41:00     -150.365      128.885      -26.703       54.276       76.406       42.693     2945.876     5837.884     1822.660        2.527        0.530      198.043       41.039        0.043      332.925        1.901      866.594
01/12/2014  05:42:00     -153.359       91.269      -18.212       57.232       58.712       41.586     3275.521     3447.118     1729.421        2.031        0.423      178.463       36.999        0.043      332.776        1.658      866.574
01/12/2014  05:43:00     -171.355       97.709      -35.624       63.277       73.136       33.687     4003.953     5348.835     1134.835        2.533        0.524      197.255       14.898        0.006      332.734        1.586      866.583
01/12/2014  05:44:00     -154.588       24.549      -25.584       51.967       49.236       26.846     2700.523     2424.212      720.723        1.550        0.292      156.525       18.559        0.014      332.602        1.370      866.600
01/12/2014  05:45:00     -123.297       11.487      -11.280       37.400       40.526       21.780     1398.739     1642.331      474.349        0.949        0.176      123.831       11.268        0.008      332.562        1.305      866.642
01/12/2014  05:46:00     -119.434      -42.522      -17.336       57.136       58.859       42.509     3264.519     3464.400     1806.985        1.245        0.427      126.777       19.702        0.024      332.493        1.191      866.656
01/12/2014  05:47:00      -88.056        5.051      -12.096       66.509       49.211       25.977     4423.482     2421.753      674.780        0.772        0.376       88.200       31.474        0.127      332.403        1.043      866.672
01/12/2014  05:48:00      -90.611       -0.569      -24.865       37.478       72.576       31.531     1404.613     5267.247      994.188        0.825        0.383       90.613       29.131        0.103      332.399        1.037      866.678
01/12/2014  05:49:00     -126.385       80.391      -24.519       67.621       48.238       40.628     4572.625     2326.945     1650.663        1.579        0.428      149.786       35.733        0.057      332.379        1.002      866.695
01/12/2014  05:50:00     -152.912      102.676      -30.600       63.104       78.408       36.711     3982.111     6147.809     1347.720        2.317        0.574      184.186       43.905        0.057      332.397        1.030      866.715
01/12/2014  05:51:00     -130.023       84.198      -12.202       65.689       42.506       40.493     4315.018     1806.774     1639.673        1.595        0.388      154.904       32.747        0.045      332.393        1.027      866.730
01/12/2014  05:52:00     -181.159       84.686      -30.895       48.212       46.545       31.332     2324.412     2166.393      981.680        2.321        0.274      199.975       31.373        0.025      332.382        1.008      866.739
01/12/2014  05:53:00     -146.142      -21.354      -16.013       42.101       66.014       25.447     1772.484     4357.792      647.559        1.442        0.339      147.694       17.363        0.014      332.368        0.985      866.740
01/12/2014  05:54:00     -197.507      -73.350      -29.073       72.549       54.928       42.048     5263.294     3017.136     1768.051        2.764        0.502      210.688       32.594        0.024      332.332        0.922      866.729
01/12/2014  05:55:00     -154.371      -45.376      -15.151       78.823       45.564       44.053     6213.111     2076.077     1940.659        1.817        0.511      160.902       37.824        0.055      332.266        0.817      866.747
01/12/2014  05:56:00     -200.983       35.405      -32.030       89.556       89.935       51.377     8020.251     8088.354     2639.617        3.071        0.937      204.078       45.178        0.049      332.323        0.909      866.760
01/12/2014  05:57:00     -143.400       42.478      -35.619       49.378       57.614       31.127     2438.213     3319.388      968.914        1.518        0.336      149.559       21.385        0.020      332.317        0.900      866.750
01/12/2014  05:58:00     -155.058       72.135      -29.451       57.887       39.740       29.727     3350.874     1579.306      883.671        1.796        0.291      171.016       15.936        0.009      332.324        0.910      866.740
01/12/2014  05:59:00     -137.711      118.127      -36.300       52.717       62.764       43.073     2779.047     3939.258     1855.284        2.140        0.429      181.434       30.679        0.029      332.331        0.923      866.727
01/12/2014  06:00:00     -163.975      131.613      -32.692       59.470       74.948       37.580     3536.665     5617.205     1412.221        2.792        0.528      210.261       38.895        0.034      332.361        0.972      866.711
01/12/2014  06:01:00     -185.367      114.215      -37.388       77.146       52.382       37.930     5951.508     2743.864     1438.668        2.947        0.507      217.729       42.565        0.038      332.376        0.996      866.699
01/12/2014  06:02:00     -189.255       70.258      -34.685       68.899       81.170       43.186     4747.097     6588.595     1865.027        2.758        0.660      201.875       49.101        0.059      332.401        1.037      866.696
01/12/2014  06:03:00     -173.511       54.666      -14.568       63.914       59.339       43.599     4085.042     3521.128     1900.868        2.141        0.475      181.919       19.717        0.012      332.411        1.055      866.706
01/12/2014  06:04:00     -100.131       43.709      -11.094       67.349       95.274       51.587     4535.944     9077.068     2661.196        1.416        0.814      109.255       29.690        0.074      332.439        1.102      866.723
01/12/2014  06:05:00     -128.012       24.698      -22.653       50.733       56.079       36.878     2573.881     3144.819     1360.014        1.229        0.354      130.373       27.873        0.046      332.598        1.364      866.731
01/12/2014  06:06:00     -137.104       16.376       -6.508       67.779       63.974       39.379     4593.974     4092.641     1550.680        1.467        0.512      138.078       31.934        0.053      332.551        1.286      866.741
01/12/2014  06:07:00     -196.044       68.610      -31.974      101.582       71.757       45.458    10318.963     5149.070     2066.404        3.085        0.877      207.704       30.471        0.022      332.562        1.302      866.761
01/12/2014  06:08:00     -110.710       94.683      -12.968       73.624      115.406       54.004     5420.487    13318.596     2916.453        2.152        1.083      145.676       50.341        0.119      332.469        1.148      866.758
01/12/2014  06:09:00     -114.275       68.594      -31.918       49.271       96.678       33.771     2427.658     9346.566     1140.502        1.585        0.646      133.281       21.054        0.025      332.537        1.263      866.746
01/12/2014  06:10:00     -103.692       46.038       -6.769       58.518      104.872       51.988     3424.318    10998.078     2702.748        1.502        0.856      113.453       50.422        0.198      332.562        1.305      866.760
01/12/2014  06:11:00     -110.061       16.798      -20.171       71.163       72.703       48.993     5064.207     5285.731     2400.314        1.277        0.638      111.336       37.891        0.116      332.561        1.302      866.772
01/12/2014  06:12:00     -124.508      -38.897      -10.901       45.922       63.525       29.153     2108.875     4035.454      849.879        1.206        0.350      130.443        9.067        0.005      332.582        1.339      866.771
01/12/2014  06:13:00      -24.977      -64.781       14.997       75.802       41.780       38.017     5745.880     1745.572     1445.287        0.699        0.447       69.429       31.182        0.202      332.502        1.206      866.765
01/12/2014  06:14:00      -89.936      -76.621        4.090       66.687       49.637       35.544     4447.199     2463.783     1263.397        1.107        0.409      118.149       33.875        0.082      332.346        0.949      866.769
01/12/2014  06:15:00     -111.351      -87.231       -6.374       54.065       61.314       27.641     2923.067     3759.444      764.035        1.375        0.372      141.451       31.951        0.051      332.308        0.887      866.781
01/12/2014  06:16:00      -68.243      -49.045       11.536       62.958       28.509       28.548     3963.771      812.777      815.012        0.639        0.280       84.038       14.174        0.028      332.322        0.909      866.790
01/12/2014  06:17:00      -55.692      -60.708        9.254       56.410       38.006       29.917     3182.079     1444.459      895.046        0.620        0.276       82.383       33.751        0.168      332.397        1.033      866.827
01/12/2014  06:18:00      -91.503      -96.007        2.099       56.740       44.171       36.269     3219.404     1951.060     1315.429        1.204        0.324      132.628       33.201        0.063      332.489        1.182      866.848
01/12/2014  06:19:00      -55.840      -64.249       -8.710       40.641       21.503       20.494     1651.724      462.378      420.021        0.493        0.127       85.124       11.675        0.019      332.562        1.306      866.871
01/12/2014  06:20:00       -5.246       -6.251       25.308       19.793       43.530       27.841      391.779     1894.902      775.127        0.188        0.153        8.161       32.408       15.770      332.632        1.420      866.899
01/12/2014  06:21:00      -21.055      -25.435        6.308       30.611       17.947       16.686      937.050      322.085      278.408        0.133        0.077       33.019       16.501        0.250      332.623        1.406      866.949
01/12/2014  06:22:00       19.497      -12.120       25.242       38.883       40.636       29.544     1511.882     1651.304      872.874        0.260        0.202       22.957       23.044        1.008      332.568        1.315      867.004
01/12/2014  06:23:00       -8.004       25.210       48.210       13.358       29.271       23.829      178.444      856.799      567.813        0.231        0.080       26.450       22.913        0.750      332.547        1.280      867.033
01/12/2014  06:24:00      -11.634      -15.353        2.023       10.885       10.374       11.257      118.483      107.628      126.731        0.036        0.018       19.264        6.795        0.124      332.648        1.448      867.064
01/12/2014  06:25:00      -19.270      -12.198        4.354       32.024       13.610       10.104     1025.509      185.242      102.091        0.093        0.066       22.806        9.429        0.171      332.685        1.509      867.084
01/12/2014  06:26:00       18.675        4.872       12.556       36.889       29.616       19.908     1360.767      877.136      396.340        0.158        0.132       19.300       21.940        1.292      332.621        1.403      867.077
01/12/2014  06:27:00      -37.181      -17.458       25.651       41.638       34.848       26.031     1733.723     1214.361      677.614        0.298        0.181       41.076       28.085        0.467      332.629        1.416      867.065
01/12/2014  06:28:00       -8.284        4.224       12.809       13.440       17.963       15.069      180.642      322.652      227.061        0.049        0.037        9.299       11.322        1.482      332.536        1.261      867.065
01/12/2014  06:29:00      -31.319      -17.944        7.185       35.959       30.826       13.726     1293.017      950.272      188.404        0.189        0.122       36.095        8.869        0.060      332.590        1.351      867.062
01/12/2014  06:30:00     -103.307      -96.136       -9.814       48.481       26.179       20.450     2350.434      685.338      418.196        1.173        0.173      141.119       18.518        0.017      332.672        1.486      867.070
01/12/2014  06:31:00      -79.293      -22.729       -6.779       42.519       32.806       18.374     1807.834     1076.236      337.599        0.504        0.161       82.486       15.899        0.037      332.600        1.369      867.079
01/12/2014  06:32:00     -102.595       16.703      -10.957       28.213       22.962       20.273      795.984      527.231      411.012        0.633        0.087      103.946       12.689        0.015      332.799        1.696      867.082
01/12/2014  06:33:00     -128.287       23.244       -9.216       27.145       20.723       15.457      736.838      429.423      238.918        0.924        0.070      130.376        8.027        0.004      332.607        1.379      867.085
01/12/2014  06:34:00     -134.659      -22.291      -13.593       29.051       21.547       17.752      843.932      464.275      315.136        1.022        0.081      136.492       16.672        0.015      332.532        1.257      867.096
01/12/2014  06:35:00     -123.894      -60.218       -3.143       29.996       24.510       16.481      899.768      600.760      271.620        1.038        0.089      137.753       15.926        0.013      332.502        1.205      867.123
01/12/2014  06:36:00     -108.985      -73.138        3.703       31.964       25.277       19.266     1021.670      638.942      371.190        0.964        0.102      131.251       15.491        0.014      332.482        1.173      867.134
01/12/2014  06:37:00     -153.217      -53.012       -9.122       31.112       30.091       17.103      967.930      905.448      292.511        1.427        0.108      162.129       11.899        0.005      332.403        1.044      867.130
01/12/2014  06:38:00     -133.401      -64.479        3.614       55.824       52.083       25.717     3116.363     2712.600      661.342        1.423        0.325      148.167       28.548        0.037      332.353        0.959      867.114
01/12/2014  06:39:00     -190.445      -89.635       -6.495       58.344       39.058       24.425     3403.984     1525.555      596.584        2.494        0.276      210.485       23.091        0.012      332.445        1.109      867.107
01/12/2014  06:40:00     -162.338      -56.770       -7.653       77.398       54.895       27.028     5990.438     3013.409      730.526        1.968        0.487      171.978       29.281        0.029      332.382        1.005      867.091
01/12/2014  06:41:00     -118.970      -55.440       10.467       82.570       60.311       35.386     6817.777     3637.386     1252.192        1.452        0.585      131.253       42.777        0.106      332.347        0.949      867.082
01/12/2014  06:42:00     -203.828      -64.673        0.593       70.256       48.825       27.798     4935.902     2383.872      772.744        2.691        0.405      213.842       22.762        0.011      332.362        0.973      867.078
01/12/2014  06:43:00     -217.335      -76.311       -9.117       63.927       43.891       29.151     4086.633     1926.408      849.793        3.000        0.343      230.343       29.641        0.017      332.466        1.144      867.062
01/12/2014  06:44:00     -118.707      -28.617        0.162       59.925       44.919       30.910     3591.043     2017.693      955.428        1.074        0.328      122.107       34.661        0.081      332.360        0.972      867.058
01/12/2014  06:45:00      -89.201      -35.030        2.715       55.723       63.565       34.316     3105.049     4040.463     1177.608        0.876        0.416       95.833       31.506        0.108      332.356        0.966      867.058
01/12/2014  06:46:00      -72.109      -31.917        8.923       49.324       37.192       26.003     2432.819     1383.258      676.178        0.539        0.225       78.857       22.347        0.080      332.398        1.034      867.053
01/12/2014  06:47:00      -94.391        4.910       -0.957       36.390       32.735       17.961     1324.236     1071.568      322.596        0.583        0.136       94.519       18.658        0.039      332.270        0.824      867.048
01/12/2014  06:48:00     -143.814        6.293      -10.779       37.657       27.683       15.051     1418.035      766.344      226.518        1.162        0.121      143.952       16.485        0.013      332.161        0.644      867.036
01/12/2014  06:49:00     -163.423        5.678      -13.496       34.885       27.493       17.761     1216.955      755.869      315.443        1.460        0.114      163.521       16.432        0.010      332.163        0.647      866.993
01/12/2014  06:50:00     -122.566      -37.965       -0.226       41.531       33.517       25.937     1724.842     1123.382      672.719        0.999        0.176      128.312       24.373        0.036      332.049        0.458      866.939
01/12/2014  06:51:00     -138.754      -44.585        1.070       36.733       31.255       20.000     1349.312      976.855      399.999        1.198        0.136      145.741       20.268        0.019      332.153        0.630      866.875
01/12/2014  06:52:00     -126.185      -50.727       -1.441       41.319       34.506       22.048     1707.230     1190.693      486.132        1.094        0.169      136.000       23.598        0.030      332.063        0.483      866.832
01/12/2014  06:53:00     -139.668      -27.582      -10.664       50.483       37.696       24.431     2548.578     1420.982      596.874        1.247        0.228      142.366       27.513        0.037      331.907        0.224      866.798
01/12/2014  06:54:00     -197.960      -68.911      -13.912       39.873       44.203       26.546     1589.873     1953.908      704.666        2.419        0.212      209.611       17.111        0.007      331.939        0.276      866.767
01/12/2014  06:55:00     -172.791      -63.905       -4.816       57.933       31.833       25.387     3356.179     1013.361      644.479        1.949        0.251      184.230       23.502        0.016      332.030        0.426      866.736
01/12/2014  06:56:00      -76.635      -82.319        5.478       59.265       44.174       29.398     3512.286     1951.353      864.269        0.950        0.316      112.470       32.113        0.082      332.106        0.553      866.710
01/12/2014  06:57:00      -69.488      -46.753        3.642       40.228       32.838       18.611     1618.316     1078.324      346.376        0.503        0.152       83.753       22.864        0.075      332.120        0.576      866.694
01/12/2014  06:58:00      -31.775       -1.685        4.999       36.113       15.068       17.733     1304.118      227.056      314.477        0.144        0.092       31.819       22.091        0.482      332.092        0.528      866.700
01/12/2014  06:59:00       12.689       47.437        5.632       38.421       18.421       21.733     1476.182      339.352      472.343        0.237        0.114       49.104       19.393        0.156      332.159        0.640      866.717
01/12/2014  07:00:00       60.217       26.611        2.602       36.494       34.069       25.280     1331.847     1160.677      639.094        0.374        0.157       65.835       11.336        0.030      332.127        0.587      866.752
01/12/2014  07:01:00      170.541      101.406       40.046       51.327       41.692       52.062     2634.446     1738.224     2710.409        2.403        0.354      198.412       29.211        0.022      331.946        0.286      866.790
01/12/2014  07:02:00      184.440      109.030       44.255       67.110       45.496       53.087     4503.694     2069.846     2818.246        2.863        0.470      214.256       49.693        0.054      331.867        0.157      866.830
01/12/2014  07:03:00      113.262      105.344       68.827       95.584       48.962       55.632     9136.348     2397.302     3094.933        2.164        0.731      154.679       52.710        0.116      331.844        0.120      866.856
01/12/2014  07:04:00      205.850      117.584       20.940       79.519       52.363       40.848     6323.302     2741.844     1668.578        3.368        0.537      237.065       41.742        0.031      331.518       -0.419      866.891
01/12/2014  07:05:00      203.869      119.333       49.654       70.533       52.670       52.370     4974.841     2774.099     2742.606        3.438        0.525      236.227       40.014        0.029      331.491       -0.465      866.908
01/12/2014  07:06:00      180.523      102.194       46.679       62.021       49.109       51.467     3846.580     2411.696     2648.807        2.706        0.445      207.442       38.103        0.034      331.546       -0.372      866.927
01/12/2014  07:07:00      140.137       59.001       64.832       91.143       63.275       56.036     8306.977     4003.784     3140.059        2.138        0.773      152.051       45.125        0.088      331.646       -0.206      866.943
01/12/2014  07:08:00      124.823       92.464       61.607       46.710       45.279       38.062     2181.870     2050.215     1448.698        1.680        0.284      155.340       23.275        0.022      331.644       -0.209      866.982
01/12/2014  07:09:00      144.096       53.952       36.402       51.563       47.576       39.041     2658.776     2263.516     1524.200        1.572        0.322      153.865       27.801        0.033      331.787        0.026      867.003
01/12/2014  07:10:00       83.802       75.545       69.015       36.679       36.278       28.295     1345.378     1316.080      800.623        1.048        0.173      112.826       14.922        0.017      332.040        0.445      867.004
01/12/2014  07:11:00       96.642       63.014       81.939       35.335       37.413       30.465     1248.593     1399.738      928.108        1.180        0.179      115.371       17.348        0.023      332.055        0.467      867.000
01/12/2014  07:12:00      105.450       29.073       59.617       46.002       41.101       39.927     2116.170     1689.255     1594.188        1.046        0.270      109.384       31.034        0.080      332.071        0.496      867.032
01/12/2014  07:13:00       89.298       72.092       43.515       50.753       45.319       37.403     2575.825     2053.812     1398.980        1.055        0.301      114.767       25.534        0.049      331.965        0.320      867.079
01/12/2014  07:14:00      200.530      124.820       48.129       64.919       48.124       49.802     4214.475     2315.943     2480.192        3.356        0.451      236.204       32.035        0.018      331.850        0.127      867.122
01/12/2014  07:15:00      205.251       66.433       29.478      115.001       73.075       58.075    13225.330     5339.930     3372.763        3.467        1.097      215.735       62.786        0.085      331.749       -0.037      867.127
01/12/2014  07:16:00      111.509       37.317       64.713       82.359       63.505       53.697     6782.970     4032.902     2883.370        1.585        0.685      117.587       44.422        0.143      331.661       -0.180      867.123
01/12/2014  07:17:00      147.185       29.659       62.736       80.370       68.483       57.025     6459.274     4689.924     3251.876        2.044        0.720      150.143       65.824        0.192      331.668       -0.170      867.125
01/12/2014  07:18:00       92.182      113.921       94.484       77.233       62.513       50.772     5964.997     3907.912     2577.812        2.142        0.623      146.545       38.596        0.069      331.678       -0.153      867.110
01/12/2014  07:19:00      100.937       66.719       82.858       68.106       59.357       46.438     4638.399     3523.271     2156.442        1.591        0.516      120.994       42.979        0.126      331.674       -0.158      867.103
01/12/2014  07:20:00       92.370       58.463       78.026       73.168       68.674       48.089     5353.505     4716.180     2312.562        1.521        0.619      109.317       50.759        0.216      331.680       -0.148      867.092
01/12/2014  07:21:00      103.882       20.450       39.438       69.398       47.079       37.053     4816.047     2216.419     1372.930        1.058        0.420      105.876       32.490        0.094      331.711       -0.097      867.079
01/12/2014  07:22:00       50.267        3.456       33.286       49.249       51.954       37.347     2425.445     2699.239     1394.831        0.508        0.326       50.386       28.415        0.318      331.749       -0.035      867.048
01/12/2014  07:23:00       11.141      -16.341       30.367       29.275       45.325       27.043      857.035     2054.365      731.341        0.248        0.182       19.778       29.989        2.299      331.789        0.030      867.030
01/12/2014  07:24:00       45.450      -65.016        8.821       27.973       43.116       25.077      782.474     1858.982      628.833        0.482        0.164       79.328       22.168        0.078      331.865        0.157      867.031
01/12/2014  07:25:00       30.754       41.809       55.133       26.996       26.036       14.243      728.778      677.885      202.852        0.367        0.080       51.902       13.241        0.065      331.724       -0.075      867.059
01/12/2014  07:26:00       72.199       70.984       39.380       28.888       21.308       33.286      834.524      454.016     1107.975        0.710        0.120      101.249       20.406        0.041      331.723       -0.076      867.106
01/12/2014  07:27:00      102.755       64.004        7.630       31.893       28.457       24.600     1017.164      809.773      605.174        0.857        0.122      121.058       13.339        0.012      331.649       -0.199      867.157
01/12/2014  07:28:00       76.286       78.047        0.655       39.002       35.549       29.551     1521.147     1263.756      873.252        0.778        0.183      109.137       19.859        0.033      331.555       -0.355      867.232
01/12/2014  07:29:00       72.240       89.748       -9.459       51.477       37.679       39.680     2649.848     1419.683     1574.517        0.950        0.282      115.210       26.400        0.053      331.494       -0.455      867.293
01/12/2014  07:30:00       90.303       69.866        6.871       44.448       40.139       38.222     1975.608     1611.154     1460.923        0.906        0.252      114.175       29.593        0.067      331.596       -0.286      867.332
01/12/2014  07:31:00       26.012       70.182       -5.108       29.549       48.930       32.064      873.147     2394.103     1028.077        0.496        0.215       74.848       32.081        0.184      331.671       -0.163      867.356
01/12/2014  07:32:00        6.865       99.753       -9.090       25.903       24.074       20.506      670.956      579.538      420.484        0.588        0.084       99.988       10.296        0.011      331.767       -0.005      867.376
01/12/2014  07:33:00      -10.660       10.297       -7.070       15.465       23.408       10.437      239.154      547.947      108.933        0.058        0.045       14.820       13.663        0.850      331.748       -0.037      867.386
01/12/2014  07:34:00      -51.842        6.950       -7.215       17.578       11.666       11.769      309.000      136.085      138.500        0.169        0.029       52.305        8.769        0.028      331.601       -0.278      867.412
01/12/2014  07:35:00      -46.381       16.348       -7.893       19.909       16.931       13.450      396.350      286.652      180.912        0.167        0.043       49.178       12.153        0.061      331.608       -0.268      867.442
01/12/2014  07:36:00       -8.949        2.821       -0.633       24.044       13.707        4.829      578.135      187.877       23.317        0.044        0.039        9.383        3.402        0.131      331.644       -0.207      867.477
01/12/2014  07:37:00       64.627       36.535        6.967       26.364       17.318       17.252      695.067      299.904      297.618        0.343        0.065       74.239        8.972        0.015      331.786        0.025      867.533
01/12/2014  07:38:00       99.944       65.416       25.881       34.911       28.491       36.851     1218.750      811.757     1357.998        0.916        0.169      119.449       19.833        0.028      331.780        0.016      867.627
01/12/2014  07:39:00      107.105       90.412       45.016       44.734       31.735       39.312     2001.134     1007.091     1545.411        1.311        0.228      140.163       23.739        0.029      331.808        0.061      867.734
01/12/2014  07:40:00      135.885       79.313       32.834       39.907       34.674       40.538     1592.543     1202.257     1643.335        1.513        0.222      157.338       22.896        0.021      331.660       -0.181      867.813
01/12/2014  07:41:00      123.298       63.589       33.319       29.449       30.631       25.635      867.260      938.229      657.145        1.141        0.123      138.729       15.388        0.012      331.636       -0.222      867.852
01/12/2014  07:42:00      103.171       46.260       28.232       43.115       33.242       28.497     1858.902     1105.062      812.099        0.868        0.189      113.067       14.346        0.016      331.661       -0.178      867.862
01/12/2014  07:43:00      114.501       46.564       31.596       37.310       24.678       25.376     1392.006      608.991      643.928        0.946        0.132      123.607       18.205        0.022      331.720       -0.081      867.872
01/12/2014  07:44:00      122.984       36.865       11.288       43.362       26.239       27.011     1880.257      688.503      729.583        0.995        0.165      128.390       21.554        0.028      331.792        0.037      867.892
01/12/2014  07:45:00       77.233       31.229       29.067       35.683       29.462       17.315     1273.297      868.030      299.824        0.511        0.122       83.308       19.800        0.056      331.803        0.053      867.933
01/12/2014  07:46:00       79.270       43.020       32.305       20.062       18.162       19.129      402.485      329.856      365.912        0.514        0.055       90.192       11.187        0.015      331.855        0.140      867.975
01/12/2014  07:47:00       73.012       36.943       17.747       29.560       20.091       22.285      873.770      403.645      496.613        0.439        0.089       81.827       20.930        0.065      331.869        0.162      867.998
01/12/2014  07:48:00       77.168       53.425       25.098       18.677       10.990       15.660      348.817      120.785      245.226        0.508        0.036       93.857        9.572        0.010      331.850        0.130      868.014
01/12/2014  07:49:00       66.697       44.231       14.111       27.920       22.674       21.481      779.532      514.091      461.450        0.418        0.088       80.030       13.166        0.027      331.809        0.063      868.042
01/12/2014  07:50:00       21.335       20.920        9.224       22.035       15.131       13.856      485.554      228.941      191.981        0.094        0.045       29.880       11.296        0.143      331.752       -0.029      868.055
01/12/2014  07:51:00        4.611       13.745       -8.879        9.127       19.842        4.705       83.299      393.718       22.139        0.039        0.025       14.498        2.582        0.032      331.822        0.081      868.031
01/12/2014  07:52:00      -95.746      -24.671       -9.524       29.341       25.943        8.796      860.888      673.054       77.374        0.574        0.081       98.874        4.741        0.002      331.664       -0.173      867.983
01/12/2014  07:53:00     -133.483      -48.244      -15.261       14.078       15.933        9.614      198.192      253.859       92.431        1.046        0.027      141.934        6.482        0.002      331.699       -0.117      867.934
01/12/2014  07:54:00     -132.021      -36.152       -8.851       34.988       23.399       17.297     1224.188      547.508      299.178        1.044        0.104      136.881       16.123        0.014      331.628       -0.233      867.908
01/12/2014  07:55:00     -123.214      -19.979      -10.326       34.481       31.527       19.718     1188.963      993.955      388.795        0.913        0.129      124.823       19.505        0.024      331.641       -0.212      867.903
01/12/2014  07:56:00     -137.260      -19.834       -4.285       44.675       30.232       21.219     1995.864      913.952      450.244        1.131        0.168      138.686       21.486        0.024      331.779        0.015      867.918
01/12/2014  07:57:00     -108.190      -42.963        3.187       38.423       28.487       18.294     1476.312      811.536      334.673        0.809        0.131      116.409       18.547        0.025      331.760       -0.018      867.949
01/12/2014  07:58:00      -98.549      -38.896        1.097       41.534       27.287       18.807     1725.038      744.558      353.706        0.702        0.141      105.948       17.794        0.028      331.800        0.048      867.986
01/12/2014  07:59:00      -55.273      -27.071        7.738       48.986       47.498       23.547     2399.596     2256.024      554.475        0.453        0.261       61.546       25.366        0.170      331.782        0.019      868.010
01/12/2014  08:00:00     -116.771      -99.938        0.511       56.408       46.432       28.711     3181.876     2155.891      824.329        1.489        0.308      153.698       29.939        0.038      331.816        0.075      868.016
01/12/2014  08:01:00      -92.798      -53.906        1.201       66.000       47.405       30.620     4355.973     2247.281      937.587        0.953        0.377      107.318       36.619        0.116      331.873        0.169      868.014
01/12/2014  08:02:00      -95.146      -40.659        0.368       61.788       45.601       30.065     3817.699     2079.463      903.905        0.875        0.340      103.469       26.748        0.067      331.743       -0.047      868.037
01/12/2014  08:03:00     -110.713       -1.602       -2.153       45.452       42.847       27.490     2065.892     1835.841      755.722        0.846        0.233      110.724       19.896        0.032      331.595       -0.288      868.101
01/12/2014  08:04:00     -119.770      -19.298        0.198       43.921       43.782       21.973     1929.069     1916.898      482.826        0.952        0.216      121.315       20.884        0.030      331.648       -0.201      868.190
01/12/2014  08:05:00      -83.742      -40.585       11.786       40.712       40.422       23.843     1657.503     1633.936      568.481        0.633        0.193       93.058       20.566        0.049      331.688       -0.135      868.275
01/12/2014  08:06:00     -101.029      -23.572       -1.172       24.924       24.483       16.890      621.196      599.401      285.277        0.613        0.075      103.742       12.086        0.014      331.692       -0.128      868.351
01/12/2014  08:07:00      -98.319      -27.096       -2.490       27.151       23.285       15.395      737.191      542.208      237.019        0.596        0.076      101.985       15.446        0.023      331.710       -0.098      868.427
01/12/2014  08:08:00     -101.187      -42.743       -0.603       30.898       23.590       14.371      954.656      556.472      206.530        0.689        0.086      109.845        5.663        0.003      331.736       -0.057      868.489
01/12/2014  08:09:00     -112.207      -55.590        1.804       40.620       21.616       20.451     1650.021      467.238      418.238        0.911        0.127      125.222       21.356        0.029      331.772        0.001      868.521
01/12/2014  08:10:00     -119.009      -59.014       -1.046       45.358       34.344       20.504     2057.350     1179.508      420.396        1.065        0.183      132.837       19.430        0.021      331.790        0.031      868.550
01/12/2014  08:11:00     -149.904      -67.037       -5.389       47.486       38.927       22.095     2254.934     1515.314      488.196        1.563        0.213      164.211       23.917        0.021      331.771        0.001      868.561
01/12/2014  08:12:00     -140.840      -67.452       -2.584       35.921       34.193       22.852     1290.329     1169.191      522.210        1.369        0.149      156.159       22.844        0.021      331.753       -0.027      868.544
01/12/2014  08:13:00     -217.667      -59.748       -3.733       48.262       38.938       26.026     2329.221     1516.164      677.338        2.774        0.226      225.719       24.066        0.011      331.757       -0.025      868.477
01/12/2014  08:14:00     -208.108      -60.813       -3.738       63.375       53.196       29.936     4016.385     2829.765      896.194        2.738        0.387      216.812       29.455        0.018      331.763       -0.017      868.418
01/12/2014  08:15:00     -241.234      -96.744      -12.455       69.902       55.750       40.856     4886.320     3108.118     1669.230        3.868        0.483      259.910       33.073        0.016      331.708       -0.105      868.359
01/12/2014  08:16:00     -243.799     -109.311       -2.784       60.844       48.426       34.966     3702.042     2345.106     1222.649        3.933        0.363      267.183       31.242        0.014      331.668       -0.173      868.326
01/12/2014  08:17:00     -160.640      -80.534       -4.661       76.553       71.502       39.438     5860.365     5112.509     1555.368        2.242        0.626      179.697       33.620        0.035      331.717       -0.088      868.314
01/12/2014  08:18:00     -214.433      -73.108        1.754       81.749       51.267       32.463     6682.833     2628.259     1053.840        3.085        0.518      226.553       38.340        0.029      331.740       -0.056      868.333
01/12/2014  08:19:00     -284.355      -64.380      -14.547       57.456       48.483       38.175     3301.166     2350.611     1457.318        4.616        0.355      291.552       32.857        0.013      331.764       -0.015      868.369
01/12/2014  08:20:00     -170.953      -49.167       -6.228       67.108       43.332       36.989     4503.462     1877.667     1368.201        1.971        0.387      177.883       41.194        0.054      331.780        0.015      868.414
01/12/2014  08:21:00      -69.462      -36.242        2.620       52.833       39.458       23.505     2791.375     1556.918      552.464        0.552        0.245       78.348       26.875        0.118      331.798        0.045      868.447
01/12/2014  08:22:00       -8.040        2.993       15.025       15.284       19.466       13.057      233.599      378.908      170.473        0.054        0.039        8.579       11.918        1.930      331.967        0.324      868.477
01/12/2014  08:23:00      -26.723      -18.149       -6.656       18.783       12.069       10.257      352.811      145.662      105.205        0.085        0.030       32.303        8.747        0.073      331.951        0.298      868.498
01/12/2014  08:24:00      -22.647       -0.738        3.072       14.754        8.018       13.076      217.689       64.290      170.975        0.049        0.023       22.659        8.640        0.145      332.135        0.603      868.502
01/12/2014  08:25:00      -25.199       20.185       17.398       14.366       18.340       14.067      206.395      336.347      197.872        0.104        0.037       32.286        7.654        0.056      332.145        0.619      868.496
01/12/2014  08:26:00      -43.212        2.368       14.789       22.221       16.545       10.532      493.793      273.722      110.917        0.148        0.044       43.277        5.147        0.014      332.132        0.596      868.477
01/12/2014  08:27:00      -44.871       14.697        2.081       12.772       16.100        9.277      163.136      259.215       86.055        0.137        0.025       47.217        6.062        0.016      332.033        0.434      868.455
01/12/2014  08:28:00      -38.208        6.855        2.004       13.836       15.076       10.006      191.422      227.294      100.129        0.101        0.026       38.818        5.580        0.021      332.060        0.478      868.425
01/12/2014  08:29:00      -74.743      -24.119       -2.163       36.898       30.246       18.300     1361.446      914.824      334.900        0.439        0.131       78.539       15.111        0.037      332.146        0.619      868.416
01/12/2014  08:30:00     -123.000      -21.274       -4.685       40.788       35.952       22.352     1663.668     1292.579      499.621        0.953        0.173      124.826       18.248        0.021      332.098        0.540      868.401
01/12/2014  08:31:00     -145.493      -50.122       -1.585       27.451       33.637       20.887      753.555     1131.475      436.278        1.300        0.116      153.885       13.350        0.008      332.126        0.587      868.347
01/12/2014  08:32:00     -148.842      -37.875      -11.334       50.826       55.485       27.550     2583.309     3078.598      759.030        1.507        0.321      153.585       22.160        0.021      332.113        0.565      868.255
01/12/2014  08:33:00     -185.241      -41.263      -14.937       56.000       40.344       29.542     3135.984     1627.666      872.734        2.094        0.282      189.781       28.310        0.022      332.152        0.627      868.176
01/12/2014  08:34:00     -194.777      -70.624      -11.351       75.444       52.685       36.315     5691.745     2775.759     1318.767        2.642        0.489      207.185       40.304        0.038      332.170        0.656      868.111
01/12/2014  08:35:00     -173.780      -57.008        1.035       77.117       57.871       39.035     5947.032     3349.071     1523.768        2.213        0.541      182.892       34.422        0.035      332.247        0.783      868.072
01/12/2014  08:36:00     -188.150      -59.336        2.752       75.365       68.659       41.337     5679.857     4714.041     1708.715        2.551        0.605      197.284       39.639        0.040      332.266        0.815      868.043
01/12/2014  08:37:00      -41.531      -59.707       17.283       98.451       59.519       49.364     9692.533     3542.456     2436.782        1.063        0.784       72.731       51.552        0.502      332.389        1.019      868.019
01/12/2014  08:38:00     -106.432      -89.448        0.495       87.626       55.139       38.041     7678.285     3040.345     1447.093        1.575        0.608      139.028       50.443        0.132      332.314        0.896      868.032
01/12/2014  08:39:00      -32.942      -38.955       15.311       49.022       47.604       30.733     2403.129     2266.095      944.527        0.422        0.281       51.016       29.852        0.342      332.477        1.165      868.069
01/12/2014  08:40:00      -60.184      -74.056       -2.995       42.094       41.808       24.633     1771.921     1747.888      606.796        0.662        0.206       95.428       21.262        0.050      332.356        0.963      868.123
01/12/2014  08:41:00      -34.714       -4.139        7.961       41.381       40.338       22.334     1712.353     1627.117      498.793        0.256        0.192       34.960       19.340        0.306      332.551        1.286      868.169
01/12/2014  08:42:00       -0.476      -14.811       -3.704       16.624       39.376       15.390      276.350     1550.469      236.864        0.115        0.103       14.819       18.775        1.605      332.579        1.332      868.228
01/12/2014  08:43:00       -7.089       -5.799        6.450       15.472       18.687       11.084      239.371      349.202      122.846        0.042        0.036        9.158        6.137        0.449      332.885        1.840      868.310
01/12/2014  08:44:00      -71.308        2.186       -2.170       26.668       29.838       14.381      711.174      890.288      206.814        0.345        0.090       71.341        2.956        0.002      332.575        1.325      868.372
01/12/2014  08:45:00      -73.218        8.637      -11.305       14.999       11.318        8.248      224.969      128.095       68.037        0.299        0.021       73.725        6.041        0.007      332.489        1.182      868.404
01/12/2014  08:46:00      -97.121       32.999      -11.265       30.014       22.841       18.582      900.867      521.722      345.298        0.621        0.088      102.574       15.012        0.021      332.495        1.194      868.387
01/12/2014  08:47:00     -138.772      -52.672      -15.203       54.640       51.631       25.713     2985.506     2665.742      661.162        1.429        0.316      148.431       21.274        0.021      332.511        1.221      868.342
01/12/2014  08:48:00     -202.776        0.748      -25.247       55.522       43.730       22.099     3082.731     1912.324      488.386        2.362        0.274      202.777       14.082        0.005      332.511        1.217      868.305
01/12/2014  08:49:00     -210.892        7.108      -12.731       78.540       61.676       34.119     6168.467     3803.945     1164.119        2.791        0.557      211.011       37.123        0.031      332.546        1.274      868.312
01/12/2014  08:50:00     -138.646       -2.550       -4.859       69.467       52.910       32.938     4825.600     2799.427     1084.907        1.398        0.435      138.670       37.104        0.072      332.643        1.438      868.370
01/12/2014  08:51:00     -156.521       16.692      -18.188       41.101       53.897       27.171     1689.257     2904.838      738.243        1.522        0.267      157.409       21.943        0.019      332.627        1.414      868.459
01/12/2014  08:52:00     -125.260        5.353      -10.321       45.085       47.313       22.568     2032.618     2238.564      509.320        1.030        0.239      125.374       23.906        0.036      332.679        1.498      868.533
01/12/2014  08:53:00       44.274       -4.336        9.211       42.979       63.490       27.250     1847.178     4030.996      742.560        0.434        0.331       44.486       30.449        0.468      333.055        2.119      868.562
01/12/2014  08:54:00       81.432       77.124        2.338       41.081       29.646       28.903     1687.649      878.907      835.403        0.799        0.170      112.157       17.161        0.023      332.959        1.960      868.582
01/12/2014  08:55:00      117.363       75.580       12.966       63.354       36.222       41.353     4013.693     1312.027     1710.091        1.334        0.352      139.594       37.449        0.072      332.901        1.865      868.605
01/12/2014  08:56:00      -12.669       93.813      113.294       29.199       49.221       29.692      852.557     2422.730      881.634        1.298        0.208       94.664       24.360        0.066      333.211        2.377      868.640
01/12/2014  08:57:00       33.239       65.212       57.946       56.211       51.100       51.241     3159.700     2611.241     2625.667        0.855        0.420       73.195       44.141        0.364      333.143        2.267      868.703
01/12/2014  08:58:00       19.740       33.637       25.216       24.879       32.382       31.483      618.966     1048.605      991.159        0.241        0.133       39.001       18.831        0.233      333.219        2.390      868.776
01/12/2014  08:59:00       -9.742       36.083        1.521       15.499       18.975       18.573      240.204      360.042      344.943        0.117        0.047       37.375       14.148        0.143      333.150        2.276      868.820
01/12/2014  09:00:00      -14.151       45.304       -4.399       27.661       33.953       18.068      765.133     1152.813      326.466        0.226        0.112       47.463       18.538        0.153      333.108        2.208      868.818
01/12/2014  09:01:00      -80.828       51.844      -14.619       39.115       30.770       20.671     1530.001      946.788      427.302        0.617        0.145       96.026       21.040        0.048      333.025        2.069      868.791
01/12/2014  09:02:00      -85.027       38.275      -13.125       28.153       37.503       17.003      792.588     1406.512      289.114        0.568        0.124       93.245       11.010        0.014      332.991        2.015      868.739
01/12/2014  09:03:00     -114.409      -24.877       -1.875       41.300       48.681       26.610     1705.727     2369.864      708.096        0.925        0.239      117.083       15.667        0.018      333.025        2.070      868.690
01/12/2014  09:04:00     -151.293      -39.588      -11.070       43.377       48.396       21.853     1881.563     2342.145      477.541        1.464        0.235      156.386       15.635        0.010      332.932        1.915      868.659
01/12/2014  09:05:00      -94.670       -5.690       -1.913       73.742       29.231       22.064     5437.839      854.456      486.825        0.789        0.339       94.841       32.031        0.114      333.071        2.146      868.629
01/12/2014  09:06:00       -4.807       32.477        8.057       45.699       27.281       27.074     2088.403      744.237      732.975        0.235        0.178       32.830       21.294        0.421      333.369        2.639      868.608
01/12/2014  09:07:00      -41.263       66.025       -7.799       37.655       29.616       24.874     1417.877      877.100      618.735        0.452        0.146       77.858       16.077        0.043      333.307        2.536      868.595
01/12/2014  09:08:00      -23.224       89.168       -3.786       39.846       34.332       27.469     1587.689     1178.694      754.519        0.601        0.176       92.143       23.015        0.062      333.298        2.522      868.619
01/12/2014  09:09:00       19.467       62.022        2.451       42.110       31.719       26.167     1773.278     1006.081      684.727        0.385        0.173       65.006       23.380        0.129      333.379        2.656      868.708
01/12/2014  09:10:00       91.534       68.496        2.026       61.748       37.628       30.719     3812.864     1415.902      943.671        0.962        0.309      114.324       27.500        0.058      333.352        2.611      868.791
01/12/2014  09:11:00      106.967       60.886        0.865       35.741       25.691       23.936     1277.438      660.015      572.948        0.883        0.126      123.081       15.428        0.016      333.191        2.343      868.842
01/12/2014  09:12:00      144.606       76.566        8.621       49.445       47.725       42.810     2444.807     2277.707     1832.691        1.670        0.328      163.626       18.222        0.012      333.378        2.653      868.848
01/12/2014  09:13:00      162.629      102.917       11.554       46.572       47.944       40.264     2168.930     2298.661     1621.186        2.163        0.304      192.458       21.018        0.012      333.208        2.372      868.893
01/12/2014  09:14:00       95.749       53.507       18.751       66.343       39.467       39.969     4401.389     1557.641     1597.555        0.997        0.378      109.686       23.206        0.045      333.450        2.773      868.955
01/12/2014  09:15:00       77.939       76.270       41.144       76.094       40.290       55.571     5790.240     1623.323     3088.118        1.204        0.525      109.049       55.554        0.260      333.691        3.173      869.007
01/12/2014  09:16:00       61.370       68.996       52.085       60.476       57.260       60.862     3657.391     3278.659     3704.129        1.094        0.532       92.341       45.629        0.244      333.429        2.738      869.030
01/12/2014  09:17:00       54.574      102.048       92.747       56.824       52.907       60.146     3228.980     2799.108     3617.542        1.582        0.482      115.725       59.265        0.262      333.399        2.688      869.018
01/12/2014  09:18:00       84.713       49.068       -2.861       40.010       39.322       26.280     1600.760     1546.227      690.619        0.671        0.192       97.898       17.348        0.031      333.267        2.471      868.982
01/12/2014  09:19:00       51.828       46.749       25.543       54.491       31.718       33.248     2969.254     1006.024     1105.457        0.530        0.254       69.797       25.113        0.129      333.644        3.094      868.944
01/12/2014  09:20:00      136.639       93.749       11.951       54.846       35.918       43.685     3008.081     1290.138     1908.349        1.690        0.310      165.708       12.814        0.006      333.232        2.412      868.941
01/12/2014  09:21:00      109.775       85.603       24.767       38.486       39.108       39.748     1481.198     1529.468     1579.915        1.229        0.230      139.206        9.630        0.005      333.312        2.544      868.975
01/12/2014  09:22:00       68.939       58.162       28.112       29.038       33.013       26.911      843.187     1089.872      724.225        0.579        0.133       90.197       12.851        0.020      333.462        2.792      869.044
01/12/2014  09:23:00       63.634       53.031        4.829       47.613       32.351       29.573     2266.988     1046.589      874.568        0.554        0.209       82.835       24.035        0.084      333.696        3.179      869.103
01/12/2014  09:24:00       60.319       50.424       13.106       33.876       31.978       26.838     1147.594     1022.616      720.301        0.462        0.145       78.619       14.177        0.033      333.750        3.271      869.160
01/12/2014  09:25:00       19.855       50.576       17.689       28.373       35.344       32.980      805.049     1249.166     1087.699        0.320        0.157       54.334       25.635        0.223      333.889        3.500      869.231
01/12/2014  09:26:00       15.270       60.398       53.209       25.239       37.078       17.756      636.992     1374.760      315.262        0.452        0.116       62.298       13.081        0.044      333.743        3.258      869.297
01/12/2014  09:27:00       19.450      -68.961        2.266       21.171       35.560       25.775      448.211     1264.494      664.358        0.376        0.119       71.651       23.408        0.107      333.495        2.846      869.320
01/12/2014  09:28:00        7.467       50.032       76.890       37.634       59.355       39.717     1416.319     3523.002     1577.406        0.749        0.326       50.586       41.011        0.657      333.904        3.526      869.316
01/12/2014  09:29:00       89.031      132.304      102.519       72.678       56.428       59.445     5282.075     3184.167     3533.758        2.397        0.600      159.470       57.762        0.131      333.502        2.856      869.343
01/12/2014  09:30:00       42.514       66.917       97.778       55.297       51.669       33.440     3057.794     2669.658     1118.243        1.134        0.342       79.280       35.026        0.195      333.710        3.204      869.400
01/12/2014  09:31:00      140.746       97.688        8.100       57.836       39.290       41.981     3345.017     1543.722     1762.409        1.803        0.333      171.325       24.993        0.021      333.548        2.934      869.454
01/12/2014  09:32:00      111.261      110.419       76.268       50.654       31.170       48.640     2565.779      971.543     2365.873        1.814        0.295      156.752       25.142        0.026      333.669        3.134      869.442
01/12/2014  09:33:00       14.512       75.830      106.738       55.421       51.979       43.742     3071.439     2701.785     1913.361        1.252        0.384       77.206       39.456        0.261      334.008        3.698      869.396
01/12/2014  09:34:00      156.687      111.540       62.904       49.647       38.180       41.062     2464.853     1457.726     1686.098        2.328        0.280      192.333       30.204        0.025      333.435        2.747      869.376
01/12/2014  09:35:00       37.935      105.501      105.098       44.682       52.702       39.087     1996.487     2777.474     1527.758        1.496        0.315      112.114       36.839        0.108      333.620        3.053      869.352
01/12/2014  09:36:00       49.557       84.235       79.404       25.387       28.212       20.385      644.508      795.910      415.558        0.886        0.093       97.732       15.143        0.024      333.608        3.035      869.333
01/12/2014  09:37:00       55.533       43.843       36.318       31.465       25.047       22.810      990.041      627.339      520.295        0.423        0.107       70.754       20.991        0.088      333.545        2.930      869.319
01/12/2014  09:38:00       46.134       79.698       -6.737       39.319       60.624       28.543     1545.952     3675.318      814.675        0.728        0.302       92.088       26.321        0.082      333.663        3.126      869.304
01/12/2014  09:39:00       43.806       93.186       -4.617       40.361       61.722       37.858     1628.979     3809.594     1433.229        0.875        0.344      102.969       35.170        0.117      333.600        3.021      869.296
01/12/2014  09:40:00       37.414       66.462        7.553       36.084       51.660       35.186     1302.074     2668.709     1238.039        0.554        0.260       76.269       30.751        0.163      333.775        3.313      869.287
01/12/2014  09:41:00       91.054       64.952       26.613       51.425       44.108       29.018     2644.562     1945.534      842.020        0.932        0.272      111.847       18.152        0.026      333.653        3.107      869.291
01/12/2014  09:42:00      112.754       84.437       19.130       32.729       24.840       33.663     1071.200      617.031     1133.184        1.151        0.141      140.865       13.072        0.009      333.629        3.069      869.304
01/12/2014  09:43:00      132.344      100.474       43.562       76.083       50.758       45.852     5788.646     2576.401     2102.404        1.999        0.523      166.163       43.796        0.069      333.721        3.220      869.321
01/12/2014  09:44:00      112.248       72.936       54.073       45.928       42.493       41.055     2109.352     1805.655     1685.522        1.322        0.280      133.862       21.589        0.026      333.835        3.410      869.347
01/12/2014  09:45:00       42.156       65.411       68.958       36.785       41.012       28.324     1353.104     1681.996      802.241        0.732        0.192       77.818       14.677        0.036      333.975        3.642      869.380
01/12/2014  09:46:00       15.487       19.602       54.651       38.390       45.906       40.214     1473.823     2107.397     1617.168        0.440        0.260       24.982       39.076        2.447      334.182        3.986      869.434
01/12/2014  09:47:00      102.969       72.199       48.206       47.923       46.035       35.500     2296.585     2119.209     1260.225        1.191        0.284      125.759       17.211        0.019      333.757        3.282      869.484
01/12/2014  09:48:00       65.101       55.895       14.491       44.354       30.439       35.233     1967.293      926.534     1241.388        0.585        0.207       85.804       16.120        0.035      333.788        3.332      869.552
01/12/2014  09:49:00      108.437       46.830       13.658       74.897       42.876       37.494     5609.619     1838.391     1405.776        1.149        0.443      118.116       15.796        0.018      333.802        3.356      869.619
01/12/2014  09:50:00       92.635       63.646       14.310       55.641       44.638       33.009     3095.934     1992.552     1089.572        0.951        0.309      112.393       24.175        0.046      333.837        3.414      869.669
01/12/2014  09:51:00      138.682       86.920       18.408       62.260       63.487       39.995     3876.340     4030.599     1599.632        1.832        0.475      163.670       27.980        0.029      333.807        3.362      869.709
01/12/2014  09:52:00      147.282       86.199        1.692       48.820       49.506       43.912     2383.396     2450.838     1928.226        1.794        0.338      170.652       32.276        0.036      333.757        3.279      869.739
01/12/2014  09:53:00       75.112       81.072       -0.753       68.737       48.313       36.212     4724.717     2334.118     1311.340        1.029        0.419      110.519       23.910        0.047      333.768        3.301      869.743
01/12/2014  09:54:00       37.630      147.499      -17.383       34.635       57.927       34.719     1199.571     3355.522     1205.412        1.462        0.288      152.223       39.611        0.068      333.731        3.239      869.717
01/12/2014  09:55:00        8.675      117.179      -20.295       16.999       41.729       17.213      288.972     1741.303      296.281        0.827        0.116      117.500       13.872        0.014      333.727        3.232      869.668
01/12/2014  09:56:00      -38.076       44.889       -9.863       29.592       23.222       19.174      875.700      539.278      367.649        0.267        0.089       58.863       11.464        0.038      333.933        3.573      869.605
01/12/2014  09:57:00      -40.474       52.670       -8.542       21.094       30.732       22.093      444.946      944.486      488.092        0.318        0.094       66.425       14.720        0.049      333.978        3.648      869.554
01/12/2014  09:58:00     -112.310      -28.696      -17.464       58.276       50.978       39.662     3396.040     2598.744     1573.085        1.065        0.378      115.918       37.122        0.103      334.058        3.779      869.525
01/12/2014  09:59:00     -211.901      -67.761      -25.108       65.431       60.711       35.473     4281.182     3685.843     1258.338        2.967        0.461      222.471       31.691        0.020      333.785        3.322      869.535
01/12/2014  10:00:00      -45.145       15.258       -0.433       45.227       32.674       27.952     2045.503     1067.597      781.300        0.308        0.195       47.654       18.845        0.156      333.991        3.669      869.566
01/12/2014  10:01:00      -19.705       74.977        9.667       52.504       54.192       38.322     2756.636     2936.724     1468.590        0.663        0.358       77.523       42.458        0.300      334.267        4.127      869.621
01/12/2014  10:02:00      -39.811      143.420      -20.216       53.813       49.710       33.821     2895.890     2471.095     1143.859        1.454        0.326      148.843       28.551        0.037      334.168        3.963      869.700
01/12/2014  10:03:00      -42.530      123.165      -18.074       52.306       76.564       34.027     2735.922     5861.983     1157.823        1.353        0.488      130.302       42.457        0.106      334.167        3.960      869.772
01/12/2014  10:04:00      -38.396      132.752      -13.886       67.293       66.268       35.701     4528.386     4391.444     1274.530        1.474        0.510      138.193       30.893        0.050      334.172        3.969      869.849
01/12/2014  10:05:00      -48.092      121.993      -14.201       66.268       59.359       33.408     4391.478     3523.509     1116.070        1.321        0.452      131.130       21.543        0.027      334.218        4.045      869.907
01/12/2014  10:06:00      -27.424      159.444      -20.492       47.029       90.508       33.547     2211.695     8191.721     1125.394        1.906        0.576      161.785       36.358        0.051      334.287        4.156      869.970
01/12/2014  10:07:00     -138.792      118.471      -32.016       70.477       83.885       40.263     4967.019     7036.615     1621.143        2.397        0.681      182.479       52.988        0.084      334.188        3.994      870.010
01/12/2014  10:08:00     -190.047      121.103      -31.821       78.611       59.885       39.283     6179.713     3586.208     1543.157        3.155        0.565      225.353       34.435        0.023      334.121        3.881      870.056
01/12/2014  10:09:00     -119.002      110.565      -14.137       68.094       70.995       41.282     4636.859     5040.334     1704.177        1.898        0.569      162.437       46.734        0.083      334.136        3.909      870.094
01/12/2014  10:10:00     -114.469       66.706      -20.662       81.342       56.832       38.290     6616.518     3229.908     1466.116        1.464        0.566      132.487       44.295        0.112      334.078        3.812      870.133
01/12/2014  10:11:00      -12.003       46.552       17.400       31.646       63.964       29.869     1001.462     4091.340      892.165        0.430        0.299       48.075       32.111        0.446      334.513        4.537      870.167
01/12/2014  10:12:00        8.811       73.339       11.888       42.118       50.601       34.525     1773.900     2560.451     1191.980        0.556        0.276       73.867       26.324        0.127      334.676        4.806      870.199
01/12/2014  10:13:00       24.630       94.551        6.029       44.993      114.881       37.649     2024.370    13197.714     1417.425        1.311        0.832       97.706       48.016        0.242      334.475        4.469      870.226
01/12/2014  10:14:00      -55.731      133.059      -14.740       46.071       70.369       32.862     2122.516     4951.824     1079.904        1.459        0.408      144.259       24.836        0.030      334.319        4.213      870.219
01/12/2014  10:15:00       47.903      157.479       -2.122       91.609       89.925       45.915     8392.213     8086.467     2108.182        2.284        0.929      164.604       52.656        0.102      334.447        4.423      870.191
01/12/2014  10:16:00        0.447      168.153      -21.435       39.441       59.694       26.423     1555.617     3563.352      698.178        1.728        0.291      168.154       27.716        0.027      334.439        4.411      870.169
01/12/2014  10:17:00      -33.018      159.553       -8.765       32.070       39.980       27.979     1028.480     1598.432      782.823        1.502        0.170      162.933       24.508        0.023      334.342        4.251      870.145
01/12/2014  10:18:00      -24.467      141.138      -16.975       27.773       58.710       28.387      771.354     3446.870      805.816        1.291        0.251      143.243       24.486        0.029      334.506        4.524      870.111
01/12/2014  10:19:00      -31.605       92.586      -15.314       37.026       49.044       33.408     1370.906     2405.305     1116.094        0.735        0.245       97.832       21.212        0.047      334.441        4.415      870.077
01/12/2014  10:20:00      -91.441       73.417      -24.226       39.925       43.222       22.043     1594.023     1868.157      485.883        0.914        0.197      117.267       14.896        0.016      334.355        4.273      870.040
01/12/2014  10:21:00      -17.960       69.365       -7.204       36.285       45.005       25.511     1316.637     2025.465      650.827        0.459        0.200       71.653       12.728        0.032      334.682        4.815      870.018
01/12/2014  10:22:00        2.712       83.414       -1.560       36.409       34.194       26.654     1325.585     1169.235      710.458        0.509        0.160       83.458       11.956        0.021      334.946        5.254      870.016
01/12/2014  10:23:00       61.687       74.904        3.248       61.682       45.703       33.174     3804.659     2088.720     1100.497        0.821        0.350       97.036       23.593        0.059      334.791        4.996      870.030
01/12/2014  10:24:00       85.456       69.412        0.120       49.608       30.265       27.383     2460.943      915.964      749.833        0.812        0.206      110.094       16.837        0.023      334.422        4.384      870.069
01/12/2014  10:25:00      -19.342      103.865       -3.327       29.562       39.913       27.329      873.902     1593.085      746.901        0.719        0.161      105.651       25.204        0.057      334.484        4.487      870.097
01/12/2014  10:26:00      -16.130       83.613      -10.471       33.550       51.406       26.971     1125.576     2642.555      727.414        0.593        0.225       85.154       35.123        0.170      334.708        4.859      870.127
01/12/2014  10:27:00       29.171      101.263        1.800       31.698       79.576       36.342     1004.776     6332.360     1320.724        0.988        0.433      105.381       35.080        0.111      334.870        5.128      870.160
01/12/2014  10:28:00       94.225       87.196        0.481       70.082       60.583       42.601     4911.447     3670.355     1814.810        1.344        0.520      128.380       36.660        0.082      334.805        5.018      870.204
01/12/2014  10:29:00        4.068       42.373        1.246       44.637       66.550       25.622     1992.429     4428.965      656.476        0.444        0.354       42.567       27.251        0.410      334.952        5.264      870.241
01/12/2014  10:30:00      -40.878      166.960      -11.789       50.300       75.343       39.754     2530.074     5676.608     1580.396        1.973        0.489      171.892       38.371        0.050      334.684        4.817      870.236
01/12/2014  10:31:00      -16.178       55.429        9.868       52.039       52.012       28.450     2708.103     2705.297      809.407        0.483        0.311       57.742       30.439        0.278      335.095        5.502      870.176
01/12/2014  10:32:00      -21.348       33.060       14.881       47.051       36.880       33.034     2213.807     1360.104     1091.262        0.322        0.233       39.353       23.746        0.364      335.064        5.449      870.095
01/12/2014  10:33:00      -67.892       42.027       -1.076       66.990       64.279       33.895     4487.675     4131.786     1148.903        0.807        0.488       79.848       27.031        0.115      334.843        5.085      870.041
01/12/2014  10:34:00      -74.555      -42.171        6.151       77.648       48.812       39.365     6029.203     2382.616     1549.574        0.867        0.498       85.655       34.348        0.161      334.784        4.985      870.032
01/12/2014  10:35:00      -97.483       -2.575       -9.849       74.367       40.927       28.777     5530.446     1675.040      828.115        0.882        0.402       97.517       30.102        0.095      334.554        4.602      870.053
01/12/2014  10:36:00      -62.857      -22.462      -11.072       47.547       41.027       23.039     2260.706     1683.217      530.808        0.453        0.224       66.749       18.263        0.075      334.580        4.646      870.083
01/12/2014  10:37:00      -13.124      110.084      -22.131       27.580       44.387       20.578      760.671     1970.183      423.453        0.797        0.158      110.863       11.532        0.011      334.596        4.673      870.091
01/12/2014  10:38:00       66.824       46.104       20.564       67.317       40.625       31.879     4531.513     1650.411     1016.255        0.710        0.360       81.185       29.850        0.135      334.890        5.163      870.084
01/12/2014  10:39:00       -4.036       57.533       19.279       42.496       35.694       36.404     1805.950     1274.031     1325.247        0.405        0.220       57.674       25.709        0.199      334.985        5.319      870.092
01/12/2014  10:40:00       50.512      123.991       -2.946       48.422       64.384       47.939     2344.697     4145.306     2298.174        1.336        0.439      133.885       42.955        0.103      334.793        4.999      870.106
01/12/2014  10:41:00       -7.782      153.814      -10.536       34.820       86.468       40.753     1212.424     7476.633     1660.812        1.709        0.517      154.011       40.665        0.070      334.825        5.052      870.085
01/12/2014  10:42:00      -34.102      179.045      -11.211       32.105       87.829       29.168     1030.715     7713.900      850.772        2.147        0.480      182.264       37.590        0.043      334.673        4.798      870.037
01/12/2014  10:43:00      -54.694      108.653       -6.570       54.560       93.418       37.158     2976.828     8726.864     1380.753        1.396        0.654      121.643       33.690        0.077      334.737        4.905      869.987
01/12/2014  10:44:00      -12.619      165.209      -12.022       43.638       40.369       34.812     1904.261     1629.679     1211.846        1.617        0.237      165.690       26.898        0.026      334.806        5.021      869.971
01/12/2014  10:45:00      -18.217       91.850       -5.388       22.567       79.353       25.412      509.258     6296.932      645.759        0.812        0.373       93.639       35.844        0.147      334.776        4.970      869.996
01/12/2014  10:46:00       -0.223       21.197       13.419       40.707       24.343       26.667     1657.078      592.572      711.138        0.179        0.148       21.198       16.229        0.586      334.979        5.309      870.000
01/12/2014  10:47:00     -124.651       36.197      -23.619       67.207       34.412       14.668     4516.769     1184.189      215.142        1.166        0.296      129.800       17.689        0.019      334.562        4.615      870.027
01/12/2014  10:48:00     -127.017       19.057       -7.880       69.983       59.809       30.954     4897.607     3577.141      958.160        1.299        0.472      128.439       36.413        0.080      334.753        4.933      870.039
01/12/2014  10:49:00     -115.015      -46.642        9.530       80.364       72.698       38.320     6458.340     5285.023     1468.458        1.435        0.661      124.113       41.868        0.114      334.851        5.095      870.042
01/12/2014  10:50:00      -85.868        4.324      -13.553       53.032       54.900       32.053     2812.380     3014.046     1027.408        0.721        0.343       85.977        6.029        0.005      334.637        4.742      870.067
01/12/2014  10:51:00      -85.222      132.863      -11.974       66.228      101.079       42.201     4386.212    10216.944     1780.892        2.072        0.819      157.846       42.067        0.071      334.819        5.040      870.087
01/12/2014  10:52:00     -137.949      100.187      -32.602       54.939       49.523       33.178     3018.263     2452.507     1100.775        1.835        0.329      170.492       21.785        0.016      334.682        4.814      870.121
01/12/2014  10:53:00     -106.880      112.998      -23.575       65.341       61.169       36.464     4269.414     3741.686     1329.618        1.704        0.467      155.537       34.469        0.049      334.803        5.015      870.148
01/12/2014  10:54:00      -66.558      112.639      -13.413       60.955       41.781       33.567     3715.537     1745.648     1126.744        1.194        0.329      130.834       33.537        0.066      334.831        5.063      870.141
01/12/2014  10:55:00      -14.449       34.701       18.440       48.018       57.312       33.157     2305.741     3284.647     1099.404        0.422        0.334       37.589       32.719        0.758      335.308        5.855      870.109
01/12/2014  10:56:00      -79.663       37.123      -12.225       54.691       54.859       32.022     2991.125     3009.531     1025.379        0.745        0.351       87.888       32.030        0.133      334.922        5.215      870.043
01/12/2014  10:57:00      -39.795       47.672        0.295       71.403       55.748       43.826     5098.456     3107.885     1920.685        0.699        0.506       62.099       42.972        0.479      334.993        5.333      869.966
01/12/2014  10:58:00      -18.756      118.181        0.979       47.436       95.715       39.434     2250.203     9161.312     1555.042        1.364        0.648      119.660       42.993        0.129      335.317        5.871      869.893
01/12/2014  10:59:00       35.464      179.396        3.235       78.153       75.200       54.411     6107.927     5655.090     2960.504        2.408        0.736      182.868       48.233        0.070      335.115        5.533      869.825
01/12/2014  11:00:00      -16.015      167.134      -13.802       33.683       96.793       40.792     1134.529     9368.820     1663.969        2.027        0.608      167.900       46.874        0.078      335.067        5.455      869.782
01/12/2014  11:01:00       -3.253      226.073      -20.166       83.868      105.844       48.145     7033.924    11202.874     2317.923        3.604        1.028      226.097       57.637        0.065      334.883        5.146      869.759
01/12/2014  11:02:00       48.716      141.570      -15.437       38.412       79.412       39.801     1475.503     6306.258     1584.147        1.601        0.468      149.718       40.227        0.072      334.832        5.064      869.742
01/12/2014  11:03:00       28.850      129.100       -9.403       37.985       53.981       38.140     1442.828     2913.970     1454.697        1.170        0.291      132.284       33.739        0.065      335.036        5.403      869.724
01/12/2014  11:04:00       52.979      132.486       -3.230       65.076       65.490       47.437     4234.927     4288.980     2250.294        1.557        0.539      142.686       43.022        0.091      335.024        5.382      869.748
01/12/2014  11:05:00      127.518       76.806       17.556      112.279       49.084       41.457    12606.551     2409.259     1718.672        1.960        0.837      148.862       35.347        0.056      335.250        5.759      869.746
01/12/2014  11:06:00       25.436      102.593      -11.125       51.555       76.738       32.932     2657.934     5888.657     1084.529        1.046        0.482      105.699       36.678        0.120      335.519        6.206      869.755
01/12/2014  11:07:00       13.507      104.212        8.288       48.471       79.861       52.284     2349.418     6377.764     2733.626        1.128        0.573      105.083       51.273        0.238      335.415        6.033      869.728
01/12/2014  11:08:00      -47.244      115.650      -16.111       67.413       55.659       40.695     4544.564     3097.901     1656.085        1.258        0.465      124.927       26.656        0.046      335.256        5.770      869.705
01/12/2014  11:09:00      -15.542       63.469       15.620       42.895       46.356       34.578     1839.991     2148.853     1195.631        0.485        0.259       65.345       23.315        0.127      335.553        6.263      869.661
01/12/2014  11:10:00      -49.406       98.895        6.817       75.224       61.080       34.876     5658.622     3730.825     1216.312        1.143        0.530      110.549       30.161        0.074      335.510        6.192      869.674
01/12/2014  11:11:00     -106.082       34.390      -13.238       77.191       88.489       37.482     5958.430     7830.298     1404.933        1.390        0.760      111.517       35.840        0.103      335.266        5.785      869.679
01/12/2014  11:12:00      -56.304       44.329       -0.170       55.393       74.488       44.076     3068.383     5548.413     1942.655        0.785        0.528       71.661       32.887        0.211      335.330        5.893      869.677
01/12/2014  11:13:00      -96.445       25.414      -11.826       96.099       40.730       43.496     9234.937     1658.897     1891.893        1.143        0.639       99.737       41.439        0.173      335.117        5.537      869.684
01/12/2014  11:14:00      -35.992       33.991        1.465       65.251       77.164       35.398     4257.696     5954.265     1253.000        0.696        0.573       49.505       46.951        0.899      335.483        6.147      869.667
01/12/2014  11:15:00      -67.165       92.943        1.384       61.210       44.740       37.684     3746.619     2001.656     1420.087        1.016        0.358      114.671       36.481        0.101      335.544        6.249      869.648
01/12/2014  11:16:00     -137.597       38.135      -16.988       69.318      112.939       45.928     4804.969    12755.185     2109.383        2.017        0.983      142.784       38.590        0.073      335.017        5.370      869.629
01/12/2014  11:17:00      -99.455      103.877      -14.821       64.319       64.516       40.660     4136.889     4162.309     1653.199        1.543        0.498      143.811       27.264        0.036      335.211        5.694      869.644
01/12/2014  11:18:00      -46.925       20.884        2.592       70.945       68.080       33.392     5033.232     4634.910     1115.038        0.671        0.539       51.362       28.344        0.305      335.338        5.906      869.662
01/12/2014  11:19:00       -9.708       52.842      -15.497       45.052       78.734       33.047     2029.716     6199.091     1092.134        0.622        0.466       53.727       32.152        0.358      335.324        5.882      869.690
01/12/2014  11:20:00       34.350      117.193        3.693       71.268       90.103       47.571     5079.196     8118.629     2263.032        1.519        0.773      122.124       44.853        0.135      335.457        6.101      869.738
01/12/2014  11:21:00      152.187      103.535       32.861      100.707       56.719       63.070    10141.982     3216.990     3977.779        2.615        0.867      184.066       52.254        0.081      335.366        5.951      869.752
01/12/2014  11:22:00      120.742       84.373       10.998       74.082       46.296       47.542     5488.085     2143.347     2260.236        1.585        0.495      147.301       35.502        0.058      335.451        6.094      869.787
01/12/2014  11:23:00      158.735       97.899       18.187       72.356       52.412       47.749     5235.398     2747.061     2279.956        2.269        0.513      186.496       16.673        0.008      335.335        5.899      869.811
01/12/2014  11:24:00      107.823      107.895        1.605       93.868       50.789       50.861     8811.237     2579.474     2586.863        1.862        0.699      152.536       39.275        0.066      335.430        6.058      869.838
01/12/2014  11:25:00       67.595      134.488        0.683      106.961       80.748       52.505    11440.758     6520.295     2756.748        2.168        1.036      150.519       54.349        0.130      335.470        6.124      869.846
01/12/2014  11:26:00       71.749       96.570       -1.431       53.341       39.457       37.532     2845.274     1556.892     1408.671        1.014        0.291      120.307       31.175        0.067      335.621        6.378      869.851
01/12/2014  11:27:00       76.139       73.884        5.334       82.860       53.679       43.747     6865.862     2881.447     1913.798        1.147        0.583      106.094       38.918        0.135      335.636        6.402      869.861
01/12/2014  11:28:00      143.816      120.108       12.288       71.441       72.833       61.039     5103.789     5304.587     3725.738        2.469        0.707      187.374       33.768        0.032      335.465        6.114      869.848
01/12/2014  11:29:00      181.266      136.194        8.392       79.340       72.826       50.981     6294.824     5303.602     2599.070        3.283        0.710      226.729       25.672        0.013      335.471        6.125      869.846
01/12/2014  11:30:00       65.179      125.083        4.332       79.893       71.750       47.749     6382.856     5148.116     2280.008        1.686        0.691      141.047       45.881        0.106      335.453        6.098      869.859
01/12/2014  11:31:00       87.270      113.001        5.281       58.511       71.688       52.674     3423.498     5139.122     2774.548        1.587        0.567      142.777       49.039        0.118      335.514        6.199      869.832
01/12/2014  11:32:00      -77.123       75.362       -7.266       98.223       61.471       40.306     9647.749     3778.669     1624.548        1.336        0.753      107.830       33.414        0.096      335.523        6.213      869.784
01/12/2014  11:33:00       -4.086      140.265       -3.777       41.291       49.517       40.867     1704.981     2451.960     1670.078        1.277        0.291      140.325       27.140        0.037      335.528        6.223      869.737
01/12/2014  11:34:00       -5.036      128.901        8.604       67.700      104.493       44.656     4583.238    10918.768     1994.186        1.710        0.875      129.000       48.991        0.144      335.618        6.370      869.700
01/12/2014  11:35:00       53.829       88.329       27.392       67.133       70.239       63.929     4506.833     4933.464     4086.856        1.249        0.676      103.438       39.490        0.146      335.606        6.351      869.679
01/12/2014  11:36:00      102.637      120.329      -12.937       90.169       67.877       51.010     8130.413     4607.222     2601.991        2.026        0.767      158.156       30.720        0.038      335.489        6.154      869.685
01/12/2014  11:37:00      143.152      105.878        8.090      102.037       66.603       58.321    10411.527     4435.948     3401.323        2.501        0.912      178.052       36.133        0.041      335.432        6.060      869.679
01/12/2014  11:38:00      108.921       32.621       45.694      183.313      116.890       65.089    33603.496    13663.289     4236.523        3.325        2.575      113.701       50.760        0.199      335.674        6.464      869.610
01/12/2014  11:39:00       98.453      131.861       12.405      112.473      111.474       80.935    12650.162    12426.457     6550.438        2.943        1.581      164.560       73.333        0.199      335.867        6.785      869.604
01/12/2014  11:40:00       72.900      188.447      -20.908       78.566      102.930       63.467     6172.669    10594.575     4028.107        3.103        1.040      202.056       56.580        0.078      335.699        6.505      869.647
01/12/2014  11:41:00       20.784      216.723      -14.733       61.289       93.197       54.220     3756.354     8685.690     2939.762        3.150        0.769      217.717       54.890        0.064      335.603        6.344      869.663
01/12/2014  11:42:00       51.658      209.715       -0.950       72.484      103.816       70.082     5253.980    10777.711     4911.418        3.379        1.047      215.983       64.840        0.090      335.492        6.158      869.635
01/12/2014  11:43:00       30.519      189.036      -11.026       75.562      119.281       70.872     5709.610    14227.979     5022.798        3.087        1.248      191.483       67.216        0.123      335.576        6.300      869.610
01/12/2014  11:44:00       94.073      113.288       19.530       77.495       72.182       59.293     6005.480     5210.243     3515.609        1.840        0.737      147.255       52.614        0.128      335.578        6.304      869.571
01/12/2014  11:45:00      139.449       91.519       -4.009       59.694       48.331       38.196     3563.378     2335.855     1458.957        1.760        0.368      166.799       24.466        0.022      335.330        5.892      869.531
01/12/2014  11:46:00       70.273      102.497        7.246       67.560       44.541       40.956     4564.415     1983.867     1677.392        1.186        0.411      124.273       30.070        0.059      335.343        5.913      869.495
01/12/2014  11:47:00       86.538       53.911        1.621       71.340       49.140       45.753     5089.377     2414.751     2093.337        1.000        0.480      101.957       22.455        0.049      335.607        6.353      869.456
01/12/2014  11:48:00       64.309       79.758       68.909       62.513       54.030       54.736     3907.926     2919.201     2996.023        1.253        0.491      102.454       38.656        0.142      335.735        6.566      869.402
01/12/2014  11:49:00       61.799       51.455       42.755       66.715       51.716       47.766     4450.872     2674.501     2281.604        0.885        0.470       80.416       43.068        0.287      335.978        6.971      869.375
01/12/2014  11:50:00       53.736      107.998       -8.500       48.781       54.710       39.166     2379.551     2993.189     1533.995        1.076        0.345      120.629       35.404        0.086      336.021        7.044      869.360
01/12/2014  11:51:00      -19.121      139.091        1.143       39.178       70.389       42.676     1534.898     4954.596     1821.236        1.401        0.416      140.399       44.031        0.098      336.017        7.036      869.368
01/12/2014  11:52:00      -34.888       92.679        7.578       59.609       78.160       45.539     3553.256     6108.930     2073.802        1.080        0.587       99.028       37.882        0.146      336.162        7.279      869.369
01/12/2014  11:53:00       32.945      103.790        8.972      148.339      115.536       71.316    22004.542    13348.555     5086.003        2.618        2.022      108.893       61.363        0.318      335.870        6.790      869.313
01/12/2014  11:54:00     -274.754     -218.875       -3.232      158.796       99.323       60.049    25216.120     9865.031     3605.935        8.104        1.934      351.278       57.926        0.027      335.826        6.716      869.281
01/12/2014  11:55:00     -302.672     -168.813        4.430      122.723       78.193       61.608    15060.871     6114.175     3795.500        7.254        1.249      346.566       51.585        0.022      335.764        6.610      869.331
01/12/2014  11:56:00      -97.750      -86.932       24.322      127.640       79.687       50.349    16292.077     6350.081     2534.972        2.144        1.259      130.814       58.491        0.200      335.993        6.995      869.368
01/12/2014  11:57:00     -178.135     -218.660       -4.361       83.950       71.398       48.272     7047.593     5097.654     2330.219        4.702        0.724      282.036       39.749        0.020      335.579        6.302      869.372
01/12/2014  11:58:00     -163.774     -197.841       -2.367      144.784      103.518       58.912    20962.422    10715.976     3470.588        5.055        1.757      256.833       72.355        0.079      335.460        6.108      869.352
01/12/2014  11:59:00     -227.130     -202.043        0.169       93.708      103.858       55.811     8781.185    10786.382     3114.865        5.754        1.134      303.989       49.512        0.027      335.366        5.948      869.356
01/12/2014  12:00:00     -209.625     -151.558       -2.414      102.520       76.904       54.134    10510.399     5914.280     2930.446        4.313        0.968      258.674       57.308        0.049      335.335        5.897      869.350
01/12/2014  12:01:00     -254.872     -127.535      -20.956      111.100       94.289       51.092    12343.253     8890.398     2610.408        5.275        1.192      285.000       53.804        0.036      335.424        6.045      869.332
01/12/2014  12:02:00     -285.675     -189.727      -10.159      101.184       86.428       56.581    10238.282     7469.802     3201.456        6.931        1.045      342.938       49.611        0.021      335.324        5.879      869.321
01/12/2014  12:03:00     -163.014     -106.995        9.421       99.755       73.885       39.930     9951.146     5459.046     1594.382        2.755        0.850      194.991       47.691        0.060      335.389        5.986      869.307
01/12/2014  12:04:00      -87.185     -207.321       -3.705       56.273       68.506       31.422     3166.695     4693.074      987.343        2.972        0.442      224.907       35.057        0.024      335.220        5.705      869.281
01/12/2014  12:05:00      -93.379     -121.952        2.553       72.925       93.993       42.949     5318.019     8834.729     1844.637        1.980        0.800      153.597       43.954        0.082      335.435        6.063      869.243
01/12/2014  12:06:00     -132.453     -112.811       -8.643       61.967       55.612       41.104     3839.854     3092.696     1689.549        1.948        0.431      173.983       26.578        0.023      335.406        6.017      869.213
01/12/2014  12:07:00     -144.493      -95.357        0.008       83.528       64.031       42.802     6976.961     4099.933     1831.993        2.144        0.645      173.122       36.406        0.044      335.478        6.136      869.185
01/12/2014  12:08:00      -47.212      -51.870       -4.516       59.039       38.159       21.992     3485.618     1456.102      483.628        0.518        0.271       70.139       16.332        0.054      335.353        5.928      869.196
01/12/2014  12:09:00      -21.235       -3.486       10.345       47.184       53.646       35.782     2226.330     2877.877     1280.370        0.348        0.319       21.520       37.615        3.055      335.573        6.296      869.216
01/12/2014  12:10:00      -22.918      -13.321       18.677       41.339       27.905       24.678     1708.923      778.703      608.991        0.207        0.155       26.509       27.559        1.081      336.010        7.026      869.216
01/12/2014  12:11:00       14.629      -57.588        2.987       58.025       50.184       44.314     3366.957     2518.423     1963.742        0.569        0.392       59.417       38.834        0.427      336.009        7.024      869.212
01/12/2014  12:12:00      101.719     -118.282      -21.238       73.263       66.641       33.881     5367.424     4441.070     1147.907        1.787        0.548      156.005       35.418        0.052      335.745        6.584      869.222
01/12/2014  12:13:00       55.091     -132.853      -22.056       57.740       51.202       32.596     3333.954     2621.601     1062.488        1.409        0.351      143.822       29.781        0.043      335.652        6.426      869.243
01/12/2014  12:14:00       63.600     -156.300      -10.703       70.274       88.684       52.939     4938.499     7864.938     2802.532        2.209        0.780      168.744       31.120        0.034      335.824        6.713      869.266
01/12/2014  12:15:00       27.598       43.163       71.009       49.101       57.289       51.145     2410.940     3281.988     2615.771        0.799        0.415       51.232       41.308        0.650      336.050        7.093      869.280
01/12/2014  12:16:00       27.855      -36.905       -2.698       28.187       40.108       34.504      794.527     1608.663     1190.494        0.287        0.180       46.237       23.316        0.254      335.741        6.578      869.304
01/12/2014  12:17:00       38.588      -21.574       -0.034       24.268       38.142       27.872      588.950     1454.847      776.868        0.239        0.141       44.209       12.957        0.086      335.671        6.461      869.311
01/12/2014  12:18:00        7.460      -51.852       12.542       38.259       43.743       30.047     1463.728     1913.431      902.834        0.359        0.214       52.386       29.630        0.320      335.944        6.916      869.302
01/12/2014  12:19:00     -125.521      -28.532       -2.091      105.168       49.598       34.430    11060.347     2459.959     1185.457        1.564        0.735      128.723       23.900        0.034      335.804        6.679      869.282
01/12/2014  12:20:00     -247.088      -32.778      -27.114       86.815       62.438       29.590     7536.859     3898.493      875.590        3.758        0.616      249.253       31.066        0.016      335.442        6.077      869.247
01/12/2014  12:21:00     -117.096        4.567      -12.752       73.396       47.149       33.216     5386.951     2223.058     1103.310        1.130        0.436      117.185       34.641        0.087      336.017        7.037      869.224
01/12/2014  12:22:00      -64.760       98.823      -15.869       85.426       51.237       41.724     7297.566     2625.256     1740.923        1.294        0.583      118.152       39.667        0.113      335.730        6.557      869.230
01/12/2014  12:23:00      -39.494       28.298       -7.804       34.203       47.116       24.299     1169.850     2219.941      590.444        0.320        0.199       48.585       15.539        0.102      335.689        6.490      869.239
01/12/2014  12:24:00      -50.522       53.070        1.712       51.025       79.952       37.584     2603.563     6392.305     1412.585        0.789        0.520       73.273       37.664        0.264      336.010        7.026      869.234
01/12/2014  12:25:00     -101.167       -5.386       -7.320       94.276       61.708       42.898     8887.951     3807.878     1840.240        1.242        0.727      101.310       53.805        0.282      335.907        6.853      869.254
01/12/2014  12:26:00      -10.498      -85.730        4.747       28.367       44.895       29.560      804.701     2015.600      873.773        0.559        0.185       86.371       15.245        0.031      335.863        6.780      869.234
01/12/2014  12:27:00      -68.923      -33.394       -2.259       29.336       37.557       28.955      860.603     1410.491      838.375        0.449        0.155       76.587       18.216        0.057      335.782        6.647      869.190
01/12/2014  12:28:00     -164.780      -23.122      -17.837       79.302       74.152       34.843     6288.813     5498.550     1214.049        2.050        0.650      166.395       31.035        0.035      335.671        6.458      869.180
01/12/2014  12:29:00     -116.459       46.840       -9.323       88.694       70.747       45.164     7866.680     5005.162     2039.790        1.538        0.746      125.525       39.563        0.099      335.918        6.870      869.164
01/12/2014  12:30:00     -160.225      154.670      -30.164       93.112       98.130       51.884     8669.886     9629.577     2691.983        3.574        1.050      222.699       62.052        0.078      335.820        6.707      869.180
01/12/2014  12:31:00     -131.911      160.374      -18.101       94.680       86.185       54.520     8964.327     7427.922     2972.437        3.140        0.968      207.654       63.439        0.093      336.118        7.204      869.175
01/12/2014  12:32:00     -154.110      112.610      -23.724       68.335       91.099       51.072     4669.639     8298.937     2608.311        2.628        0.779      190.869       37.631        0.039      336.151        7.258      869.190
01/12/2014  12:33:00     -127.511      210.228      -27.340       38.019       60.998       38.126     1445.464     3720.788     1453.583        3.391        0.331      245.875       34.387        0.020      335.776        6.631      869.232
01/12/2014  12:34:00      -43.787      121.181      -16.574       46.041       49.143       33.007     2119.729     2415.064     1089.493        1.125        0.281      128.849       34.087        0.070      335.788        6.656      869.247
01/12/2014  12:35:00      -64.169      182.646      -21.256       48.059       76.818       43.775     2309.683     5900.943     1916.279        2.403        0.506      193.590       39.397        0.041      335.977        6.966      869.256
01/12/2014  12:36:00      -54.975      298.507      -36.516       51.768       77.418       40.035     2679.878     5993.611     1602.778        5.187        0.514      303.527       25.168        0.007      335.758        6.602      869.267
01/12/2014  12:37:00      -99.545      168.345      -37.780       73.388      100.255       37.825     5385.798    10051.090     1430.738        2.827        0.843      195.574       32.566        0.028      335.719        6.538      869.251
01/12/2014  12:38:00      -54.323      155.539      -14.035       50.103       77.437       39.841     2510.343     5996.464     1587.335        1.872        0.505      164.752       40.157        0.059      335.923        6.879      869.192
01/12/2014  12:39:00     -123.209      200.317      -33.621       59.430       59.267       39.621     3531.972     3512.531     1569.811        3.252        0.431      235.175       31.320        0.018      335.976        6.965      869.159
01/12/2014  12:40:00     -112.777      250.576      -26.755       82.719       84.952       52.463     6842.499     7216.775     2752.358        4.651        0.841      274.785       55.198        0.040      335.790        6.657      869.154
01/12/2014  12:41:00      -28.281      103.419       -7.296       49.077       58.681       44.122     2408.567     3443.411     1946.708        0.967        0.390      107.216       36.343        0.115      336.064        7.116      869.142
01/12/2014  12:42:00      -40.505      -11.065        8.835       59.401       51.075       34.468     3528.480     2608.637     1188.075        0.458        0.366       41.989       29.943        0.509      336.113        7.196      869.130
01/12/2014  12:43:00        2.614       29.018       21.016       35.933       34.831       25.850     1291.176     1213.193      668.207        0.223        0.159       29.136       14.352        0.243      336.400        7.676      869.119
01/12/2014  12:44:00       22.910      138.269       -1.592       58.267      155.146       50.754     3395.094    24070.368     2575.932        2.484        1.502      140.154       78.471        0.313      336.272        7.462      869.141
01/12/2014  12:45:00      -70.039      139.845       -1.288       89.699       81.403       53.083     8045.843     6626.451     2817.801        2.097        0.875      156.404       48.257        0.095      336.225        7.382      869.178
01/12/2014  12:46:00       -9.765      175.896      -13.325       54.099      104.614       43.885     2926.731    10944.106     1925.876        2.350        0.790      176.167       41.954        0.057      335.865        6.781      869.215
01/12/2014  12:47:00       32.617      112.429       -4.819       69.028       46.553       32.997     4764.910     2167.197     1088.794        1.087        0.401      117.065       36.762        0.099      335.768        6.621      869.226
01/12/2014  12:48:00      142.730      119.539       16.226      107.612       84.573       62.495    11580.375     7152.593     3905.577        2.878        1.132      186.176       52.889        0.081      335.901        6.841      869.203
01/12/2014  12:49:00       84.253      186.516      -13.606      105.386      101.983       76.998    11106.121    10400.443     5928.695        3.475        1.372      204.663       56.902        0.077      335.936        6.898      869.150
01/12/2014  12:50:00       85.981      202.383      -13.846       79.849      101.829       61.021     6375.887    10369.173     3723.544        3.450        1.023      219.890       63.992        0.085      336.008        7.019      869.131
01/12/2014  12:51:00       40.040      182.290      -25.526       54.409       98.275       57.830     2960.334     9657.998     3344.279        2.572        0.798      186.636       56.589        0.092      335.787        6.651      869.132
01/12/2014  12:52:00       48.053      137.730      -16.680       54.931       70.917       43.118     3017.425     5029.269     1859.158        1.573        0.495      145.872       33.545        0.053      335.954        6.931      869.145
01/12/2014  12:53:00       -5.853      101.079       -4.688       62.009       64.344       39.719     3845.138     4140.131     1577.621        0.992        0.478      101.249       33.500        0.109      336.069        7.123      869.167
01/12/2014  12:54:00       19.528       60.724        3.425       41.080       45.885       23.920     1687.558     2105.415      572.186        0.422        0.218       63.787       22.440        0.124      335.970        6.958      869.152
01/12/2014  12:55:00      -26.079       77.913       -2.508       52.621       47.159       27.151     2769.006     2223.928      737.161        0.624        0.287       82.161       28.934        0.124      336.179        7.307      869.141
01/12/2014  12:56:00      -43.402       50.696        8.200       48.580       44.268       33.845     2360.008     1959.629     1145.510        0.499        0.273       66.737       35.549        0.284      336.287        7.489      869.125
01/12/2014  12:57:00      -79.532      113.267      -19.462       47.083       52.576       29.788     2216.777     2764.282      887.311        1.270        0.293      138.401       26.995        0.038      335.856        6.768      869.101
01/12/2014  12:58:00      -10.950      105.231      -15.625       21.316       28.666       26.267      454.359      821.748      689.979        0.670        0.098      105.800        7.586        0.005      335.806        6.686      869.064
01/12/2014  12:59:00       -0.827       72.489      -13.095       28.094       50.577       27.578      789.286     2557.995      760.532        0.477        0.205       72.493       16.003        0.049      335.850        6.759      869.040
01/12/2014  13:00:00        9.438      118.127      -12.317       36.802       44.357       29.851     1354.370     1967.509      891.078        0.920        0.211      118.503       24.156        0.042      335.894        6.832      869.037
01/12/2014  13:01:00      -51.147       -1.770       -3.917       54.994       35.782       29.238     3024.337     1280.380      854.864        0.390        0.258       51.178       21.390        0.175      336.165        7.284      869.046
01/12/2014  13:02:00      -25.979       96.455       -2.374       53.937       50.430       29.468     2909.247     2543.179      868.343        0.815        0.316       99.892       24.584        0.061      336.354        7.600      869.048
01/12/2014  13:03:00      -29.972      231.512      -29.498       84.870      101.347       47.197     7202.935    10271.162     2227.537        3.753        0.985      233.444       45.657        0.038      336.120        7.205      869.024
01/12/2014  13:04:00     -114.888      251.922      -37.719       98.898       85.340       45.368     9780.770     7282.945     2058.251        4.860        0.956      276.882       50.051        0.033      335.962        6.941      869.019
01/12/2014  13:05:00     -141.124       95.960      -13.833       70.142       55.735       43.745     4919.837     3106.342     1913.613        1.963        0.497      170.658       37.651        0.049      336.101        7.174      869.043
01/12/2014  13:06:00      -71.840      144.109      -25.052       64.958       79.449       41.926     4219.538     6312.082     1757.798        1.942        0.614      161.023       53.128        0.109      335.981        6.977      869.064
01/12/2014  13:07:00       15.854      229.443      -22.505       32.155      110.111       40.987     1033.923    12124.361     1679.966        3.412        0.742      229.991       56.328        0.060      335.749        6.588      869.058
01/12/2014  13:08:00       14.315       86.113        7.543       27.209       55.467       38.021      740.356     3076.639     1445.617        0.647        0.263       87.295       34.494        0.156      336.012        7.029      869.050
01/12/2014  13:09:00        3.471       98.789       -8.498       21.396       52.474       28.020      457.785     2753.517      785.097        0.692        0.200       98.850       31.044        0.099      335.960        6.943      869.056
01/12/2014  13:10:00       -3.319       99.781      -11.445       39.549       51.630       30.864     1564.104     2665.683      952.565        0.764        0.259       99.836       31.154        0.097      336.007        7.021      869.076
01/12/2014  13:11:00      -39.280      310.806      -45.861       69.138      129.677       48.840     4780.111    16816.177     2385.302        6.211        1.199      313.278       52.595        0.028      335.962        6.943      869.075
01/12/2014  13:12:00     -168.024      266.585      -37.488       86.922      139.479       55.934     7555.382    19454.492     3128.591        6.542        1.507      315.119       49.310        0.024      335.987        6.984      869.091
01/12/2014  13:13:00     -180.361      190.770      -43.016       89.995      102.618       47.229     8099.136    10530.472     2230.613        4.581        1.043      262.532       54.753        0.043      335.925        6.880      869.062
01/12/2014  13:14:00     -153.136      171.612      -37.174       61.900       64.508       38.483     3831.647     4161.290     1480.974        3.188        0.474      230.003       38.580        0.028      336.044        7.079      869.027
01/12/2014  13:15:00     -126.491      171.672      -44.825       54.109       57.426       30.103     2927.740     3297.784      906.166        2.730        0.357      213.240       29.381        0.019      335.889        6.823      868.967
01/12/2014  13:16:00      -89.411      111.449       -6.397       57.017       87.634       35.123     3250.920     7679.648     1233.591        1.631        0.608      142.882       37.540        0.069      336.262        7.443      868.926
01/12/2014  13:17:00       -1.008       44.131       18.292       50.472       46.037       36.792     2547.436     2119.364     1353.634        0.415        0.301       44.142       15.191        0.118      336.464        7.784      868.921
01/12/2014  13:18:00      -39.843      164.737       -2.111       63.402       77.828       42.124     4019.759     6057.189     1774.440        2.029        0.593      169.487       37.399        0.049      336.386        7.652      868.935
01/12/2014  13:19:00     -181.592      170.574      -37.329       85.507      110.910       50.269     7311.432    12300.940     2526.995        4.280        1.107      249.141       64.556        0.067      336.181        7.306      868.956
01/12/2014  13:20:00     -128.576      115.956      -29.923       86.968       66.384       38.450     7563.479     4406.893     1478.373        2.216        0.672      173.141       40.905        0.056      336.043        7.078      868.955
01/12/2014  13:21:00      -66.003      107.659      -16.581       34.115       38.074       26.213     1163.820     1449.635      687.107        0.976        0.165      126.281       17.330        0.019      336.036        7.068      868.962
01/12/2014  13:22:00      -31.638       71.532       -6.745       40.768       29.097       29.934     1662.059      846.644      896.042        0.478        0.170       78.217       23.659        0.091      336.264        7.450      868.985
01/12/2014  13:23:00      -51.665      171.906      -13.510       49.481       81.393       37.385     2448.350     6624.871     1397.665        2.144        0.524      179.502       44.710        0.062      336.326        7.551      869.042
01/12/2014  13:24:00       11.094      361.144      -41.198       94.611      146.771       74.520     8951.165    21541.714     5553.277        8.414        1.802      361.315       88.942        0.061      336.434        7.730      869.073
01/12/2014  13:25:00     -163.970      366.510      -53.572      110.156       91.935       62.248    12134.442     8452.106     3874.764        9.427        1.223      401.516       50.083        0.016      336.206        7.350      869.157
01/12/2014  13:26:00       25.622      417.240      -38.611       79.024      166.939       78.015     6244.851    27868.539     6086.303       10.821        2.010      418.026       86.275        0.043      336.176        7.299      869.195
01/12/2014  13:27:00     -142.458      262.383      -24.924      101.348      135.806       69.239    10271.516    18443.299     4793.997        6.163        1.675      298.562       77.890        0.068      336.178        7.302      869.246
01/12/2014  13:28:00     -165.395      224.999      -33.422       95.211      112.915       57.361     9065.109    12749.716     3290.264        5.210        1.255      279.249       54.530        0.038      336.149        7.254      869.281
01/12/2014  13:29:00      -90.560      176.885      -31.539       95.272       68.517       40.662     9076.691     4694.605     1653.362        2.795        0.771      198.720       46.899        0.056      336.236        7.400      869.283
01/12/2014  13:30:00     -165.266      197.220      -26.330      130.785      124.890       63.359    17104.720    15597.550     4014.353        5.180        1.836      257.310       67.180        0.068      336.287        7.485      869.300
01/12/2014  13:31:00     -265.895      150.897      -58.512      100.781      166.343       63.667    10156.784    27670.159     4053.479        6.938        2.094      305.729       72.340        0.056      336.022        7.041      869.296
01/12/2014  13:32:00      -93.854      243.820      -40.196      117.247      116.060       48.749    13746.757    13469.956     2376.508        4.973        1.480      261.260       58.423        0.050      336.119        7.205      869.331
01/12/2014  13:33:00      -99.471      166.178      -14.461       67.158      122.984       49.694     4510.134    15125.114     2469.518        2.991        1.105      193.674       53.518        0.076      336.306        7.518      869.359
01/12/2014  13:34:00     -111.390      182.710      -18.539       77.659       97.851       47.681     6030.906     9574.793     2273.506        3.200        0.894      213.988       31.040        0.021      336.283        7.477      869.376
01/12/2014  13:35:00        3.748      262.618      -47.172       67.770       84.896       49.383     4592.741     7207.400     2438.710        4.272        0.712      262.644       46.373        0.031      336.225        7.381      869.413
01/12/2014  13:36:00       40.571      242.851      -23.966       97.534      108.649       63.091     9512.959    11804.569     3980.454        4.324        1.265      246.216       60.002        0.059      336.351        7.590      869.430
01/12/2014  13:37:00      -16.270      217.422      -16.822      120.204      136.528       63.861    14448.929    18640.007     4078.194        4.249        1.858      218.030       55.711        0.065      336.172        7.293      869.432
01/12/2014  13:38:00     -122.411      304.326      -27.733       93.295      116.520       65.433     8703.901    13576.863     4281.497        6.746        1.328      328.022       59.517        0.033      336.153        7.260      869.468
01/12/2014  13:39:00     -127.605      264.436      -40.129       76.003      107.155       49.518     5776.443    11482.154     2452.016        5.376        0.986      293.614       29.656        0.010      336.014        7.027      869.499
01/12/2014  13:40:00     -153.870      323.611      -45.438      110.159      125.043       71.712    12134.939    15635.705     5142.579        8.168        1.646      358.330       60.993        0.029      336.007        7.016      869.526
01/12/2014  13:41:00      -67.712      393.994      -36.904       82.293      123.570       55.738     6772.073    15269.522     3106.695        9.316        1.257      399.770       63.443        0.025      336.016        7.031      869.562
01/12/2014  13:42:00      -59.148      226.129      -23.409       54.502       93.131       37.802     2970.502     8673.348     1428.957        3.412        0.654      233.737       34.393        0.022      335.995        6.997      869.569
01/12/2014  13:43:00      -42.311      228.301      -26.441       83.165       94.193       39.159     6916.353     8872.262     1533.444        3.596        0.866      232.188       43.596        0.035      335.985        6.981      869.551
01/12/2014  13:44:00      -46.157      248.880      -24.475      109.704      136.332       66.678    12034.984    18586.491     4446.006        4.986        1.753      253.124       64.545        0.065      336.115        7.197      869.539
01/12/2014  13:45:00       79.127      350.462      -50.913       71.949      179.423       76.016     5176.698    32192.477     5778.388        8.741        2.157      359.284       86.046        0.057      336.059        7.104      869.567
01/12/2014  13:46:00      -34.615      314.070      -29.322       86.540      102.588       65.968     7489.249    10524.212     4351.729        6.153        1.118      315.972       54.600        0.030      335.931        6.890      869.586
01/12/2014  13:47:00     -157.453      155.528      -16.998       95.458       83.486       60.076     9112.288     6969.925     3609.112        3.448        0.985      221.315       52.007        0.055      336.119        7.204      869.604
01/12/2014  13:48:00      -19.940       92.261        4.317       49.063       60.016       36.896     2407.221     3601.973     1361.292        0.815        0.369       94.391       34.713        0.135      336.341        7.576      869.637
01/12/2014  13:49:00       95.076      153.168        5.707       97.346      105.322       52.755     9476.333    11092.748     2783.037        2.794        1.168      180.277       58.847        0.107      336.237        7.402      869.677
01/12/2014  13:50:00       26.813      291.242      -36.387       66.375      163.125       53.225     4405.597    26609.689     2832.850        6.035        1.692      292.474       75.127        0.066      336.142        7.244      869.732
01/12/2014  13:51:00      -21.534      330.019      -47.075       68.049       74.610       43.137     4630.674     5566.712     1860.831        6.182        0.603      330.721       39.444        0.014      336.156        7.266      869.763
01/12/2014  13:52:00       56.504      204.901      -12.310       86.685      126.697       73.867     7514.296    16052.059     5456.399        3.717        1.451      212.549       78.615        0.137      336.204        7.346      869.805
01/12/2014  13:53:00       86.378      113.016        2.301       91.698       70.862       52.585     8408.438     5021.397     2765.219        1.821        0.810      142.246       43.360        0.093      336.250        7.425      869.819
01/12/2014  13:54:00      178.447      136.438        1.805      110.588       76.683       64.660    12229.664     5880.242     4180.900        3.637        1.115      224.630       37.263        0.028      336.271        7.458      869.833
01/12/2014  13:55:00      211.035      188.297       16.869      169.321      137.665       86.362    28669.581    18951.783     7458.366        6.767        2.754      282.828       70.401        0.062      336.187        7.317      869.851
01/12/2014  13:56:00      166.112      191.031       22.337      132.297      127.946       86.868    17502.572    16370.153     7546.018        5.300        2.071      253.153       78.983        0.097      336.229        7.388      869.885
01/12/2014  13:57:00      280.158      213.410       33.686      150.621      122.216      105.800    22686.813    14936.748    11193.726        8.698        2.441      352.183       58.498        0.028      336.110        7.189      869.896
01/12/2014  13:58:00      113.973      182.405       -5.416      130.995      128.598       96.346    17159.717    16537.488     9282.607        4.463        2.149      215.085       84.070        0.153      336.077        7.134      869.925
01/12/2014  13:59:00      113.050      274.955      -20.914      174.147      149.573       82.635    30327.293    22372.095     6828.539        7.416        2.976      297.288       63.530        0.046      336.037        7.067      869.931
01/12/2014  14:00:00       58.213      191.324       -6.683       96.572      175.706       76.536     9326.141    30872.592     5857.770        4.304        2.303      199.984       94.339        0.223      336.207        7.354      869.935
01/12/2014  14:01:00      104.195      257.173        4.611      139.557      178.539      120.572    19476.163    31876.260    14537.667        7.144        3.295      277.479      102.413        0.136      336.043        7.078      869.929
01/12/2014  14:02:00       99.732      320.651      -16.956      112.832      235.648      120.123    12731.003    55529.802    14429.624        9.786        4.135      335.803      139.756        0.173      335.831        6.725      869.969
01/12/2014  14:03:00       60.370      223.950       -9.242       89.494      124.312       72.326     8009.118    15453.509     5231.068        4.128        1.435      231.944       73.272        0.100      335.931        6.890      869.990
01/12/2014  14:04:00      113.009      137.086        4.551      130.173      100.952       66.619    16944.976    10191.259     4438.047        3.157        1.579      177.661       54.163        0.093      335.993        6.994      869.968
01/12/2014  14:05:00      157.494      160.208        2.744      128.380       89.374       75.037    16481.484     7987.664     5630.504        4.028        1.505      224.657       49.763        0.049      335.927        6.884      869.977
01/12/2014  14:06:00       28.676      130.725        6.493      112.791       90.331       61.210    12721.704     8159.650     3746.659        2.129        1.231      133.833       63.470        0.225      336.201        7.343      869.975
01/12/2014  14:07:00      -78.188      522.235      -64.437       69.644      127.401       50.377     4850.278    16231.010     2537.829       15.330        1.181      528.055       46.086        0.008      335.954        6.928      869.991
01/12/2014  14:08:00      -89.515      394.145      -47.156      107.794      105.344       53.583    11619.514    11097.430     2871.134        9.558        1.279      404.183       41.656        0.011      335.886        6.815      870.008
01/12/2014  14:09:00      -18.503      450.141      -60.373       52.643       72.867       27.206     2771.328     5309.598      740.181       10.772        0.441      450.521       25.524        0.003      335.582        6.309      869.990
01/12/2014  14:10:00     -112.788      237.899      -31.085       59.145       88.574       51.102     3498.153     7845.341     2611.409        4.212        0.698      263.281       47.136        0.032      335.817        6.701      869.955
01/12/2014  14:11:00     -136.228      191.177      -27.923       87.610       90.620       61.627     7675.469     8211.915     3797.933        3.778        0.984      234.749       53.996        0.053      336.060        7.106      869.956
01/12/2014  14:12:00      -43.381      335.422      -41.818       92.455      107.280       46.462     8547.869    11508.961     2158.710        6.917        1.111      338.216       49.923        0.022      335.960        6.940      869.983
01/12/2014  14:13:00       14.162      203.369       -7.372       60.919       98.929       61.293     3711.180     9786.957     3756.815        2.943        0.863      203.861       63.692        0.098      335.900        6.838      869.999
01/12/2014  14:14:00      -41.970      261.746      -17.303      101.424       98.917       55.407    10286.836     9784.544     3069.889        4.685        1.157      265.090       50.000        0.036      335.993        6.992      869.986
01/12/2014  14:15:00      -74.738      235.850      -24.249       82.158      131.054       53.361     6749.892    17175.139     2847.390        4.428        1.339      247.408       60.710        0.060      336.047        7.083      869.976
01/12/2014  14:16:00       32.039      322.310      -25.571       95.750      141.335       60.725     9167.989    19975.675     3687.573        6.919        1.642      323.899       73.897        0.052      335.704        6.511      869.975
01/12/2014  14:17:00      -73.707      305.255      -38.438       61.475       97.522       41.108     3779.134     9510.483     1689.872        5.753        0.749      314.028       40.456        0.017      335.741        6.575      869.961
01/12/2014  14:18:00      -25.544      292.356      -28.063       48.679       73.633       37.932     2369.628     5421.791     1438.860        4.807        0.462      293.470       33.663        0.013      335.873        6.792      869.956
01/12/2014  14:19:00      -32.550      202.638      -29.991       57.788       84.916       29.649     3339.424     7210.772      879.059        2.722        0.571      205.236       31.531        0.024      335.969        6.956      869.967
01/12/2014  14:20:00       98.459      115.689       24.326       90.590       87.134       79.997     8206.635     7592.356     6399.441        2.293        1.110      151.915       41.066        0.073      335.974        6.964      869.984
01/12/2014  14:21:00      -41.387       88.639       -8.991       91.556       84.223       51.038     8382.592     7093.451     2604.862        1.386        0.904       97.825       49.838        0.260      336.149        7.256      869.969
01/12/2014  14:22:00      -93.990      270.434      -40.663       55.370      131.809       41.431     3065.839    17373.656     1716.487        5.289        1.108      286.302       43.690        0.023      336.037        7.067      869.975
01/12/2014  14:23:00       29.825      245.429      -23.056      108.305      147.766       72.596    11729.928    21834.897     5270.173        5.024        1.942      247.235       82.740        0.112      336.064        7.112      869.955
01/12/2014  14:24:00       10.073      181.560      -10.464      103.169      123.078       56.487    10643.743    15148.230     3190.786        3.107        1.449      181.839       59.542        0.107      336.302        7.512      869.946
01/12/2014  14:25:00       35.155      191.977        6.974       82.165      118.855       67.884     6751.051    14126.401     4608.199        3.181        1.274      195.169       69.735        0.128      335.937        6.901      869.945
01/12/2014  14:26:00      -15.387      339.405      -23.415       85.392      137.773       68.941     7291.769    18981.500     4752.883        7.350        1.551      339.754       75.912        0.050      335.940        6.905      869.935
01/12/2014  14:27:00       17.759      198.312       -6.715       71.693      139.781       63.287     5139.856    19538.723     4005.291        3.418        1.434      199.106       63.789        0.103      335.935        6.898      869.947
01/12/2014  14:28:00       11.504      259.928      -28.109       61.885      111.388       56.702     3829.795    12407.299     3215.162        4.397        0.973      260.183       55.080        0.045      335.843        6.742      869.960
01/12/2014  14:29:00      -10.526      125.449       -2.842       66.885      117.879       44.618     4473.656    13895.498     1990.722        1.810        1.018      125.890       52.503        0.174      335.982        6.978      869.959
01/12/2014  14:30:00       40.928       74.854       14.824       92.173       80.595       52.200     8495.899     6495.501     2724.826        1.260        0.886       85.312       45.431        0.284      336.142        7.245      869.984
01/12/2014  14:31:00      -38.709      120.153      -13.160       65.616       67.502       36.133     4305.435     4556.459     1305.627        1.314        0.508      126.234       30.827        0.060      336.257        7.436      870.000
01/12/2014  14:32:00      -38.575      184.279      -15.649       71.124      110.763       49.083     5058.587    12268.479     2409.161        2.771        0.987      188.273       52.146        0.077      336.153        7.262      870.025
01/12/2014  14:33:00      -39.802      241.887      -27.985       63.630      106.897       52.629     4048.789    11426.910     2769.852        3.956        0.912      245.140       37.204        0.023      336.218        7.369      870.044
01/12/2014  14:34:00      -80.653      204.040      -11.079       87.926       90.445       59.951     7730.958     8180.311     3594.121        3.388        0.975      219.402       59.069        0.072      336.285        7.481      870.085
01/12/2014  14:35:00     -123.394      242.153      -36.402       76.786       71.965       51.317     5896.016     5178.927     2633.394        4.445        0.685      271.779       37.013        0.019      335.964        6.945      870.119
01/12/2014  14:36:00      -71.493      203.200      -20.667       80.910       90.707       51.406     6546.478     8227.818     2642.592        3.212        0.871      215.410       49.089        0.052      336.141        7.239      870.153
01/12/2014  14:37:00      -30.046      238.557      -34.623       63.244       89.264       36.087     3999.815     7968.120     1302.246        3.614        0.664      240.442       39.368        0.027      336.053        7.093      870.196
01/12/2014  14:38:00      -97.358      193.796      -26.523       72.153       66.589       43.936     5205.990     4434.118     1930.396        2.965        0.579      216.877       33.316        0.024      336.128        7.219      870.228
01/12/2014  14:39:00      -91.169      305.663      -43.824       80.713      124.612       51.345     6514.650    15528.239     2636.279        6.417        1.234      318.970       38.654        0.015      335.949        6.921      870.256
01/12/2014  14:40:00      -82.339      278.218      -28.562       83.405      143.939       51.292     6956.317    20718.473     2630.895        5.765        1.515      290.146       65.359        0.051      335.969        6.954      870.253
01/12/2014  14:41:00      -84.042      246.832      -10.751       95.677      123.807       56.435     9154.045    15328.248     3184.857        4.788        1.383      260.747       63.092        0.059      335.983        6.976      870.272
01/12/2014  14:42:00       68.520      161.241       11.741       91.314      118.892       77.804     8338.290    14135.391     6053.392        2.967        1.426      175.196       76.468        0.191      335.993        6.997      870.268
01/12/2014  14:43:00       56.252      188.305        0.655       77.994      114.258       75.033     6083.009    13054.965     5629.933        3.169        1.238      196.528       72.615        0.137      335.979        6.970      870.255
01/12/2014  14:44:00       39.998      255.515      -16.393      109.194      105.160       65.484    11923.277    11058.657     4288.181        4.721        1.364      258.626       64.526        0.062      335.912        6.857      870.250
01/12/2014  14:45:00      -42.384      133.289       -5.682       74.160       85.532       50.341     5499.666     7315.792     2534.195        1.747        0.767      139.866       45.910        0.108      336.248        7.421      870.251
01/12/2014  14:46:00       24.954      218.998       10.208      174.975      144.968       82.977    30616.355    21015.865     6885.232        5.359        2.926      220.415       95.674        0.188      336.147        7.250      870.251
01/12/2014  14:47:00      -56.902      298.690      -32.708      109.837      156.746       61.374    12064.169    24569.400     3766.820        6.696        2.020      304.062       66.154        0.047      336.083        7.143      870.287
01/12/2014  14:48:00       -4.568      377.663      -43.845       67.174      158.109       53.144     4512.341    24998.358     2824.239        8.845        1.617      377.690       68.674        0.033      335.796        6.664      870.326
01/12/2014  14:49:00      -43.393      305.091      -38.403       70.234       67.355       38.052     4932.763     4536.700     1447.962        5.368        0.546      308.161       32.314        0.011      335.766        6.614      870.340
01/12/2014  14:50:00      -11.814      305.295      -29.484       68.528      102.207       56.536     4696.125    10446.178     3196.329        5.627        0.917      305.523       55.701        0.033      335.841        6.739      870.361
01/12/2014  14:51:00      -63.647      291.667      -44.522       77.238      125.175       43.942     5965.743    15668.854     1930.917        5.733        1.178      298.530       44.971        0.023      336.031        7.057      870.411
01/12/2014  14:52:00      -55.953      123.863       -6.457       57.338       87.497       35.244     3287.655     7655.656     1242.138        1.535        0.609      135.915       30.185        0.049      336.260        7.441      870.482
01/12/2014  14:53:00     -147.065       75.576      -20.506       80.898       78.428       38.542     6544.431     6150.875     1485.486        2.097        0.709      165.348       40.098        0.059      336.100        7.173      870.556
01/12/2014  14:54:00      -52.249       69.156        0.713       50.440       52.487       33.546     2544.213     2754.872     1125.341        0.697        0.321       86.675       22.382        0.067      336.233        7.399      870.612
01/12/2014  14:55:00      -48.155      162.512      -11.875       69.508       76.811       46.577     4831.335     5899.908     2169.421        2.088        0.645      169.496       52.540        0.096      336.067        7.119      870.652
01/12/2014  14:56:00      -10.224      158.264        2.400       56.455      140.023       57.435     3187.215    19606.312     3298.819        2.562        1.305      158.594       74.255        0.219      336.014        7.030      870.637
01/12/2014  14:57:00      -36.329       25.957       26.944       88.098       43.662       48.662     7761.217     1906.349     2367.991        0.738        0.602       44.649       57.095        1.635      336.229        7.392      870.581
01/12/2014  14:58:00      -36.660       94.476      -11.556       75.589       66.451       51.861     5713.760     4415.797     2689.610        1.161        0.641      101.340       40.444        0.159      336.157        7.269      870.563
01/12/2014  14:59:00       11.114      373.056      -50.970       87.372      123.569       58.171     7633.891    15269.194     3383.875        8.409        1.314      373.222       51.401        0.019      335.820        6.704      870.575
01/12/2014  15:00:00      -95.468      256.508      -28.902       86.311      126.749       43.215     7449.666    16065.308     1867.535        5.056        1.269      273.698       56.568        0.043      335.944        6.913      870.592
01/12/2014  15:01:00      -12.101      210.457      -27.582       89.522      140.487       45.788     8014.197    19736.511     2096.501        3.752        1.492      210.805       63.022        0.089      335.959        6.938      870.599
01/12/2014  15:02:00      -62.967      194.820      -30.408       59.025       64.107       32.771     3483.931     4109.670     1073.923        2.575        0.433      204.743       35.247        0.030      335.951        6.923      870.586
01/12/2014  15:03:00      -53.878       99.857      -10.451       48.190       70.193       44.009     2322.293     4927.041     1936.755        1.108        0.459      113.465       33.719        0.088      336.189        7.323      870.564
01/12/2014  15:04:00       -8.275      159.971      -13.179       46.004       93.379       41.629     2116.374     8719.598     1732.978        1.920        0.628      160.185       51.786        0.105      336.065        7.115      870.556
01/12/2014  15:05:00      -84.069      179.265      -19.583       70.117       82.524       42.673     4916.375     6810.188     1820.948        2.656        0.677      197.999       47.337        0.057      336.041        7.076      870.540
01/12/2014  15:06:00       -6.176       98.691        9.543       71.536       50.866       48.854     5117.458     2587.362     2386.674        0.998        0.505       98.884       50.281        0.259      336.142        7.245      870.530
01/12/2014  15:07:00      -17.858       47.978       -2.146       59.728       71.522       39.841     3567.400     5115.456     1587.309        0.645        0.514       51.194       37.996        0.551      336.211        7.361      870.510
01/12/2014  15:08:00      -45.137       42.583      -21.156       68.457       57.066       27.057     4686.398     3256.506      732.057        0.649        0.434       62.054       17.734        0.082      336.139        7.240      870.493
01/12/2014  15:09:00       30.330       93.212        9.862       50.712      118.697       50.954     2571.705    14089.034     2596.264        1.448        0.963       98.023       54.498        0.309      336.172        7.296      870.503
01/12/2014  15:10:00      111.642      150.526       -3.117       84.378      104.520       49.541     7119.676    10924.411     2454.294        2.781        1.025      187.409       48.340        0.067      335.766        6.615      870.505
01/12/2014  15:11:00       22.003      151.102       -0.212       93.980      120.442       50.387     8832.324    14506.207     2538.891        2.459        1.294      152.695       61.767        0.164      335.899        6.839      870.492
01/12/2014  15:12:00       67.805      133.664       11.029       75.701       97.823       60.478     5730.632     9569.330     3657.640        2.077        0.948      149.879       62.735        0.175      336.027        7.053      870.496
01/12/2014  15:13:00       63.860      121.753       -0.623      108.018       95.381       62.460    11667.947     9097.556     3901.289        2.178        1.233      137.485       63.568        0.214      336.053        7.096      870.490
01/12/2014  15:14:00      -32.369       81.549        1.079       39.967       85.062       31.167     1597.386     7235.520      971.410        0.875        0.490       87.738       36.366        0.172      336.145        7.250      870.518
01/12/2014  15:15:00      -16.026      144.043      -22.102       48.295       76.173       32.600     2332.385     5802.265     1062.737        1.534        0.460      144.932       38.662        0.071      336.079        7.139      870.511
01/12/2014  15:16:00        3.826      245.496      -29.610       56.078       63.521       40.011     3144.789     4034.932     1600.873        3.497        0.439      245.526       35.897        0.021      335.964        6.943      870.525
01/12/2014  15:17:00       -9.142      146.342        1.624       59.001      103.512       49.841     3481.132    10714.710     2484.148        1.909        0.834      146.628       51.091        0.121      336.127        7.219      870.542
01/12/2014  15:18:00      -37.661      246.341      -28.475       64.445       89.807       44.110     4153.170     8065.223     1945.707        3.854        0.708      249.204       44.609        0.032      335.909        6.854      870.549
01/12/2014  15:19:00       -6.442      100.555        1.748       77.328       63.159       48.741     5979.648     3989.089     2375.677        1.125        0.617      100.761       37.343        0.137      336.062        7.111      870.563
01/12/2014  15:20:00       31.948      136.465        6.848      117.413       80.409       61.184    13785.928     6465.637     3743.515        2.184        1.200      140.154       65.636        0.219      336.076        7.133      870.567
01/12/2014  15:21:00       -9.801      197.619      -35.582       54.065       83.860       30.814     2923.063     7032.568      949.493        2.566        0.545      197.862       29.423        0.022      335.975        6.964      870.587
01/12/2014  15:22:00      -23.324      101.489       -9.221       47.409       84.116       31.816     2247.636     7075.450     1012.228        1.063        0.517      104.135       19.116        0.034      336.079        7.139      870.571
01/12/2014  15:23:00      -75.523      178.225      -25.977       41.738       86.540       32.350     1742.025     7489.195     1046.523        2.421        0.514      193.566       35.130        0.033      335.957        6.935      870.560
01/12/2014  15:24:00        9.974      191.119      -22.934       37.527       92.843       45.446     1408.310     8619.755     2065.357        2.462        0.605      191.379       52.886        0.076      335.790        6.655      870.541
01/12/2014  15:25:00       30.550       42.015       13.240       50.711       52.569       30.978     2571.584     2763.498      959.649        0.458        0.315       51.947       22.285        0.184      335.961        6.944      870.521
01/12/2014  15:26:00       -3.444       93.113       -0.351       76.030       59.793       46.240     5780.541     3575.224     2138.174        1.009        0.575       93.176       53.862        0.334      335.990        6.992      870.525
01/12/2014  15:27:00       27.628      125.725      -15.171       45.869       56.930       36.136     2103.960     3241.025     1305.844        1.172        0.333      128.725       35.193        0.075      335.908        6.853      870.532
01/12/2014  15:28:00       41.940      100.186       -0.997       47.400       67.283       47.458     2246.800     4526.999     2252.309        1.041        0.451      108.610       33.162        0.093      335.974        6.965      870.510
01/12/2014  15:29:00       63.369      152.332      -13.701       69.496       84.408       59.133     4829.697     7124.782     3496.665        2.143        0.773      164.987       51.657        0.098      335.975        6.966      870.501
01/12/2014  15:30:00      -37.397      212.484      -31.245       65.051       59.949       28.695     4231.623     3593.868      823.377        2.809        0.432      215.750       26.262        0.015      335.932        6.891      870.523
01/12/2014  15:31:00      -72.921      151.023      -19.240       62.853       87.082       38.322     3950.516     7583.208     1468.581        2.075        0.650      167.706       50.389        0.090      335.936        6.899      870.545
01/12/2014  15:32:00      -80.169      149.399      -17.268      100.071       82.701       44.370    10014.157     6839.418     1968.683        2.393        0.941      169.550       41.788        0.061      335.930        6.889      870.546
01/12/2014  15:33:00      -16.614      229.181      -26.428      110.559       98.618       54.570    12223.394     9725.565     2977.907        3.921        1.246      229.782       54.397        0.056      335.845        6.746      870.572
01/12/2014  15:34:00       48.432      130.440       -2.542       58.685       87.049       54.801     3443.971     7577.458     3003.157        1.669        0.701      139.142       55.214        0.157      335.926        6.883      870.580
01/12/2014  15:35:00        3.356      205.185      -30.204       50.470       77.654       41.725     2547.250     6030.092     1740.936        2.667        0.516      205.213       40.454        0.039      335.842        6.741      870.560
01/12/2014  15:36:00       16.740      100.439        2.919       72.475       67.551       42.960     5252.676     4563.125     1845.592        1.102        0.583      101.824       31.640        0.097      335.949        6.923      870.555
01/12/2014  15:37:00     -113.317       65.115      -24.276       58.734       63.731       33.223     3449.669     4061.646     1103.765        1.314        0.431      130.693       23.796        0.033      336.185        7.317      870.572
01/12/2014  15:38:00     -140.935      -42.383      -16.266      127.234       73.993       49.678    16188.449     5475.026     2467.861        2.302        1.207      147.170       63.234        0.185      336.068        7.119      870.578
01/12/2014  15:39:00      -17.572       10.431       19.674       36.304       45.884       27.427     1317.990     2105.381      752.246        0.249        0.209       20.435       24.022        1.382      336.063        7.113      870.588
01/12/2014  15:40:00       16.096       72.046        1.439       21.295       43.726       26.501      453.483     1911.970      702.306        0.426        0.153       73.822       26.387        0.128      336.046        7.086      870.598
01/12/2014  15:41:00      -90.693      122.986      -28.208       70.783      112.189       36.463     5010.274    12586.454     1329.570        2.153        0.946      152.810       38.624        0.064      335.923        6.877      870.603
01/12/2014  15:42:00      -70.986      193.400      -31.409       96.347       65.608       36.118     9282.829     4304.427     1304.485        2.916        0.745      206.016       29.454        0.020      335.926        6.883      870.597
01/12/2014  15:43:00      -94.732      229.245      -22.947       81.810      143.758       50.011     6692.824    20666.423     2501.141        4.595        1.493      248.047       54.389        0.048      335.886        6.815      870.586
01/12/2014  15:44:00     -119.811      136.528      -30.618       72.602       63.815       38.455     5271.002     4072.357     1478.766        2.238        0.541      181.644       40.092        0.049      335.936        6.900      870.575
01/12/2014  15:45:00       -7.474      157.304      -10.888       37.000       96.441       41.383     1368.972     9300.796     1712.560        1.865        0.619      157.481       54.347        0.119      335.966        6.949      870.562
01/12/2014  15:46:00      -48.072      231.137      -26.666       34.907       94.255       34.245     1218.473     8883.953     1172.706        3.386        0.564      236.083       41.343        0.031      335.872        6.792      870.551
01/12/2014  15:47:00      -53.810      111.804      -10.037       53.887       76.499       34.653     2903.786     5852.113     1200.841        1.272        0.498      124.079       36.673        0.087      335.926        6.884      870.548
01/12/2014  15:48:00      -34.162      170.173      -20.131       55.966       79.000       36.349     3132.228     6240.934     1321.233        2.061        0.535      173.568       40.404        0.054      336.013        7.028      870.560
01/12/2014  15:49:00      -44.130      102.181      -17.152       28.725       53.462       24.754      825.114     2858.178      612.744        0.849        0.215      111.303       15.844        0.020      336.056        7.103      870.591
01/12/2014  15:50:00      -27.492      -39.291        6.377       64.966       56.121       28.031     4220.532     3149.535      785.760        0.525        0.408       47.954       22.591        0.222      336.068        7.120      870.609
01/12/2014  15:51:00      -11.738       47.776        8.166       35.638       34.806       23.142     1270.080     1211.443      535.542        0.275        0.151       49.196       19.522        0.157      336.113        7.196      870.633
01/12/2014  15:52:00       41.318       50.792        7.405       59.216       37.032       35.831     3506.480     1371.362     1283.885        0.525        0.308       65.475       16.814        0.066      335.993        6.996      870.655
01/12/2014  15:53:00       24.828      138.339      -24.126       42.804       96.231       29.544     1832.173     9260.330      872.873        1.615        0.598      140.549       37.719        0.072      335.955        6.930      870.684
01/12/2014  15:54:00      -46.757      137.963       -6.105       32.824       50.196       31.662     1077.442     2519.654     1002.500        1.293        0.230      145.671       24.129        0.027      336.005        7.015      870.707
01/12/2014  15:55:00        0.937      196.424      -16.004       52.800      113.099       43.068     2787.836    12791.472     1854.810        2.813        0.872      196.426       49.258        0.063      335.929        6.887      870.723
01/12/2014  15:56:00       30.842      209.976      -31.269       60.404       72.624       40.049     3648.652     5274.278     1603.904        2.827        0.526      212.229       36.885        0.030      335.815        6.695      870.718
01/12/2014  15:57:00       41.940       57.893       10.810       46.948       38.980       39.390     2204.088     1519.429     1551.578        0.525        0.264       71.489       28.824        0.163      335.838        6.737      870.702
01/12/2014  15:58:00      -96.209      138.598      -33.129       48.914       54.926       32.319     2392.625     3016.919     1044.498        1.801        0.323      168.717       23.310        0.019      335.970        6.958      870.701
01/12/2014  15:59:00      -70.721      186.591      -23.611       45.290       62.387       30.609     2051.200     3892.186      936.901        2.363        0.344      199.544       22.401        0.013      335.844        6.746      870.707
01/12/2014  16:00:00     -137.608       84.167      -17.972       70.142       46.565       38.613     4919.931     2168.317     1490.962        1.746        0.429      161.307       35.028        0.047      335.989        6.989      870.703
01/12/2014  16:01:00     -130.930       67.793      -27.024       52.134       77.610       37.269     2718.000     6023.309     1388.947        1.630        0.507      147.440       27.494        0.035      336.095        7.165      870.702
01/12/2014  16:02:00     -119.636       49.309      -17.083       54.350       51.132       28.732     2953.953     2614.487      825.551        1.171        0.320      129.399       30.512        0.056      336.059        7.105      870.694
01/12/2014  16:03:00      -81.412       -5.650       10.241       87.106      112.798       33.894     7587.373    12723.304     1148.795        1.411        1.073       81.608       23.655        0.084      335.965        6.948      870.681
01/12/2014  16:04:00      -63.505       88.155       -7.640       36.767       52.046       29.004     1351.811     2708.776      841.233        0.838        0.245      108.647       24.141        0.049      336.130        7.223      870.669
01/12/2014  16:05:00      -60.206      152.863      -16.889       35.357       55.679       26.144     1250.083     3100.153      683.525        1.615        0.252      164.292       26.682        0.026      335.947        6.920      870.663
01/12/2014  16:06:00      -59.478      221.293      -25.519       46.560       55.564       28.495     2167.852     3087.345      811.946        2.961        0.303      229.147       28.016        0.015      335.844        6.744      870.657
01/12/2014  16:07:00      -21.455      299.069      -37.236       61.931       47.408       30.525     3835.437     2247.483      931.790        4.915        0.351      299.838       22.861        0.006      335.745        6.578      870.681
01/12/2014  16:08:00      -61.806      212.472      -28.302       54.688       62.017       29.297     2990.807     3846.166      858.328        2.873        0.385      221.279       23.927        0.012      335.881        6.807      870.725
01/12/2014  16:09:00      -20.312      302.905      -39.749       55.864       60.866       33.805     3120.766     3704.683     1142.749        5.085        0.398      303.585       32.308        0.011      335.764        6.611      870.774
01/12/2014  16:10:00      -50.844      295.015      -35.389       38.269       48.628       26.911     1464.547     2364.682      724.192        4.771        0.228      299.364       26.795        0.008      335.705        6.512      870.805
01/12/2014  16:11:00     -117.971      256.412      -36.881       91.219       80.945       41.636     8320.907     6552.095     1733.533        4.881        0.830      282.248       45.381        0.026      335.854        6.761      870.796
01/12/2014  16:12:00     -120.369      229.806      -26.243       75.847      104.925       48.998     5752.737    11009.354     2400.815        4.357        0.958      259.422       48.629        0.035      335.815        6.698      870.774
01/12/2014  16:13:00     -134.339      205.831      -32.899       55.063       85.707       45.726     3031.896     7345.631     2090.890        3.698        0.623      245.791       52.874        0.046      335.843        6.743      870.755
01/12/2014  16:14:00     -142.396      130.018      -18.748       78.625       70.367       46.038     6181.847     4951.452     2119.473        2.539        0.663      192.824       46.094        0.057      335.984        6.979      870.738
01/12/2014  16:15:00      -63.800      101.439      -12.422       55.702       54.323       32.448     3102.749     2951.021     1052.900        1.081        0.355      119.834       27.788        0.054      335.997        7.003      870.737
01/12/2014  16:16:00      -97.123       53.275      -12.837       55.273       66.932       38.809     3055.112     4479.873     1506.150        1.074        0.452      110.775       31.834        0.083      336.036        7.068      870.742
01/12/2014  16:17:00      -88.275       99.533       -4.253       46.725       57.327       34.078     2183.197     3286.383     1161.310        1.217        0.332      133.039       28.198        0.045      336.070        7.124      870.752
01/12/2014  16:18:00      -39.970       88.311       18.425       57.979       70.764       46.544     3361.580     5007.550     2166.344        1.013        0.527       96.935       41.574        0.184      335.989        6.989      870.755
01/12/2014  16:19:00      -92.455      251.033      -27.928       73.509       81.658       53.651     5403.618     6668.046     2878.411        4.365        0.748      267.518       41.609        0.024      335.769        6.620      870.764
01/12/2014  16:20:00      -41.044      242.691      -32.692       42.219       56.710       27.603     1782.442     3216.015      761.925        3.371        0.288      246.137       21.028        0.007      335.734        6.561      870.765
01/12/2014  16:21:00      -69.699      173.621      -11.088       95.677       73.377       41.988     9154.055     5384.179     1763.027        2.571        0.815      187.089       39.840        0.045      335.789        6.653      870.784
01/12/2014  16:22:00      -75.639      185.942      -20.866       56.738       56.291       38.126     3219.235     3168.678     1453.600        2.428        0.392      200.738       34.064        0.029      335.811        6.690      870.803
01/12/2014  16:23:00     -102.648      210.027      -17.846       89.281      143.025       51.893     7971.098    20456.175     2692.843        4.304        1.556      233.769       58.503        0.063      335.753        6.594      870.815
01/12/2014  16:24:00      -55.289      164.603      -21.201       39.767       50.156       30.407     1581.444     2515.578      924.579        1.781        0.251      173.641       25.737        0.022      335.796        6.668      870.821
01/12/2014  16:25:00      -43.252       96.476      -15.691       36.208       56.983       23.514     1311.011     3247.105      552.900        0.827        0.256      105.727       28.060        0.070      336.032        7.062      870.825
01/12/2014  16:26:00     -144.604      238.255      -35.963       56.619       82.370       46.429     3205.704     6784.766     2155.693        4.556        0.607      278.704       31.537        0.013      335.766        6.615      870.827
01/12/2014  16:27:00     -144.798      191.455      -29.505       55.558       80.887       46.903     3086.701     6542.627     2199.863        3.516        0.591      240.045       38.763        0.026      335.745        6.580      870.833
01/12/2014  16:28:00      -77.351      119.218      -12.197       40.903       40.508       29.403     1673.058     1640.930      864.534        1.226        0.209      142.113       23.521        0.027      335.827        6.721      870.851
01/12/2014  16:29:00      -60.863      143.220      -15.612       55.280      100.519       40.794     3055.839    10104.045     1664.142        1.964        0.741      155.616       44.955        0.083      335.800        6.674      870.865
01/12/2014  16:30:00     -114.417      271.286      -29.335       75.304       78.671       41.942     5670.714     6189.079     1759.129        5.058        0.681      294.427       44.751        0.023      335.659        6.436      870.888
01/12/2014  16:31:00      -84.873      264.209      -26.592       82.056       84.963       37.521     6733.201     7218.742     1407.798        4.654        0.768      277.507       36.702        0.017      335.676        6.464      870.896
01/12/2014  16:32:00      -41.389      281.277      -29.257       49.734       70.751       29.243     2473.459     5005.697      855.160        4.501        0.417      284.306       24.999        0.008      335.634        6.394      870.914
01/12/2014  16:33:00      -46.719      253.597      -40.539       42.701       83.108       27.140     1823.379     6907.012      736.564        3.880        0.473      257.864       29.198        0.013      335.630        6.388      870.920
01/12/2014  16:34:00      -66.605      178.052      -11.833       72.054      126.258       47.318     5191.732    15940.998     2238.971        2.982        1.169      190.102       59.277        0.097      335.690        6.491      870.934
01/12/2014  16:35:00      -88.219      231.017      -24.134       60.678       65.419       40.476     3681.792     4279.618     1638.271        3.567        0.480      247.288       36.562        0.022      335.589        6.321      870.958
01/12/2014  16:36:00      -31.496      191.581      -23.096       43.746       64.229       33.578     1913.728     4125.409     1127.455        2.270        0.358      194.153       36.195        0.035      335.617        6.370      870.985
01/12/2014  16:37:00      -41.414      187.218      -20.667       51.844       85.958       34.917     2687.754     7388.858     1219.218        2.424        0.565      191.744       42.722        0.050      335.608        6.354      871.031
01/12/2014  16:38:00      -13.550      277.838      -30.136       62.610       82.416       43.621     3920.001     6792.327     1902.763        4.545        0.631      278.168       44.679        0.026      335.511        6.190      871.051
01/12/2014  16:39:00      -55.421      251.806      -28.093       66.833       59.135       41.953     4466.683     3496.946     1760.045        3.849        0.486      257.833       35.548        0.019      335.539        6.237      871.071
01/12/2014  16:40:00      -65.794      190.121      -18.509       61.994       69.407       32.084     3843.224     4817.319     1029.361        2.525        0.484      201.183       30.357        0.023      335.582        6.311      871.093
01/12/2014  16:41:00     -100.871      137.528      -22.475       75.879       62.432       39.050     5757.587     3897.779     1524.901        2.039        0.559      170.554       38.076        0.050      335.649        6.423      871.115
01/12/2014  16:42:00      -54.553      266.854      -19.453       65.254       77.634       45.884     4258.134     6027.085     2105.365        4.348        0.620      272.373       40.165        0.022      335.553        6.261      871.142
01/12/2014  16:43:00      -98.481      221.181      -24.090       71.821       89.693       41.472     5158.230     8044.862     1719.920        3.706        0.746      242.115       32.083        0.018      335.602        6.340      871.174
01/12/2014  16:44:00      -75.414      208.089      -17.337       70.715      107.462       37.584     5000.635    11548.051     1412.542        3.362        0.898      221.333       48.594        0.048      335.545        6.248      871.223
01/12/2014  16:45:00      -87.283      164.189      -17.735       61.839       97.093       45.085     3824.070     9427.049     2032.677        2.508        0.764      185.947       52.279        0.079      335.555        6.265      871.259
01/12/2014  16:46:00      -38.536      202.325      -20.604       53.319       94.643       45.649     2842.911     8957.272     2083.839        2.836        0.694      205.962       24.807        0.015      335.534        6.230      871.290
01/12/2014  16:47:00      -77.677      162.821       -7.320       66.199      103.020       47.269     4382.267    10613.109     2234.386        2.491        0.861      180.401       50.163        0.077      335.563        6.279      871.314
01/12/2014  16:48:00     -114.067      256.650      -35.335       56.962       98.549       49.667     3244.654     9711.939     2466.799        4.777        0.771      280.857       43.090        0.024      335.526        6.215      871.329
01/12/2014  16:49:00      -99.122      231.113      -32.811       70.862       72.732       41.288     5021.427     5289.978     1704.688        3.816        0.601      251.473       33.203        0.017      335.500        6.172      871.315
01/12/2014  16:50:00      -97.745      184.169      -19.263       58.882       79.279       42.706     3467.103     6285.127     1823.765        2.771        0.579      208.500       34.624        0.028      335.521        6.208      871.287
01/12/2014  16:51:00     -117.079      227.816      -17.165       69.404      127.174       51.863     4816.957    16173.215     2689.752        4.479        1.184      256.140       41.100        0.026      335.474        6.130      871.295
01/12/2014  16:52:00     -105.108      189.368      -25.198       74.195       80.517       45.587     5504.868     6483.024     2078.151        3.080        0.703      216.583       36.931        0.029      335.489        6.154      871.328
01/12/2014  16:53:00     -156.645      230.605      -33.762       71.228       98.656       51.726     5073.406     9732.960     2675.631        4.817        0.874      278.776       51.011        0.033      335.450        6.088      871.373
01/12/2014  16:54:00      -86.357      161.800      -17.083       59.977       61.537       45.091     3597.256     3786.848     2033.194        2.167        0.471      183.404       41.216        0.051      335.459        6.105      871.434
01/12/2014  16:55:00      -58.009      100.096       -0.061       69.414       51.304       34.687     4818.358     2632.084     1203.200        1.102        0.433      115.690       29.182        0.064      335.494        6.166      871.487
01/12/2014  16:56:00      -96.526      174.706      -33.143       79.167       74.846       46.438     6267.484     5601.912     2156.455        2.748        0.701      199.599       48.598        0.059      335.419        6.038      871.540
01/12/2014  16:57:00     -106.674      158.442      -16.686       81.856       69.905       45.201     6700.345     4886.779     2043.089        2.519        0.682      191.005       50.195        0.069      335.440        6.072      871.586
01/12/2014  16:58:00     -174.068      187.207      -40.752       95.972      107.456       45.306     9210.655    11546.871     2052.620        4.490        1.141      255.629       49.362        0.037      335.374        5.962      871.637
01/12/2014  16:59:00     -114.527      186.536      -13.601       72.459      118.132       57.383     5250.345    13955.083     3292.839        3.529        1.125      218.889       45.318        0.043      335.355        5.931      871.672
01/12/2014  17:00:00     -158.437      188.999      -25.522       72.333       82.272       65.190     5232.067     6768.628     4249.683        3.886        0.813      246.623       51.477        0.044      335.328        5.884      871.719
01/12/2014  17:01:00     -119.036      275.117      -37.144      114.774      110.319       60.776    13172.961    12170.273     3693.696        6.013        1.452      299.765       53.348        0.032      335.326        5.883      871.760
01/12/2014  17:02:00     -110.489      189.974      -30.930       91.582       95.757       57.694     8387.291     9169.350     3328.581        3.507        1.044      219.768       64.262        0.086      335.287        5.817      871.808
01/12/2014  17:03:00     -104.480      217.607      -30.484       63.525       67.491       43.865     4035.443     4555.063     1924.162        3.485        0.526      241.389       39.616        0.027      335.244        5.747      871.849
01/12/2014  17:04:00      -86.363      269.267      -15.951       81.492      136.261       68.355     6640.906    18567.042     4672.374        5.504        1.494      282.778       70.246        0.062      335.200        5.672      871.868
01/12/2014  17:05:00     -117.537      285.695      -34.008       81.791      116.416       57.572     6689.790    13552.730     3314.507        6.007        1.178      308.928       62.465        0.041      335.213        5.694      871.879
01/12/2014  17:06:00     -116.615      246.376      -21.715       75.207      161.156       50.012     5656.155    25971.321     2501.202        5.444        1.706      272.580       65.067        0.057      335.193        5.663      871.880
01/12/2014  17:07:00     -112.142      137.640      -15.914       83.191       70.305       42.031     6920.818     4942.825     1766.604        2.270        0.682      177.540       35.203        0.039      335.171        5.626      871.884
01/12/2014  17:08:00     -103.484      120.202      -13.711       53.673       72.540       40.926     2880.774     5262.068     1674.962        1.758        0.491      158.611       26.696        0.028      335.183        5.647      871.880
01/12/2014  17:09:00     -200.060      252.860      -49.672       87.477      110.465       58.712     7652.262    12202.491     3447.057        6.486        1.165      322.431       63.170        0.038      335.107        5.518      871.881
01/12/2014  17:10:00     -136.443      177.867      -31.851       68.613       79.098       41.168     4707.699     6256.521     1694.790        3.196        0.633      224.173       40.537        0.033      335.120        5.541      871.875
01/12/2014  17:11:00     -197.744      219.926      -58.143       67.216       88.748       42.705     4518.013     7876.176     1823.732        5.253        0.711      295.753       39.060        0.017      335.079        5.473      871.869
01/12/2014  17:12:00     -127.363      208.469      -33.416       57.663       82.202       41.033     3324.968     6757.134     1683.725        3.628        0.588      244.297       33.733        0.019      335.066        5.452      871.851
01/12/2014  17:13:00     -171.087      172.677      -31.200       81.738       97.031       52.789     6681.089     9415.046     2786.699        3.947        0.944      243.080       49.804        0.042      335.061        5.444      871.834
01/12/2014  17:14:00     -167.270      197.306      -34.537       60.801       82.948       41.804     3696.713     6880.375     1747.543        4.021        0.616      258.668       32.005        0.015      335.030        5.392      871.833
01/12/2014  17:15:00     -141.534      177.379      -27.634       73.150       69.492       50.332     5350.963     4829.192     2533.332        3.248        0.636      226.925       50.834        0.050      334.999        5.339      871.842
01/12/2014  17:16:00     -111.263      185.156      -27.652       53.095       61.331       31.746     2819.091     3761.511     1007.807        2.751        0.379      216.014       26.967        0.016      335.008        5.356      871.852
01/12/2014  17:17:00      -94.497      104.458      -11.490       77.485       54.354       32.162     6003.919     2954.322     1034.364        1.498        0.500      140.858       22.621        0.026      335.016        5.371      871.857
01/12/2014  17:18:00     -138.171      102.049      -27.967       71.669       56.675       36.006     5136.422     3212.047     1296.450        1.996        0.482      171.771       33.238        0.037      335.011        5.361      871.851
01/12/2014  17:19:00      -96.934      165.017      -21.935       54.004       65.806       35.881     2916.391     4330.391     1287.421        2.282        0.427      191.381       20.751        0.012      334.944        5.250      871.842
01/12/2014  17:20:00      -81.986       91.937      -12.374       36.401       57.294       35.066     1325.032     3282.615     1229.645        1.058        0.292      123.184       29.579        0.058      334.990        5.328      871.831
01/12/2014  17:21:00      -67.152       58.029      -10.237       32.113       80.229       24.271     1031.266     6436.633      589.058        0.802        0.403       88.751       14.522        0.027      334.998        5.341      871.821
01/12/2014  17:22:00     -101.848       75.439      -25.035       43.299       33.960       19.004     1874.807     1153.286      361.137        1.004        0.169      126.744       17.851        0.020      335.007        5.357      871.810
01/12/2014  17:23:00      -98.218        3.503      -13.093       37.815       26.096       21.398     1430.001      681.027      457.867        0.620        0.128       98.281       17.685        0.032      334.954        5.268      871.804
01/12/2014  17:24:00      -62.422        5.356       -2.420       35.046       34.585       21.744     1228.251     1196.111      472.791        0.341        0.145       62.652       18.936        0.091      334.952        5.263      871.801
01/12/2014  17:25:00      -59.229        6.182      -10.343       39.517       40.191       26.522     1561.599     1615.328      703.410        0.377        0.194       59.551       22.856        0.147      334.951        5.262      871.798
01/12/2014  17:26:00      -78.424       15.550       -9.446       33.513       48.889       25.362     1123.154     2390.132      643.247        0.532        0.208       79.951       18.534        0.054      334.933        5.232      871.784
01/12/2014  17:27:00     -110.296       -9.215      -14.817       41.431       32.575       19.924     1716.520     1061.143      396.951        0.782        0.159      110.681       15.118        0.019      334.902        5.182      871.749
01/12/2014  17:28:00     -111.255      -48.864       -9.913       38.961       37.009       26.337     1517.925     1369.685      693.630        0.922        0.179      121.513       21.882        0.032      334.884        5.150      871.725
01/12/2014  17:29:00      -52.249      -23.524        0.525       46.495       29.084       20.632     2161.790      845.866      425.666        0.336        0.172       57.301       18.506        0.104      334.862        5.115      871.697
01/12/2014  17:30:00      -46.942       -3.733        5.082       27.176       25.325       23.984      738.514      641.344      575.216        0.210        0.098       47.090       20.847        0.196      334.792        4.998      871.673
01/12/2014  17:31:00      -68.874        4.186      -15.005       57.089       29.587       23.763     3259.115      875.385      564.688        0.484        0.235       69.001       17.892        0.067      334.861        5.112      871.641
01/12/2014  17:32:00      -54.553       -7.218       -6.424       39.383       19.999       13.617     1551.050      399.942      185.411        0.260        0.107       55.028        8.483        0.024      334.855        5.105      871.607
01/12/2014  17:33:00      -40.665      -54.853        3.727       47.128       22.934       23.155     2221.025      525.964      536.157        0.398        0.164       68.282       24.081        0.124      334.843        5.084      871.585
01/12/2014  17:34:00      -25.077      -58.233       -0.424       80.789       36.920       23.668     6526.792     1363.069      560.186        0.623        0.423       63.403       19.632        0.096      334.862        5.116      871.566
01/12/2014  17:35:00      -47.384      -97.841        4.864       44.536       47.334       33.122     1983.482     2240.521     1097.062        0.858        0.266      108.711       30.249        0.077      334.707        4.858      871.560
01/12/2014  17:36:00      -81.459      -82.260        1.525       44.250       45.085       29.287     1958.029     2032.655      857.729        0.913        0.242      115.768       26.088        0.051      334.709        4.860      871.549
01/12/2014  17:37:00       -7.708     -122.177       -6.932       44.139       34.997       24.473     1948.246     1224.770      598.931        0.940        0.189      122.420       22.572        0.034      334.717        4.874      871.547
01/12/2014  17:38:00      -65.845     -140.780        1.642       39.047       31.591       26.447     1524.630      998.010      699.447        1.369        0.161      155.417       20.762        0.018      334.695        4.836      871.531
01/12/2014  17:39:00      -21.139      -45.989      -12.291       25.681       26.390       14.108      659.512      696.452      199.024        0.213        0.078       50.614        3.137        0.004      334.697        4.843      871.507
01/12/2014  17:40:00       -7.589      -24.515      -11.826       22.180       20.598       12.517      491.956      424.277      156.678        0.094        0.054       25.662        7.911        0.095      334.724        4.886      871.486
01/12/2014  17:41:00        0.862       30.180       24.593       31.677       45.801       34.367     1003.408     2097.746     1181.078        0.290        0.214       30.192       33.848        1.257      334.766        4.955      871.470
01/12/2014  17:42:00      104.047       64.616       18.771       33.816       31.427       33.387     1143.533      987.640     1114.713        0.930        0.162      122.478       14.214        0.013      334.738        4.908      871.479
01/12/2014  17:43:00       43.451       29.798       33.088       44.983       33.102       26.062     2023.464     1095.740      679.202        0.383        0.190       52.687       28.766        0.298      334.690        4.828      871.473
01/12/2014  17:44:00      140.511       80.248       17.407       46.815       27.603       31.574     2191.679      761.913      996.888        1.522        0.198      161.812       16.659        0.011      334.645        4.754      871.442
01/12/2014  17:45:00      123.444       52.507       -2.439       38.349       35.329       26.906     1470.646     1248.173      723.908        1.072        0.172      134.147       10.435        0.006      334.622        4.717      871.417
01/12/2014  17:46:00       77.982       63.810       14.663       44.272       30.832       26.357     1959.978      950.584      694.699        0.699        0.180      100.762       24.463        0.059      334.550        4.595      871.391
01/12/2014  17:47:00       66.133       32.829       11.159       24.749       23.136       20.576      612.527      535.252      423.378        0.357        0.079       73.833       10.318        0.020      334.584        4.654      871.385
01/12/2014  17:48:00      -11.233       68.687      -12.500       22.757       43.825       14.409      517.885     1920.660      207.628        0.382        0.132       69.600       18.189        0.068      334.635        4.739      871.365
01/12/2014  17:49:00      -12.035       73.905       -1.358       22.072       29.376       15.653      487.171      862.976      245.023        0.360        0.080       74.879       15.314        0.042      334.736        4.905      871.351
01/12/2014  17:50:00      -27.664       52.040       -6.628       33.055       29.964       13.867     1092.647      897.830      192.282        0.285        0.109       58.936       10.519        0.032      334.697        4.841      871.333
01/12/2014  17:51:00      -62.386       92.556      -20.182       27.500       28.684       16.391      756.257      822.785      268.652        0.736        0.092      111.618       16.490        0.022      334.645        4.755      871.321
01/12/2014  17:52:00      -88.489      103.976      -27.128       19.189       21.214       13.662      368.209      450.039      186.637        1.019        0.050      136.533       11.013        0.007      334.633        4.735      871.335
01/12/2014  17:53:00      -78.686       68.498      -19.266       18.095       23.436       12.683      327.446      549.252      160.851        0.615        0.052      104.324        6.223        0.004      334.616        4.706      871.348
01/12/2014  17:54:00      -83.420       68.836      -19.015       23.248       21.898       17.860      540.487      479.521      318.964        0.670        0.067      108.154       16.364        0.023      334.695        4.836      871.373
01/12/2014  17:55:00     -106.962      115.883      -29.862       28.375       24.224       17.812      805.119      586.780      317.272        1.374        0.085      157.701       14.089        0.008      334.691        4.830      871.410
01/12/2014  17:56:00      -67.605       73.739      -14.666       28.962       33.036       22.431      838.799     1091.383      503.157        0.633        0.122      100.039       21.415        0.046      334.642        4.751      871.420
01/12/2014  17:57:00      -76.094       56.149      -16.347       25.901       22.281       13.602      670.870      496.452      185.015        0.528        0.068       94.568        9.786        0.011      334.661        4.780      871.442
01/12/2014  17:58:00      -70.503       42.793      -11.388       23.828       27.262       16.597      567.793      743.197      275.469        0.426        0.079       82.474       17.456        0.045      334.686        4.823      871.470
01/12/2014  17:59:00      -88.021        3.859      -16.383       16.493       22.323       11.422      272.008      498.297      130.463        0.447        0.045       88.106        3.406        0.001      334.690        4.830      871.484
01/12/2014  18:00:00      -76.636      -34.139       -1.095       33.883       27.533       22.443     1148.041      758.069      503.683        0.472        0.120       83.896       22.707        0.073      334.556        4.605      871.496
01/12/2014  18:01:00      -68.415      -24.423       -0.881       25.224       19.385       17.572      636.260      375.790      308.768        0.330        0.066       72.643       16.237        0.050      334.467        4.458      871.509
01/12/2014  18:02:00      -83.149      -21.469      -13.198       16.264       19.827       15.034      264.523      393.119      226.012        0.422        0.044       85.876       12.140        0.020      334.536        4.573      871.492
01/12/2014  18:03:00      -81.709      -34.859       -7.187       24.241       16.739       15.859      587.616      280.199      251.506        0.453        0.056       88.835       13.666        0.024      334.531        4.565      871.477
01/12/2014  18:04:00      -76.306      -40.709       -7.479       20.961       14.263       12.089      439.345      203.445      146.147        0.416        0.039       86.486        4.611        0.003      334.489        4.496      871.468
01/12/2014  18:05:00     -106.813      -32.837      -10.190        9.917       15.869       11.135       98.343      251.838      123.992        0.653        0.024      111.746        5.200        0.002      334.410        4.364      871.466
01/12/2014  18:06:00      -76.930      -21.893       -4.593       29.471       21.670       13.948      868.564      469.579      194.544        0.398        0.077       79.985       13.103        0.027      334.455        4.439      871.484
01/12/2014  18:07:00     -100.094      -26.469       -2.361       23.433       22.736       15.611      549.083      516.924      243.699        0.602        0.065      103.535       13.069        0.016      334.443        4.419      871.518
01/12/2014  18:08:00      -80.335        6.790       -6.115       21.906       24.028       13.700      479.881      577.345      187.690        0.389        0.062       80.621       11.060        0.019      334.339        4.247      871.548
01/12/2014  18:09:00      -81.571       32.296       -4.975       26.611       20.879       12.613      708.169      435.922      159.081        0.451        0.065       87.732       11.180        0.016      334.435        4.405      871.569
01/12/2014  18:10:00      -61.923       48.082       -7.758       21.307       26.157       16.012      453.972      684.177      256.392        0.380        0.070       78.399        7.076        0.008      334.450        4.432      871.592
01/12/2014  18:11:00      -91.957       28.024       -7.716       29.926       15.078       14.353      895.567      227.356      206.014        0.531        0.066       96.132       12.583        0.017      334.365        4.291      871.615
01/12/2014  18:12:00      -69.801       15.847       -5.593       18.134       32.824       11.774      328.846     1077.406      138.628        0.335        0.077       71.577        7.373        0.011      334.296        4.176      871.643
01/12/2014  18:13:00      -54.207       17.793       -6.927       18.414       20.928       15.279      339.059      437.986      233.450        0.216        0.051       57.053       17.108        0.090      334.307        4.192      871.672
01/12/2014  18:14:00      -63.897       19.865      -10.480       16.750       15.596       12.743      280.548      243.247      162.390        0.264        0.034       66.913       11.263        0.028      334.335        4.240      871.698
01/12/2014  18:15:00      -62.503       31.989       -8.587       19.646       19.532       12.209      385.974      381.514      149.059        0.296        0.046       70.214       10.102        0.021      334.407        4.359      871.721
01/12/2014  18:16:00      -53.925        7.159       -7.638       12.638       14.950        7.696      159.715      223.511       59.228        0.173        0.022       54.399        6.256        0.013      334.420        4.380      871.737
01/12/2014  18:17:00      -47.368       11.320       -1.032       14.677       12.298        9.720      215.425      151.245       94.479        0.142        0.023       48.702        7.772        0.025      334.409        4.363      871.756
01/12/2014  18:18:00      -51.788        5.141       -5.102       12.142       13.360        9.044      147.427      178.494       81.791        0.157        0.020       52.043        6.123        0.014      334.424        4.388      871.784
01/12/2014  18:19:00      -41.931        1.291        0.831       12.398        9.411        8.058      153.713       88.573       64.926        0.103        0.015       41.951        7.522        0.032      334.449        4.430      871.817
01/12/2014  18:20:00      -61.610       -1.538       -6.073       14.099       12.735        8.038      198.782      162.185       64.605        0.213        0.021       61.629        7.765        0.016      334.383        4.318      871.824
01/12/2014  18:21:00      -79.199      -30.808      -12.067       18.002       16.958       12.269      324.056      287.572      150.540        0.406        0.038       84.980        9.690        0.013      334.208        4.030      871.820
01/12/2014  18:22:00     -128.316      -41.564      -10.552       27.847       18.453       12.403      775.458      340.529      153.834        0.979        0.063      134.879       11.738        0.008      334.061        3.786      871.816
01/12/2014  18:23:00     -122.139      -23.944       -9.485       44.378       25.696       19.207     1969.391      660.303      368.897        0.929        0.150      124.464       20.293        0.027      334.027        3.729      871.818
01/12/2014  18:24:00     -130.287      -53.414       -1.072       51.105       40.844       25.989     2611.757     1668.201      675.404        1.239        0.248      140.811       29.633        0.044      333.914        3.540      871.830
01/12/2014  18:25:00     -141.675      -19.641       -1.238       59.575       32.418       28.459     3549.193     1050.917      809.905        1.293        0.271      143.030       30.882        0.047      333.867        3.463      871.833
01/12/2014  18:26:00     -139.094      -48.527       -1.162       45.095       40.586       25.129     2033.568     1647.239      631.457        1.301        0.216      147.316       24.004        0.027      333.908        3.531      871.828
01/12/2014  18:27:00     -152.534      -47.341      -10.776       27.753       35.888       18.719      770.227     1287.921      350.419        1.402        0.120      159.712       10.089        0.004      334.037        3.745      871.828
01/12/2014  18:28:00      -96.025      -64.521       -4.215       35.798       32.637       20.415     1281.532     1065.204      416.754        0.808        0.138      115.688       13.564        0.014      334.083        3.822      871.822
01/12/2014  18:29:00      -83.301      -31.966       -8.257       21.731       22.030       15.315      472.253      485.305      234.550        0.461        0.060       89.224       14.879        0.028      334.141        3.918      871.826
01/12/2014  18:30:00      -79.188       -5.751       -5.111       19.388       17.965       14.046      375.882      322.724      197.288        0.361        0.045       79.397       12.032        0.023      334.084        3.824      871.837
01/12/2014  18:31:00      -60.200      -12.372       -0.532       25.315       20.585       12.036      640.827      423.744      144.873        0.249        0.060       61.458       12.663        0.042      334.110        3.865      871.867
01/12/2014  18:32:00      -70.369       -0.476       -3.116       20.020       24.115       13.522      400.819      581.557      182.855        0.306        0.058       70.371        9.991        0.020      334.087        3.829      871.909
01/12/2014  18:33:00      -71.836        9.889       -5.552       29.866       19.604       15.502      891.965      384.311      240.326        0.340        0.076       72.513       11.380        0.025      334.143        3.920      871.952
01/12/2014  18:34:00      -83.706       29.576       -7.089       31.987       20.474       16.311     1023.176      419.187      266.039        0.482        0.085       88.777       14.268        0.026      334.099        3.847      871.971
01/12/2014  18:35:00      -87.674       32.533      -13.081       27.709       20.590       15.907      767.806      423.962      253.026        0.518        0.072       93.515       12.224        0.017      334.067        3.795      871.989
01/12/2014  18:36:00     -102.353       22.272       -7.723       24.469       22.490       15.393      598.749      505.815      236.940        0.619        0.067      104.748        9.849        0.009      334.043        3.754      872.001
01/12/2014  18:37:00      -89.131        8.075      -10.572       31.802       25.817       14.239     1011.351      666.495      202.759        0.500        0.094       89.496       15.322        0.029      333.980        3.652      872.002
01/12/2014  18:38:00     -122.129       -0.161       -8.694       26.509       22.771       15.625      702.731      518.528      244.132        0.823        0.073      122.129        9.784        0.006      333.956        3.610      871.989
01/12/2014  18:39:00     -132.558       -2.573      -13.257       28.891       28.651       19.387      834.671      820.900      375.871        0.989        0.102      132.583       15.208        0.013      333.857        3.446      871.986
01/12/2014  18:40:00     -120.353       30.962       -8.885       30.786       26.391       21.452      947.760      696.493      460.197        0.881        0.105      124.272        7.728        0.004      333.805        3.361      872.011
01/12/2014  18:41:00     -103.143        7.547      -15.037       27.536       21.886       16.446      758.229      479.012      270.475        0.621        0.075      103.418       12.799        0.015      333.838        3.417      872.038
01/12/2014  18:42:00      -94.755      -11.759       -6.005       30.490       28.483       17.771      929.616      811.273      315.813        0.560        0.103       95.482       14.996        0.025      333.764        3.293      872.049
01/12/2014  18:43:00      -99.742      -15.089       -3.118       30.775       33.046       24.559      947.129     1092.015      603.168        0.641        0.132      100.877       21.381        0.045      333.754        3.276      872.056
01/12/2014  18:44:00     -102.611      -27.005       -4.396       21.352       34.611       15.331      455.894     1197.939      235.038        0.658        0.094      106.105        9.861        0.009      333.695        3.178      872.061
01/12/2014  18:45:00     -115.156      -13.866      -10.147       42.352       32.147       23.560     1793.730     1033.461      555.070        0.847        0.169      115.988       23.028        0.039      333.643        3.093      872.075
01/12/2014  18:46:00     -148.402        3.776      -15.163       40.033       33.881       21.955     1602.605     1147.938      482.005        1.275        0.162      148.450       21.873        0.022      333.558        2.951      872.093
01/12/2014  18:47:00      -97.031        2.832      -11.029       33.219       35.946       21.919     1103.473     1292.126      480.429        0.621        0.144       97.072       16.938        0.030      333.604        3.028      872.123
01/12/2014  18:48:00      -73.888       -3.211       -4.839       20.260       28.960       16.928      410.467      838.683      286.555        0.351        0.077       73.958       10.102        0.019      333.615        3.046      872.173
01/12/2014  18:49:00      -61.761       16.433        1.822       20.769       26.373       12.941      431.355      695.526      167.462        0.269        0.065       63.910        8.979        0.020      333.733        3.241      872.217
01/12/2014  18:50:00      -62.268      -14.493       -3.097       24.052       30.357       18.782      578.497      921.538      352.773        0.297        0.093       63.933        8.352        0.017      333.707        3.197      872.244
01/12/2014  18:51:00      -86.108      -12.338      -11.607       22.368       18.535       14.333      500.339      343.538      205.435        0.438        0.052       86.988        8.006        0.008      333.708        3.200      872.279
01/12/2014  18:52:00      -93.532      -16.722      -17.394       22.025       24.727       16.159      485.079      611.405      261.120        0.534        0.068       95.015       10.870        0.013      333.655        3.111      872.300
01/12/2014  18:53:00      -94.136      -32.771      -13.427       23.322       18.847       14.995      543.910      355.202      224.838        0.562        0.056       99.677       11.551        0.013      333.568        2.968      872.321
01/12/2014  18:54:00      -92.323      -10.621       -7.446       31.057       21.727       15.176      964.529      472.063      230.324        0.518        0.083       92.932       14.991        0.026      333.579        2.986      872.356
01/12/2014  18:55:00      -97.273        2.198      -12.286       34.566       24.211       13.902     1194.829      586.166      193.252        0.580        0.099       97.298       12.618        0.017      333.598        3.018      872.400
01/12/2014  18:56:00     -111.592        1.233       -5.778       31.797       25.894       21.656     1011.066      670.507      468.983        0.732        0.108      111.599       15.706        0.020      333.655        3.111      872.429
01/12/2014  18:57:00     -106.617        2.772      -11.244       38.393       31.018       16.589     1474.044      962.105      275.185        0.711        0.136      106.653       15.823        0.022      333.606        3.030      872.451
01/12/2014  18:58:00     -104.004        0.488       -9.834       46.179       28.355       16.985     2132.489      804.000      288.496        0.707        0.161      104.005       15.720        0.023      333.650        3.103      872.473
01/12/2014  18:59:00     -140.959       56.289      -15.300       35.899       21.586       26.941     1288.772      465.975      725.824        1.288        0.124      151.783       22.451        0.022      333.845        3.425      872.492
01/12/2014  19:00:00     -115.237       34.680      -10.317       25.082       27.865       17.866      629.130      776.467      319.195        0.816        0.086      120.342        9.606        0.006      333.879        3.484      872.508
01/12/2014  19:01:00     -112.810       55.961       -6.448       39.835       34.207       26.178     1586.856     1170.123      685.279        0.967        0.172      125.927       20.100        0.025      333.973        3.639      872.534
01/12/2014  19:02:00     -146.062       53.590      -10.512       36.122       24.250       18.254     1304.801      588.080      333.207        1.327        0.111      155.583       11.618        0.006      333.971        3.636      872.557
01/12/2014  19:03:00      -97.539       26.941      -11.044       31.661       35.205       19.610     1002.428     1239.414      384.538        0.649        0.131      101.191       17.896        0.031      333.949        3.601      872.573
01/12/2014  19:04:00     -101.719       25.235       -9.596       26.251       22.247       16.938      689.098      494.949      286.899        0.627        0.074      104.803        9.854        0.009      333.980        3.652      872.596
01/12/2014  19:05:00      -82.090       57.083      -10.744       40.761       52.319       25.045     1661.456     2737.234      627.256        0.757        0.251       99.986       25.006        0.063      334.158        3.947      872.617
01/12/2014  19:06:00      -76.806      115.199      -19.033       37.499       53.339       20.861     1406.158     2845.090      435.179        1.211        0.234      138.456       18.187        0.017      334.204        4.023      872.610
01/12/2014  19:07:00      -75.151      127.316      -25.320       48.712       45.040       21.223     2372.889     2028.641      450.433        1.367        0.243      147.842       18.409        0.016      334.181        3.985      872.622
01/12/2014  19:08:00      -57.942       75.340       -6.345       37.595       46.785       27.530     1413.414     2188.840      757.887        0.672        0.218       95.044       24.765        0.068      334.055        3.775      872.640
01/12/2014  19:09:00      -42.867       26.910       -5.190       18.361       43.745       16.326      337.136     1913.659      266.538        0.255        0.126       50.614        8.710        0.030      333.784        3.325      872.662
01/12/2014  19:10:00      -36.037       57.651       -4.641       34.783       54.498       24.159     1209.827     2970.008      583.653        0.470        0.238       67.988       10.604        0.024      334.020        3.718      872.684
01/12/2014  19:11:00      -48.698       -8.352        2.615       37.092       31.485       18.628     1375.839      991.332      347.000        0.258        0.136       49.409       19.659        0.158      333.726        3.230      872.683
01/12/2014  19:12:00      -51.335      -10.695       -7.873       26.528       42.468       18.996      703.732     1803.494      360.829        0.284        0.143       52.437       20.965        0.160      333.664        3.126      872.652
01/12/2014  19:13:00      -88.968       70.384      -15.350       52.178       55.219       34.480     2722.577     3049.128     1188.862        1.003        0.348      113.442       29.587        0.068      334.021        3.718      872.630
01/12/2014  19:14:00      -78.542       86.260      -19.358       51.802       58.970       27.119     2683.469     3477.476      735.456        1.044        0.345      116.660       23.159        0.039      333.929        3.566      872.627
01/12/2014  19:15:00      -50.473       14.131       -5.028       34.821       23.077       22.460     1212.529      532.541      504.449        0.251        0.112       52.414       18.053        0.119      333.997        3.680      872.634
01/12/2014  19:16:00      -24.734       -1.321       -9.201       27.220       29.061       18.753      740.905      844.516      351.687        0.132        0.097       24.770       15.260        0.380      333.929        3.566      872.642
01/12/2014  19:17:00      -45.092      -23.404       -6.997       25.132       22.400       11.276      631.628      501.766      127.152        0.195        0.063       50.804        6.707        0.017      333.925        3.559      872.662
01/12/2014  19:18:00      -59.534      -39.237       -4.471       11.590       11.207        8.038      134.337      125.590       64.615        0.271        0.016       71.301        4.773        0.004      333.741        3.255      872.675
01/12/2014  19:19:00      -49.382      -40.696        1.168       30.664       22.511       12.965      940.282      506.731      168.093        0.286        0.081       63.990        8.496        0.018      333.840        3.419      872.663
01/12/2014  19:20:00      -29.045      -38.004       11.953       42.249       30.549       22.973     1785.007      933.265      527.766        0.284        0.162       47.832       25.694        0.289      333.833        3.408      872.647
01/12/2014  19:21:00      -37.110      -50.990        5.002       43.826       28.469       24.047     1920.736      810.501      578.271        0.366        0.165       63.065       23.032        0.133      333.821        3.388      872.635
01/12/2014  19:22:00      -53.800      -89.925       -0.654       31.010       25.156       20.671      961.647      632.849      427.299        0.650        0.101      104.791       11.802        0.013      333.895        3.511      872.641
01/12/2014  19:23:00      -39.211      -73.364       -7.733       26.246       24.813       18.475      688.865      615.703      341.308        0.431        0.082       83.185        6.360        0.006      333.959        3.617      872.648
01/12/2014  19:24:00      -65.732      -72.993      -10.057       34.093       35.849       24.600     1162.364     1285.134      605.175        0.640        0.153       98.228       16.953        0.030      333.969        3.632      872.663
01/12/2014  19:25:00      -42.551      -56.821       -5.450       34.616       31.700       23.639     1198.290     1004.873      558.808        0.391        0.138       70.988       13.029        0.034      333.893        3.506      872.691
01/12/2014  19:26:00      -31.247      -26.364        3.440       33.782       32.295       19.362     1141.243     1042.994      374.882        0.212        0.128       40.883       16.898        0.171      333.884        3.493      872.711
01/12/2014  19:27:00      -18.534      -62.215       -7.779       34.887       41.295       17.606     1217.103     1705.295      309.987        0.375        0.162       64.917       14.755        0.052      333.877        3.481      872.732
01/12/2014  19:28:00      -56.713      -52.556        8.882       51.937       33.078       20.934     2697.425     1094.175      438.224        0.514        0.211       77.321       15.998        0.043      333.847        3.431      872.752
01/12/2014  19:29:00      -71.139      -57.563        7.141       36.636       26.599       21.382     1342.196      707.506      457.197        0.547        0.125       91.511       20.235        0.049      333.816        3.380      872.766
01/12/2014  19:30:00      -78.828      -52.420       -2.001       42.753       24.189       18.299     1827.831      585.118      334.864        0.586        0.137       94.666       16.472        0.030      333.852        3.437      872.772
01/12/2014  19:31:00      -10.943      -35.015        8.423       39.895       25.944       16.023     1591.592      673.084      256.739        0.197        0.126       36.686       14.656        0.160      333.881        3.487      872.776
01/12/2014  19:32:00      -10.848      -31.091       10.865       22.029       23.566       15.446      485.291      555.370      238.579        0.124        0.064       32.929       15.956        0.235      333.874        3.477      872.780
01/12/2014  19:33:00        4.695       -0.229       18.473       12.584        7.993       12.222      158.348       63.887      149.381        0.037        0.019        4.700        8.443        3.226      333.756        3.279      872.794
01/12/2014  19:34:00      -12.620       -8.523       11.369       27.349       16.308       12.833      747.967      265.953      164.692        0.077        0.059       15.228       16.141        1.123      333.740        3.253      872.801
01/12/2014  19:35:00      -43.734       -9.000        2.739       30.029       18.576       12.219      901.726      345.059      149.311        0.170        0.070       44.650       13.853        0.096      333.675        3.145      872.802
01/12/2014  19:36:00      -16.640       10.193        0.004       16.609       19.304       10.128      275.860      372.663      102.580        0.057        0.038       19.514        5.049        0.067      333.713        3.209      872.792
01/12/2014  19:37:00      -47.952       29.253       -4.304       21.180       18.546        9.380      448.573      343.937       87.982        0.203        0.044       56.170        7.090        0.016      333.636        3.081      872.786
01/12/2014  19:38:00      -54.981       12.997       -3.462       17.081       12.769        9.157      291.745      163.043       83.852        0.187        0.027       56.496        8.085        0.020      333.534        2.910      872.773
01/12/2014  19:39:00      -38.520      -10.129       -8.999       12.251       11.095        7.664      150.084      123.107       58.744        0.100        0.017       39.829        5.969        0.022      333.392        2.676      872.761
01/12/2014  19:40:00      -56.319       -6.425       -0.295       18.825       12.169        7.939      354.393      148.079       63.030        0.189        0.028       56.685        7.898        0.019      333.583        2.993      872.751
01/12/2014  19:41:00      -21.798      -26.159       -2.881       23.647       10.159        7.471      559.174      103.211       55.817        0.094        0.036       34.051        6.339        0.035      333.696        3.181      872.745
01/12/2014  19:42:00      -14.086      -32.078       -3.732       24.224        9.543        6.033      586.788       91.071       36.396        0.098        0.036       35.035        1.571        0.002      333.675        3.145      872.741
01/12/2014  19:43:00      -89.214      -21.137       -7.128       21.678       13.012        6.577      469.951      169.300       43.258        0.457        0.034       91.683        7.810        0.007      333.640        3.087      872.740
01/12/2014  19:44:00      -66.857      -24.789       -3.396       31.168       21.010       10.863      971.467      441.404      118.007        0.331        0.077       71.305       12.369        0.030      333.574        2.978      872.736
01/12/2014  19:45:00      -57.690      -45.161        1.087       36.718       23.229       18.162     1348.219      539.603      329.863        0.379        0.111       73.265       22.305        0.093      333.501        2.857      872.710
01/12/2014  19:46:00      -62.366      -58.853        2.131       38.519       30.285       19.972     1483.736      917.176      398.875        0.508        0.140       85.751       22.136        0.067      333.640        3.086      872.684
01/12/2014  19:47:00      -75.765      -48.246        1.363       39.129       28.229       16.631     1531.062      796.890      276.599        0.534        0.130       89.822       17.969        0.040      333.670        3.137      872.652
01/12/2014  19:48:00      -46.972      -23.692        5.868       55.033       32.138       24.267     3028.657     1032.871      588.893        0.373        0.233       52.609       21.568        0.168      333.700        3.187      872.633
01/12/2014  19:49:00      -41.191      -29.161        1.233       47.138       27.662       19.070     2222.017      765.178      363.668        0.295        0.168       50.469       24.973        0.245      333.634        3.078      872.619
01/12/2014  19:50:00      -91.665      -15.124       -0.180       36.364       24.701       18.518     1322.316      610.156      342.914        0.545        0.114       92.905       19.318        0.043      333.442        2.757      872.599
01/12/2014  19:51:00     -138.517      -18.950       -6.157       44.500       23.522       20.344     1980.238      553.288      413.884        1.127        0.147      139.807       22.250        0.025      333.440        2.755      872.585
01/12/2014  19:52:00     -114.256       -8.094       -8.280       43.586       23.855       23.642     1899.738      569.059      558.923        0.811        0.151      114.543       24.973        0.048      333.495        2.847      872.594
01/12/2014  19:53:00     -106.704      -19.234       -0.966       32.153       29.985       18.024     1033.803      899.105      324.851        0.701        0.113      108.423       17.542        0.026      333.513        2.876      872.615
01/12/2014  19:54:00      -71.743      -23.375        2.948       28.540       16.435       15.572      814.534      270.100      242.494        0.351        0.066       75.456       15.784        0.044      333.566        2.965      872.645
01/12/2014  19:55:00      -43.832       37.266       -6.793       26.568       29.665       21.577      705.859      879.993      465.572        0.270        0.103       57.533       17.677        0.094      333.581        2.989      872.679
01/12/2014  19:56:00      -71.114       15.320       -4.548       32.789       31.947       19.898     1075.121     1020.637      395.933        0.390        0.125       72.745       16.144        0.049      333.670        3.137      872.710
01/12/2014  19:57:00     -119.297       23.779      -13.818       35.638       26.867       19.487     1270.056      721.848      379.761        0.868        0.119      121.644        7.510        0.004      333.511        2.872      872.734
01/12/2014  19:58:00      -85.640      -10.886       -3.284       31.189       36.193       23.700      972.744     1309.969      561.674        0.515        0.142       86.329       15.791        0.033      333.275        2.483      872.772
01/12/2014  19:59:00      -79.976      -39.151       -2.224       46.117       39.313       21.780     2126.770     1545.492      474.370        0.604        0.207       89.045       16.305        0.034      333.067        2.140      872.806
01/12/2014  20:00:00      -87.109       -2.412       -9.189       38.924       35.976       21.258     1515.069     1294.283      451.894        0.547        0.163       87.143        9.695        0.012      333.038        2.092      872.841
01/12/2014  20:01:00     -117.000       -3.843       -8.270       52.518       32.953       27.567     2758.139     1085.895      759.947        0.919        0.230      117.063       25.932        0.049      332.936        1.923      872.878
01/12/2014  20:02:00     -151.027        2.130      -16.618       34.111       25.106       19.155     1163.575      630.325      366.906        1.262        0.108      151.042       17.103        0.013      332.961        1.966      872.907
01/12/2014  20:03:00     -168.132      -14.299      -18.132       38.988       33.136       23.696     1520.079     1097.982      561.498        1.599        0.159      168.739       20.603        0.015      332.921        1.898      872.916
01/12/2014  20:04:00     -176.009       -9.394      -20.488       44.284       39.633       31.481     1961.114     1570.765      991.037        1.800        0.226      176.260       25.345        0.021      332.898        1.859      872.925
01/12/2014  20:05:00     -134.038      -21.174      -11.794       61.453       48.179       28.712     3776.511     2321.199      824.399        1.274        0.346      135.700       28.057        0.043      332.829        1.746      872.940
01/12/2014  20:06:00     -185.738        5.587      -18.183       36.005       38.591       25.762     1296.346     1489.279      663.686        1.915        0.172      185.822       15.598        0.007      332.817        1.725      872.958
01/12/2014  20:07:00     -150.210      -24.669      -13.732       72.513       50.139       33.265     5258.098     2513.959     1106.564        1.612        0.444      152.222       37.292        0.060      332.797        1.693      872.983
01/12/2014  20:08:00     -156.876       -8.702      -17.602       47.207       40.816       28.329     2228.538     1665.983      802.525        1.485        0.235      157.117       22.211        0.020      332.783        1.672      873.002
01/12/2014  20:09:00     -186.362       13.354      -25.327       50.328       35.223       26.271     2532.926     1240.668      690.189        2.001        0.223      186.839       26.246        0.020      332.801        1.697      873.006
01/12/2014  20:10:00     -115.158      -21.576      -12.801       42.426       42.052       20.009     1799.954     1768.404      400.349        0.893        0.198      117.162       20.497        0.031      332.818        1.729      873.010
01/12/2014  20:11:00     -110.492      -23.596      -12.254       53.399       29.092       19.460     2851.490      846.348      378.685        0.850        0.204      112.983       25.805        0.052      332.863        1.804      873.017
01/12/2014  20:12:00      -77.677      -23.472       -5.779       26.864       20.542       10.551      721.678      421.972      111.329        0.394        0.063       81.146       10.022        0.015      332.831        1.751      873.044
01/12/2014  20:13:00      -27.265      -37.916        7.722       26.776       14.895       15.737      716.936      221.852      247.668        0.171        0.059       46.701       13.909        0.089      333.007        2.040      873.068
01/12/2014  20:14:00        8.133      -65.743       -4.949       16.346       19.676       15.036      267.201      387.147      226.078        0.265        0.044       66.244        8.266        0.016      333.200        2.359      873.083
01/12/2014  20:15:00       13.250      -39.331        7.064       24.631       34.949       26.250      606.680     1221.424      689.048        0.214        0.126       41.503       15.294        0.136      333.265        2.466      873.112
01/12/2014  20:16:00       -1.347      -16.534       11.594       20.210       13.825       16.661      408.428      191.122      277.587        0.064        0.044       16.588       13.634        0.676      333.275        2.482      873.143
01/12/2014  20:17:00      -39.932      -26.193       -0.819       16.355       16.770       11.072      267.477      281.216      122.591        0.148        0.034       47.756        4.730        0.010      333.262        2.461      873.165
01/12/2014  20:18:00      -57.552      -22.925       -6.372       18.099       17.939       10.247      327.584      321.802      104.997        0.232        0.038       61.950        5.786        0.009      333.082        2.163      873.172
01/12/2014  20:19:00      -83.675      -35.850       -3.385       25.240       28.391       16.210      637.066      806.037      262.774        0.500        0.085       91.031       12.412        0.019      332.986        2.005      873.174
01/12/2014  20:20:00      -64.471      -35.123        7.389       34.563       26.164       20.674     1194.597      684.555      427.418        0.388        0.115       73.417       19.438        0.070      333.005        2.037      873.170
01/12/2014  20:21:00      -62.117      -29.628       -6.067       44.455       25.329       14.947     1976.228      641.551      223.427        0.381        0.142       68.821       18.884        0.075      332.953        1.951      873.180
01/12/2014  20:22:00      -67.693      -23.983       -0.513       17.374       16.887       11.025      301.861      285.180      121.542        0.293        0.035       71.816        4.379        0.004      333.018        2.058      873.219
01/12/2014  20:23:00      -28.521      -25.861        0.569       17.522       21.338       11.622      307.036      455.314      135.068        0.119        0.045       38.500        7.346        0.036      333.107        2.206      873.234
01/12/2014  20:24:00      -25.088       -1.706       -3.707       18.537       10.318        7.663      343.602      106.465       58.715        0.058        0.025       25.146        7.576        0.091      333.031        2.079      873.242
01/12/2014  20:25:00      -55.166       11.721       -8.107       16.486       12.332        6.419      271.789      152.088       41.210        0.186        0.023       56.398        6.295        0.012      333.053        2.119      873.249
01/12/2014  20:26:00      -81.657       10.415      -13.772       12.515       13.561        8.890      156.620      183.911       79.028        0.369        0.021       82.318        4.552        0.003      333.082        2.165      873.266
01/12/2014  20:27:00      -84.992       17.084      -10.946       12.060       16.880        8.867      145.455      284.921       78.621        0.407        0.025       86.692        3.877        0.002      333.244        2.431      873.277
01/12/2014  20:28:00      -81.219       12.571      -16.020       13.576       12.736        9.096      184.319      162.206       82.737        0.372        0.021       82.186        8.347        0.010      333.300        2.524      873.290
01/12/2014  20:29:00      -64.649        7.063       -7.342       11.807       12.315        9.108      139.407      151.666       82.964        0.233        0.019       65.033        4.320        0.004      333.251        2.444      873.294
01/12/2014  20:30:00      -68.170        5.053       -4.405       10.351       13.138        9.646      107.145      172.601       93.037        0.253        0.019       68.357        7.112        0.011      333.058        2.123      873.298
01/12/2014  20:31:00      -63.745      -13.350      -11.885       11.864       16.125       10.844      140.750      260.010      117.582        0.245        0.026       65.128        9.806        0.023      333.000        2.030      873.302
01/12/2014  20:32:00      -58.691      -14.521      -14.254       14.092       10.840       10.820      198.572      117.513      117.075        0.215        0.022       60.460        7.121        0.014      332.815        1.725      873.303
01/12/2014  20:33:00      -59.765      -12.662      -11.727       17.635       12.601        8.841      310.999      158.773       78.165        0.221        0.027       61.092        5.904        0.009      332.814        1.721      873.316
01/12/2014  20:34:00      -71.460       -7.134       -9.871       20.003       12.238       12.543      400.115      149.775      157.336        0.298        0.035       71.815       11.719        0.027      332.512        1.221      873.332
01/12/2014  20:35:00      -59.682      -21.300       -7.612       16.721       13.594        9.267      279.586      184.793       85.870        0.231        0.028       63.369        6.421        0.010      332.554        1.292      873.354
01/12/2014  20:36:00      -71.979      -43.531      -13.732       17.588       17.441       17.163      309.329      304.192      294.572        0.409        0.045       84.119       10.293        0.015      332.522        1.238      873.368
01/12/2014  20:37:00      -66.376      -41.572      -13.215       26.110       14.711       17.612      681.753      216.428      310.179        0.376        0.060       78.320       14.142        0.033      332.435        1.095      873.348
01/12/2014  20:38:00      -74.329      -30.804      -13.199       16.178       19.103       10.838      261.725      364.913      117.468        0.370        0.037       80.459        7.611        0.009      332.456        1.130      873.314
01/12/2014  20:39:00      -89.428      -25.236      -12.453       33.553       24.633       22.147     1125.837      606.790      490.493        0.551        0.111       92.920       21.638        0.054      332.382        1.008      873.275
01/12/2014  20:40:00      -99.617       -0.922       -9.115       48.401       34.108       20.021     2342.644     1163.379      400.846        0.696        0.195       99.621       14.538        0.021      332.380        1.004      873.242
01/12/2014  20:41:00      -65.765      -10.593       -3.996       29.257       29.213       18.650      855.986      853.376      347.825        0.325        0.103       66.613       14.369        0.047      332.376        0.999      873.239
01/12/2014  20:42:00     -100.389      -26.822       -7.205       54.190       34.122       24.546     2936.555     1164.277      602.515        0.778        0.235      103.910       25.288        0.059      332.318        0.901      873.249
01/12/2014  20:43:00     -102.579      -21.395      -10.959       38.139       31.160       20.420     1454.569      970.971      416.968        0.697        0.142      104.786       13.100        0.016      332.304        0.878      873.245
01/12/2014  20:44:00     -111.432      -28.275      -10.665       51.711       44.117       33.361     2674.059     1946.281     1112.968        0.953        0.287      114.963       19.664        0.029      332.193        0.697      873.222
01/12/2014  20:45:00      -75.340      -15.625       -0.272       48.579       37.002       26.142     2359.943     1369.150      683.419        0.517        0.221       76.944       26.358        0.117      332.272        0.827      873.177
01/12/2014  20:46:00     -124.671       12.532      -14.476       46.587       39.324       27.922     2170.306     1546.401      779.614        1.020        0.225      125.300       21.670        0.030      332.378        1.002      873.126
01/12/2014  20:47:00     -115.274        3.178       -4.755       57.425       48.630       25.182     3297.580     2364.875      634.142        0.981        0.315      115.318       20.825        0.033      332.368        0.984      873.095
01/12/2014  20:48:00     -124.700       28.786      -19.144       37.517       36.310       25.945     1407.556     1318.414      673.166        1.007        0.170      127.980       15.683        0.015      332.405        1.047      873.096
01/12/2014  20:49:00     -125.763      -24.957      -13.971       39.077       48.665       21.039     1527.013     2368.260      442.633        1.049        0.217      128.215       16.292        0.016      332.354        0.962      873.114
01/12/2014  20:50:00     -151.404       -2.184      -14.547       50.850       43.096       27.111     2585.749     1857.289      735.023        1.416        0.259      151.419       27.463        0.033      332.296        0.866      873.172
01/12/2014  20:51:00     -135.572       -9.644      -14.283       66.884       41.867       26.957     4473.422     1752.861      726.692        1.281        0.348      135.915       26.510        0.038      332.201        0.709      873.215
01/12/2014  20:52:00     -161.964       36.460      -15.097       52.381       41.653       27.397     2743.786     1735.008      750.575        1.651        0.261      166.017       19.972        0.014      332.192        0.694      873.258
01/12/2014  20:53:00     -196.791       54.807      -14.754       43.248       46.968       30.001     1870.373     2205.950      900.036        2.346        0.249      204.280       24.913        0.015      332.208        0.719      873.296
01/12/2014  20:54:00     -189.056       42.041      -22.030       44.236       41.536       24.303     1956.839     1725.205      590.659        2.113        0.214      193.674       17.651        0.008      332.274        0.829      873.342
01/12/2014  20:55:00     -192.527       81.602      -24.470       55.708       40.694       35.129     3103.347     1656.023     1234.047        2.516        0.300      209.107       27.920        0.018      332.317        0.898      873.363
01/12/2014  20:56:00     -173.450       46.132      -19.041       47.839       42.470       30.935     2288.607     1803.660      956.982        1.881        0.252      179.480       23.985        0.018      332.384        1.010      873.370
01/12/2014  20:57:00     -168.477       26.951      -15.034       50.675       57.903       31.153     2567.991     3352.732      970.533        1.811        0.345      170.619       33.956        0.040      332.509        1.219      873.378
01/12/2014  20:58:00     -164.178       40.079      -11.252       46.399       51.302       34.245     2152.868     2631.908     1172.726        1.732        0.298      168.999       26.014        0.024      332.565        1.309      873.355
01/12/2014  20:59:00     -175.257       22.961      -13.004       53.305       48.243       27.183     2841.420     2327.339      738.907        1.866        0.295      176.755       28.137        0.025      332.545        1.276      873.327
01/12/2014  21:00:00     -149.695       15.537      -10.614       52.621       33.518       26.564     2768.938     1123.453      705.633        1.368        0.230      150.499       24.740        0.027      332.563        1.306      873.315
01/12/2014  21:01:00     -138.351      -54.767      -13.760       41.406       46.746       26.720     1714.494     2185.207      713.943        1.347        0.231      148.797       18.005        0.015      332.408        1.052      873.309
01/12/2014  21:02:00     -110.493      -20.071       -5.788       53.746       39.800       28.997     2888.654     1584.070      840.817        0.898        0.266      112.301       28.269        0.063      332.458        1.133      873.326
01/12/2014  21:03:00     -129.245      -35.141      -16.124       36.853       26.675       23.566     1358.180      711.554      555.350        1.041        0.131      133.937       22.947        0.029      332.407        1.051      873.325
01/12/2014  21:04:00     -146.225       -5.371      -14.907       31.587       29.800       24.951      997.757      888.032      622.538        1.207        0.125      146.323       17.151        0.014      332.434        1.094      873.322
01/12/2014  21:05:00     -145.650      -12.335      -13.415       36.612       34.854       25.285     1340.418     1214.793      639.323        1.237        0.160      146.171       23.745        0.026      332.419        1.068      873.312
01/12/2014  21:06:00     -132.608      -10.013      -16.316       35.094       28.244       22.704     1231.572      797.746      515.494        1.025        0.127      132.985       19.237        0.021      332.479        1.167      873.297
01/12/2014  21:07:00     -122.794      -61.380      -19.493       23.882       20.458       20.154      570.347      418.538      406.194        1.031        0.070      137.280        9.640        0.005      332.453        1.126      873.291
01/12/2014  21:08:00      -94.544      -15.027       -5.894       25.665       38.772       20.139      658.691     1503.298      405.599        0.588        0.128       95.731       14.639        0.023      332.458        1.134      873.297
01/12/2014  21:09:00     -165.201       31.710      -19.822       32.155       33.668       21.641     1033.964     1133.549      468.339        1.566        0.132      168.217       15.477        0.008      332.495        1.195      873.330
01/12/2014  21:10:00     -164.176       19.252      -15.373       30.160       41.067       25.174      909.601     1686.521      633.740        1.539        0.161      165.301       19.296        0.014      332.538        1.265      873.362
01/12/2014  21:11:00     -166.706       37.375      -15.365       56.824       34.624       27.086     3228.950     1198.789      733.676        1.729        0.258      170.844       24.059        0.020      332.615        1.392      873.377
01/12/2014  21:12:00     -174.852       55.479      -17.007       50.961       30.696       25.471     2597.035      942.257      648.752        1.906        0.209      183.443       24.237        0.017      332.755        1.624      873.397
01/12/2014  21:13:00     -149.551       45.868      -21.316       53.834       38.266       28.884     2898.073     1464.298      834.300        1.506        0.260      156.427       24.746        0.025      332.691        1.517      873.385
01/12/2014  21:14:00     -141.838       26.254      -16.933       52.364       35.947       27.341     2741.948     1292.214      747.506        1.294        0.239      144.248       22.500        0.024      332.843        1.768      873.376
01/12/2014  21:15:00     -143.879       49.999       -6.314       52.097       26.518       25.409     2714.066      703.195      645.628        1.365        0.203      152.319       25.862        0.029      332.726        1.575      873.357
01/12/2014  21:16:00     -142.395       33.094       -8.654       23.282       27.917       14.866      542.054      779.334      220.998        1.149        0.077      146.190        8.635        0.003      332.684        1.507      873.333
01/12/2014  21:17:00     -121.720       -4.424       -7.594       22.336       30.078       16.824      498.903      904.695      283.044        0.829        0.084      121.801       11.309        0.009      332.633        1.423      873.316
01/12/2014  21:18:00      -98.406       -8.588      -10.115       41.889       25.874       24.106     1754.711      669.451      581.120        0.643        0.150       98.780       22.942        0.054      332.462        1.140      873.284
01/12/2014  21:19:00     -118.104       -2.966      -11.270       26.613       32.848       21.140      708.265     1078.970      446.905        0.816        0.112      118.141       18.904        0.026      332.488        1.183      873.258
01/12/2014  21:20:00      -94.237       10.301       -2.942       41.048       25.542       20.473     1684.904      652.372      419.144        0.588        0.138       94.798       21.580        0.052      332.465        1.145      873.229
01/12/2014  21:21:00      -96.058       12.472       -6.178       39.435       25.541       26.538     1555.122      652.343      704.271        0.617        0.146       96.865       22.779        0.055      332.491        1.189      873.199
01/12/2014  21:22:00     -117.415       11.501       -7.138       33.663       33.595       17.646     1133.220     1128.656      311.378        0.827        0.129      117.977       13.322        0.013      332.487        1.181      873.208
01/12/2014  21:23:00     -127.224       -1.923       -7.726       35.724       28.319       25.731     1276.220      801.952      662.084        0.949        0.137      127.239       22.542        0.031      332.557        1.297      873.214
01/12/2014  21:24:00     -147.156        9.097      -13.216       37.476       28.096       18.360     1404.420      789.366      337.104        1.222        0.127      147.436       16.034        0.012      332.669        1.483      873.202
01/12/2014  21:25:00     -142.646       34.333       -5.920       41.579       34.449       23.036     1728.811     1186.705      530.667        1.250        0.172      146.720       18.499        0.016      332.659        1.465      873.200
01/12/2014  21:26:00     -128.951        4.520       -8.640       38.117       31.732       20.333     1452.886     1006.927      413.429        0.980        0.144      129.030       12.029        0.009      332.594        1.359      873.215
01/12/2014  21:27:00     -121.594        1.153      -10.050       52.358       34.073       24.192     2741.386     1160.967      585.248        0.969        0.224      121.599       23.854        0.038      332.463        1.142      873.243
01/12/2014  21:28:00     -135.929      -42.334       -7.974       35.249       45.274       24.530     1242.493     2049.698      601.731        1.211        0.195      142.369       21.271        0.022      332.301        0.875      873.302
01/12/2014  21:29:00     -138.571      -74.166       -9.543       50.450       45.622       28.101     2545.183     2081.400      789.651        1.510        0.271      157.171       20.416        0.017      332.210        0.725      873.380
01/12/2014  21:30:00      -40.335     -148.055       -7.952       37.029       65.172       23.675     1371.165     4247.364      560.487        1.489        0.309      153.451        7.007        0.002      332.535        1.259      873.454
01/12/2014  21:31:00      -93.323      -86.420       -3.636       74.446       43.805       31.542     5542.206     1918.860      994.902        1.232        0.423      127.191       37.210        0.086      332.419        1.068      873.508
01/12/2014  21:32:00     -102.997      -38.124       -6.588       50.031       36.820       26.009     2503.108     1355.708      676.482        0.832        0.227      109.827       23.449        0.046      332.408        1.051      873.541
01/12/2014  21:33:00      -79.547      -93.368        1.705       57.236       43.812       27.286     3275.955     1919.514      744.519        1.049        0.297      122.660       30.298        0.061      332.510        1.219      873.593
01/12/2014  21:34:00     -120.089      -92.177       -3.175       61.840       50.729       33.610     3824.197     2573.481     1129.665        1.523        0.376      151.387       24.875        0.027      332.393        1.025      873.669
01/12/2014  21:35:00      -28.205      -74.699       11.912       46.627       49.295       26.889     2174.095     2430.029      723.022        0.592        0.266       79.846       24.824        0.097      332.408        1.052      873.740
01/12/2014  21:36:00      -70.934      -22.218       -2.860       34.276       34.803       20.486     1174.842     1211.215      419.685        0.417        0.140       74.333       12.497        0.028      332.413        1.059      873.800
01/12/2014  21:37:00     -106.927      -62.277       -7.976       41.164       36.022       25.628     1694.439     1297.565      656.794        0.951        0.182      123.741       24.192        0.038      332.378        1.000      873.861
01/12/2014  21:38:00     -141.129      -58.141        3.571       55.817       35.546       24.500     3115.530     1263.530      600.242        1.414        0.249      152.636       30.944        0.041      332.393        1.026      873.903
01/12/2014  21:39:00     -136.721      -15.680      -16.499       27.054       15.431       12.739      731.934      238.106      162.274        1.017        0.057      137.617        6.111        0.002      332.433        1.092      873.925
01/12/2014  21:40:00      -79.035      -37.793       -3.722       46.795       22.221       12.286     2189.816      493.782      150.934        0.526        0.142       87.606       18.356        0.044      332.443        1.109      873.944
01/12/2014  21:41:00      -24.192      -14.085        5.288       38.316       10.440       15.646     1468.107      108.984      244.788        0.132        0.091       27.993       20.141        0.518      332.414        1.060      873.949
01/12/2014  21:42:00      -24.195      -33.385       -4.942       15.449       31.238        9.930      238.684      975.843       98.599        0.152        0.066       41.230       15.942        0.150      332.481        1.170      873.953
01/12/2014  21:43:00      -18.503      -35.230       -6.833       20.826       19.374       15.496      433.738      375.344      240.140        0.134        0.052       39.793       10.389        0.068      332.534        1.258      873.931
01/12/2014  21:44:00      -36.939      -16.577        5.079       19.240       19.935       17.417      370.166      397.393      303.341        0.137        0.054       40.488        9.399        0.054      332.575        1.328      873.902
01/12/2014  21:45:00      -26.123      -27.272        3.028       36.204       23.937       13.796     1310.735      572.969      190.325        0.175        0.104       37.765       12.626        0.112      332.569        1.317      873.877
01/12/2014  21:46:00      -26.373      -21.585       11.518       37.620       28.365       19.124     1415.242      804.597      365.730        0.194        0.129       34.080       14.883        0.191      332.590        1.351      873.851
01/12/2014  21:47:00      -44.410      -38.799        4.004       57.285       37.594       26.264     3281.577     1413.312      689.818        0.444        0.269       58.972       27.971        0.225      332.684        1.505      873.842
01/12/2014  21:48:00      -55.946      -44.832        7.050       60.285       29.541       21.530     3634.253      872.656      463.556        0.508        0.249       71.693       12.366        0.030      332.664        1.473      873.848
01/12/2014  21:49:00      -34.825      -31.429        8.974       56.647       39.014       23.944     3208.900     1522.092      573.321        0.379        0.265       46.910       16.530        0.124      332.584        1.342      873.852
01/12/2014  21:50:00      -73.434      -41.188        6.950       40.075       37.263       25.360     1606.014     1388.555      643.109        0.539        0.182       84.196       18.600        0.049      332.648        1.447      873.846
01/12/2014  21:51:00      -45.988      -41.359        5.154       41.886       40.469       26.085     1754.414     1637.769      680.441        0.396        0.204       61.851       26.775        0.187      332.634        1.424      873.805
01/12/2014  21:52:00      -99.691      -61.406        4.583       40.539       27.065       21.192     1643.451      732.517      449.105        0.828        0.141      117.086       17.513        0.022      332.513        1.224      873.746
01/12/2014  21:53:00      -52.737      -51.556        7.631       45.670       44.607       21.870     2085.736     1989.747      478.313        0.502        0.228       73.751       19.570        0.070      332.587        1.345      873.683
01/12/2014  21:54:00      -49.913      -50.332        2.486       40.456       36.283       26.326     1636.698     1316.460      693.054        0.434        0.182       70.885       23.572        0.111      332.657        1.463      873.628
01/12/2014  21:55:00      -54.888      -46.095        5.433       41.853       29.771       20.199     1751.665      886.322      408.007        0.411        0.152       71.676       19.462        0.074      332.704        1.541      873.605
01/12/2014  21:56:00      -71.091      -57.037        2.556       33.647       32.581       20.285     1132.108     1061.539      411.498        0.546        0.130       91.144       15.321        0.028      332.575        1.326      873.588
01/12/2014  21:57:00      -88.654      -55.939        1.336       49.184       29.535       20.615     2419.055      872.323      424.976        0.735        0.186      104.827       13.621        0.017      332.537        1.263      873.583
01/12/2014  21:58:00      -93.702      -55.631       -1.154       46.475       28.651       16.191     2159.944      820.857      262.151        0.756        0.162      108.972       15.874        0.021      332.481        1.170      873.561
01/12/2014  21:59:00     -104.879      -51.713        1.704       33.503       24.590       18.060     1122.437      604.664      326.154        0.786        0.103      116.935       14.939        0.016      332.431        1.090      873.537
01/12/2014  22:00:00      -82.637      -47.251        3.162       41.552       27.388       22.820     1726.610      750.118      520.767        0.603        0.150       95.192       17.662        0.034      332.448        1.117      873.521
01/12/2014  22:01:00      -38.556      -30.762        8.306       46.180       26.082       18.628     2132.633      680.247      347.012        0.283        0.158       49.324       17.527        0.126      332.493        1.190      873.511
01/12/2014  22:02:00      -55.162      -44.175        4.932       34.588       30.201       15.652     1196.297      912.077      244.989        0.369        0.118       70.670       18.633        0.070      332.548        1.283      873.512
01/12/2014  22:03:00      -49.100     -102.262        1.018       43.417       71.479       23.071     1885.044     5109.178      532.268        1.020        0.376      113.439       19.280        0.029      332.633        1.422      873.516
01/12/2014  22:04:00      -93.490     -152.850        1.155       68.517       87.311       39.145     4694.646     7623.287     1532.358        2.298        0.693      179.174       41.321        0.053      332.345        0.944      873.543
01/12/2014  22:05:00      -83.347      -45.905        1.670       49.092       36.906       26.096     2410.038     1362.060      681.003        0.675        0.223       95.153       19.772        0.043      332.220        0.742      873.577
01/12/2014  22:06:00      -93.721     -111.386       -5.139       47.311       63.697       34.378     2238.313     4057.304     1181.842        1.435        0.374      145.570       30.516        0.044      332.193        0.695      873.594
01/12/2014  22:07:00      -97.786     -105.944        4.261       73.766       57.859       41.885     5441.451     3347.610     1754.335        1.567        0.527      144.174       47.736        0.110      332.011        0.395      873.592
01/12/2014  22:08:00      -72.929      -75.495        1.193       53.843       32.885       29.280     2899.083     1081.446      857.339        0.793        0.242      104.967       24.452        0.054      332.012        0.397      873.579
01/12/2014  22:09:00      -56.776      -76.509       -5.180       60.618       43.222       31.671     3674.587     1868.106     1003.074        0.782        0.327       95.274       32.361        0.115      331.954        0.302      873.580
01/12/2014  22:10:00      -25.466      -78.030        2.154       38.822       32.581       16.426     1507.165     1061.552      269.820        0.479        0.142       82.081        8.537        0.011      332.003        0.383      873.605
01/12/2014  22:11:00      -26.445      -24.775        5.202       28.046       25.763       18.398      786.551      663.722      338.483        0.156        0.089       36.237       15.304        0.178      332.041        0.447      873.619
01/12/2014  22:12:00       10.370       17.443        3.719       27.748       24.912       26.557      769.939      620.592      705.294        0.126        0.105       20.293       20.840        1.055      332.070        0.493      873.618
01/12/2014  22:13:00      -26.506      -20.492        2.188       42.087       32.645       16.261     1771.353     1065.722      264.426        0.211        0.155       33.504        6.248        0.035      332.109        0.558      873.600
01/12/2014  22:14:00      -46.608      -40.451       -4.021       63.660       39.193       16.973     4052.557     1536.052      288.091        0.485        0.294       61.714       12.991        0.044      332.082        0.514      873.585
01/12/2014  22:15:00      -85.977      -43.100        4.565       50.801       36.387       22.547     2580.762     1324.024      508.362        0.684        0.221       96.175       24.777        0.066      331.991        0.363      873.560
01/12/2014  22:16:00     -137.540      -46.099       -5.826       22.309       24.568       11.682      497.671      603.596      136.478        1.116        0.062      145.060        5.756        0.002      331.972        0.332      873.535
01/12/2014  22:17:00     -153.652      -58.953      -10.131       33.955       31.918       12.950     1152.919     1018.746      167.707        1.476        0.117      164.573       12.412        0.006      331.958        0.308      873.499
01/12/2014  22:18:00     -157.110      -56.883      -14.111       17.368       16.859       10.746      301.664      284.236      115.477        1.441        0.035      167.091        6.847        0.002      331.933        0.264      873.482
01/12/2014  22:19:00     -133.719      -52.556       -5.315       23.463       21.102       13.413      550.490      445.297      179.902        1.092        0.059      143.676        8.936        0.004      331.892        0.201      873.478
01/12/2014  22:20:00      -80.623      -30.256       -1.659       27.526       27.536       16.816      757.704      758.237      282.788        0.461        0.090       86.113       12.791        0.022      331.933        0.268      873.475
01/12/2014  22:21:00     -114.240      -29.477      -16.709       17.930       24.492       12.660      321.501      599.863      160.273        0.764        0.054      117.982       10.298        0.008      331.930        0.261      873.468
01/12/2014  22:22:00      -97.551      -48.425       -4.311       18.258       20.199       11.325      333.346      408.006      128.248        0.637        0.043      108.909        8.413        0.006      331.942        0.283      873.446
01/12/2014  22:23:00      -94.283      -40.094      -16.265       12.271        7.647        8.405      150.584       58.471       70.646        0.552        0.014      102.454        3.950        0.001      331.881        0.183      873.414
01/12/2014  22:24:00      -23.377      -19.388        6.585       30.391       24.238       15.925      923.638      587.502      253.595        0.136        0.088       30.371       15.119        0.248      331.948        0.293      873.400
01/12/2014  22:25:00      -29.760      -27.286        2.432       28.507       12.488       13.093      812.673      155.959      171.439        0.139        0.057       40.375       13.567        0.113      331.926        0.256      873.414
01/12/2014  22:26:00      -70.810      -28.358       -8.739       19.301       16.720        9.525      372.542      279.547       90.718        0.332        0.037       76.278        9.899        0.017      331.891        0.200      873.444
01/12/2014  22:27:00      -78.041       -8.824      -10.777       18.766       15.401       12.546      352.180      237.177      157.394        0.352        0.037       78.538       11.120        0.020      331.956        0.304      873.501
01/12/2014  22:28:00      -60.339        1.580       -2.259       19.874       18.194       12.100      394.983      331.027      146.405        0.226        0.044       60.360        8.297        0.019      331.960        0.313      873.580
01/12/2014  22:29:00      -28.343        8.280        5.473       18.344       25.272       15.107      336.500      638.678      228.222        0.105        0.060       29.528       13.772        0.218      332.023        0.416      873.643
01/12/2014  22:30:00      -62.546       76.147      -15.626       27.379       23.185       15.181      749.593      537.557      230.476        0.574        0.076       98.542       15.224        0.024      332.031        0.429      873.683
01/12/2014  22:31:00       -2.325       14.731        2.673       26.620       19.360       12.125      708.626      374.824      147.014        0.073        0.062       14.914       12.363        0.687      332.014        0.402      873.687
01/12/2014  22:32:00      -53.355      -34.100       -7.404       23.405       17.446       14.535      547.813      304.355      211.280        0.256        0.053       63.321       14.983        0.056      331.851        0.132      873.678
01/12/2014  22:33:00      -74.863      -30.639      -17.085        9.595       11.451       10.402       92.062      131.127      108.195        0.358        0.017       80.890        5.311        0.004      331.780        0.017      873.668
01/12/2014  22:34:00      -89.097      -40.415      -11.291       22.783       18.710       11.917      519.050      350.064      142.018        0.535        0.051       97.835        6.880        0.005      331.803        0.054      873.666
01/12/2014  22:35:00     -101.332      -20.216      -13.182       23.937       22.640       14.410      572.961      512.588      207.656        0.607        0.065      103.329        9.038        0.008      331.799        0.048      873.684
01/12/2014  22:36:00     -130.187       26.803      -16.257       42.807       34.108       22.310     1832.460     1163.346      497.755        1.071        0.175      132.918       16.569        0.016      331.917        0.240      873.703
01/12/2014  22:37:00     -113.664       32.392      -21.835       37.465       32.982       18.035     1403.599     1087.832      325.259        0.863        0.141      118.190        8.059        0.005      332.061        0.478      873.720
01/12/2014  22:38:00      -75.795       10.952      -12.299       49.923       37.578       23.419     2492.356     1412.134      548.455        0.523        0.223       76.582       29.257        0.146      332.022        0.414      873.750
01/12/2014  22:39:00      -63.840        4.764       -8.083       42.867       37.483       22.227     1837.556     1404.998      494.043        0.395        0.187       64.017       20.781        0.105      331.952        0.300      873.775
01/12/2014  22:40:00     -126.879       46.138      -16.740       32.937       36.184       19.173     1084.866     1309.270      367.618        1.063        0.138      135.007       17.212        0.016      332.041        0.446      873.787
01/12/2014  22:41:00     -103.233       52.877      -16.531       39.289       28.552       25.159     1543.601      815.233      632.972        0.836        0.150      115.988       20.656        0.032      332.177        0.671      873.780
01/12/2014  22:42:00      -86.530       21.126       -6.961       33.703       25.648       18.188     1135.917      657.797      330.806        0.505        0.106       89.072       16.975        0.036      332.185        0.684      873.753
01/12/2014  22:43:00      -68.485        2.808      -13.588       28.621       36.605       15.892      819.168     1339.945      252.562        0.365        0.121       68.542       13.985        0.042      332.234        0.764      873.732
01/12/2014  22:44:00      -49.034      -18.625      -10.754       17.995       15.527       12.964      323.827      241.103      168.075        0.180        0.037       52.452        9.581        0.033      332.062        0.480      873.731
01/12/2014  22:45:00      -57.086      -13.378      -14.868       21.137       17.050       11.895      446.783      290.712      141.480        0.227        0.044       58.633        8.697        0.022      331.962        0.315      873.731
01/12/2014  22:46:00      -65.568       -1.240       -9.329       32.422       22.622       17.320     1051.212      511.762      299.994        0.313        0.093       65.580       15.926        0.059      331.946        0.289      873.721
01/12/2014  22:47:00      -22.830       -7.425      -13.756       20.729       23.175       15.502      429.680      537.092      240.321        0.099        0.060       24.007        7.220        0.090      332.024        0.418      873.677
01/12/2014  22:48:00      -49.326      -18.753      -10.815       23.889       28.801       17.231      570.668      829.475      296.903        0.230        0.085       52.771       11.962        0.051      331.921        0.247      873.646
01/12/2014  22:49:00      -41.141      -28.228       -8.059       30.858       21.406       16.059      952.241      458.222      257.877        0.211        0.083       49.894       11.644        0.054      331.867        0.160      873.634
01/12/2014  22:50:00      -43.698       -6.804       -7.394       11.131       19.222       13.524      123.910      369.479      182.894        0.134        0.034       44.225        5.896        0.018      331.909        0.229      873.641
01/12/2014  22:51:00      -57.089       64.835      -11.717       31.632       39.016       20.936     1000.606     1522.227      438.301        0.528        0.148       86.387       16.469        0.036      332.422        1.074      873.663
01/12/2014  22:52:00      -26.741       93.521       -0.370       34.733       47.818       24.066     1206.355     2286.514      579.178        0.677        0.204       97.269       23.015        0.056      332.558        1.298      873.716
01/12/2014  22:53:00       -6.357      133.061       -9.697       24.792       42.215       19.578      614.634     1782.099      383.294        1.031        0.139      133.213       21.264        0.025      332.704        1.540      873.777
01/12/2014  22:54:00       -6.775      162.538      -20.406       22.333       30.166       20.937      498.785      909.998      438.352        1.436        0.092      162.679       18.238        0.013      332.603        1.372      873.823
01/12/2014  22:55:00      -29.131      177.586      -24.519       31.192       33.325       16.284      972.923     1110.531      265.154        1.767        0.117      179.960       14.773        0.007      332.634        1.425      873.871
01/12/2014  22:56:00      -61.074      140.152      -17.156       38.508       48.808       26.217     1482.849     2382.234      687.318        1.411        0.228      152.881       25.267        0.027      332.865        1.805      873.897
01/12/2014  22:57:00      -88.200      130.725      -27.552       30.923       32.651       22.745      956.202     1066.095      517.314        1.408        0.127      157.697       18.179        0.013      332.739        1.598      873.909
01/12/2014  22:58:00      -84.550      156.811      -19.850       35.113       53.631       29.090     1232.890     2876.241      846.214        1.854        0.248      178.152       29.042        0.027      332.649        1.448      873.906
01/12/2014  22:59:00      -61.616      103.975      -17.882       33.966       52.999       17.505     1153.689     2808.892      306.433        0.960        0.213      120.861       20.527        0.029      332.681        1.503      873.915
01/12/2014  23:00:00      -62.012      121.772      -13.492       31.875       42.381       26.606     1016.003     1796.162      707.881        1.119        0.176      136.652       21.338        0.024      332.842        1.768      873.908
01/12/2014  23:01:00      -61.201      111.468      -17.264       36.394       46.761       21.999     1324.487     2186.567      483.978        1.023        0.200      127.163       18.564        0.021      332.867        1.810      873.890
01/12/2014  23:02:00      -66.333       74.158      -20.530       33.341       34.248       14.401     1111.594     1172.937      207.396        0.641        0.125       99.496       12.909        0.017      332.793        1.687      873.883
01/12/2014  23:03:00      -39.932       73.752       -7.817       34.805       42.160       25.378     1211.380     1777.432      644.039        0.536        0.182       83.868       26.339        0.099      332.863        1.803      873.888
01/12/2014  23:04:00      -60.133      108.753      -22.005       32.469       33.733       24.118     1054.208     1137.932      581.668        0.935        0.139      124.271       17.628        0.020      332.897        1.859      873.926
01/12/2014  23:05:00      -47.758       94.537      -13.399       30.191       45.020       20.645      911.498     2026.819      426.228        0.738        0.168      105.916       22.807        0.046      332.952        1.950      873.961
01/12/2014  23:06:00      -56.001       76.523      -17.161       27.138       38.879       21.976      736.461     1511.553      482.942        0.601        0.137       94.826       14.307        0.023      332.883        1.835      873.972
01/12/2014  23:07:00      -76.532       92.431      -24.525       21.260       34.214       15.399      452.003     1170.587      237.122        0.843        0.093      120.003       17.017        0.020      332.902        1.866      873.978
01/12/2014  23:08:00      -37.925      179.792      -22.322       32.271       41.082       21.263     1041.407     1687.730      452.112        1.872        0.159      183.748       11.412        0.004      332.972        1.983      873.984
01/12/2014  23:09:00      -36.071      171.853      -22.966       41.661       35.655       19.764     1735.622     1271.251      390.618        1.738        0.170      175.597       17.453        0.010      333.076        2.153      873.992
01/12/2014  23:10:00      -27.074      164.836      -25.369       31.589       39.721       21.415      997.843     1577.791      458.595        1.579        0.152      167.045       20.291        0.015      333.090        2.177      874.001
01/12/2014  23:11:00      -36.526      171.645      -21.989       33.670       33.097       23.505     1133.698     1095.424      552.473        1.703        0.139      175.489       20.187        0.013      333.073        2.151      874.032
01/12/2014  23:12:00       -6.417      168.388      -22.698       17.986       24.251       12.656      323.482      588.094      160.176        1.499        0.054      168.510       10.814        0.004      333.025        2.070      874.075
01/12/2014  23:13:00      -27.995      165.213      -23.513       26.752       32.578       16.041      715.680     1061.304      257.298        1.533        0.102      167.568       14.301        0.007      333.067        2.139      874.119
01/12/2014  23:14:00      -24.994      184.510      -22.309       20.927       26.208       13.368      437.934      686.841      178.699        1.823        0.065      186.195       10.837        0.003      333.211        2.376      874.160
01/12/2014  23:15:00      -18.729      161.443      -18.228       19.007       23.418       13.368      361.274      548.421      178.699        1.392        0.054      162.526       12.060        0.006      333.180        2.326      874.188
01/12/2014  23:16:00        8.641       58.284       -1.057       25.150       45.397       22.655      632.518     2060.871      513.232        0.334        0.160       58.921       24.196        0.169      333.031        2.079      874.210
01/12/2014  23:17:00      -19.040       26.599       -5.226       30.904       32.918       17.268      955.051     1083.625      298.180        0.172        0.117       32.711       15.849        0.235      333.022        2.065      874.198
01/12/2014  23:18:00      -19.044      109.816      -15.442       47.529       47.717       23.229     2259.027     2276.896      539.590        0.887        0.254      111.455       19.596        0.031      332.889        1.847      874.189
01/12/2014  23:19:00       12.276      109.077       -3.711       35.536       43.460       30.177     1262.840     1888.813      910.675        0.806        0.203      109.765       26.888        0.060      332.716        1.559      874.183
01/12/2014  23:20:00       16.385      133.857      -19.366       28.840       26.495       19.058      831.756      702.002      363.203        1.023        0.095      134.856       12.091        0.008      332.653        1.455      874.182
01/12/2014  23:21:00       13.929       78.688       -7.888       25.409       48.206       20.738      645.636     2323.803      430.084        0.492        0.170       79.911       25.022        0.098      332.581        1.337      874.188
01/12/2014  23:22:00       -5.752       92.184       -3.366       36.599       48.184       24.445     1339.470     2321.742      597.548        0.640        0.213       92.363       28.567        0.096      332.616        1.393      874.188
01/12/2014  23:23:00       10.745      131.608       -7.069       35.358       45.297       29.101     1250.218     2051.861      846.884        1.082        0.207      132.046       18.579        0.020      332.631        1.418      874.193
01/12/2014  23:24:00       24.892       63.942       -1.291       33.148       40.948       21.454     1098.801     1676.726      460.258        0.397        0.162       68.616       18.621        0.074      332.603        1.373      874.205
01/12/2014  23:25:00       20.102       61.671      -13.349       18.072       29.280       19.511      326.601      857.309      380.668        0.297        0.078       64.864       21.427        0.109      332.539        1.268      874.222
01/12/2014  23:26:00       25.042       42.415        0.386       22.286       40.503       18.596      496.644     1640.467      345.801        0.245        0.124       49.256        7.942        0.026      332.587        1.345      874.251
01/12/2014  23:27:00      -48.870       63.512       -8.088       34.499       35.467       18.624     1190.156     1257.898      346.838        0.464        0.140       80.137       17.620        0.048      332.651        1.453      874.266
01/12/2014  23:28:00       -1.536        3.352       12.246       10.584       11.952       10.718      112.019      142.857      114.869        0.027        0.018        3.687        6.834        3.436      332.608        1.382      874.288
01/12/2014  23:29:00       -4.913      -39.899       -9.184       17.923       25.092       14.402      321.230      629.615      207.411        0.143        0.058       40.201       11.321        0.079      332.652        1.453      874.309
01/12/2014  23:30:00      -15.422       -0.152        1.457       12.373       12.993       16.488      153.100      168.806      271.843        0.042        0.030       15.422        7.842        0.259      332.584        1.342      874.310
01/12/2014  23:31:00        9.102      -69.592      -10.947       36.801       36.765       18.100     1354.307     1351.678      327.625        0.404        0.152       70.184       19.822        0.080      332.637        1.430      874.288
01/12/2014  23:32:00       48.024      -73.922       -6.039       48.608       57.516       33.748     2362.721     3308.056     1138.956        0.731        0.340       88.152       36.005        0.167      332.519        1.233      874.268
01/12/2014  23:33:00       14.722      -34.147       13.197       42.546       48.229       35.176     1810.138     2326.064     1237.328        0.346        0.269       37.186       26.046        0.491      332.383        1.009      874.261
01/12/2014  23:34:00       -1.522      -43.205       10.600       35.331       36.758       21.942     1248.282     1351.116      481.450        0.253        0.154       43.232       22.117        0.262      332.364        0.978      874.264
01/12/2014  23:35:00        9.870      -41.585       20.867       34.414       37.547       22.094     1184.295     1409.785      488.145        0.267        0.154       42.741       14.561        0.116      332.326        0.917      874.276
01/12/2014  23:36:00      -15.234        0.587        4.052       24.915       27.303       16.540      620.748      745.476      273.558        0.094        0.082       15.246       12.840        0.709      332.339        0.937      874.287
01/12/2014  23:37:00      -52.699        4.138        1.836       18.702       28.461       12.826      349.765      810.014      164.504        0.206        0.066       52.861       12.528        0.056      332.354        0.961      874.282
01/12/2014  23:38:00      -39.792      -27.979        9.943       29.854       19.433       13.237      891.234      377.650      175.215        0.195        0.072       48.644        4.503        0.009      332.361        0.973      874.260
01/12/2014  23:39:00      -13.863      -30.444       -1.556       18.645       13.139       16.035      347.649      172.637      257.130        0.095        0.039       33.452        9.080        0.074      332.367        0.982      874.233
01/12/2014  23:40:00        4.499      -23.335        8.565       18.296       13.909       14.836      334.759      193.474      220.111        0.069        0.037       23.765        7.088        0.089      332.297        0.867      874.235
01/12/2014  23:41:00       -8.100      -15.018       18.057       23.276       24.250       12.243      541.784      588.066      149.903        0.095        0.064       17.063       11.928        0.489      332.282        0.845      874.258
01/12/2014  23:42:00       -6.997       -9.186       13.255       12.032       18.569        9.714      144.757      344.823       94.360        0.045        0.029       11.548        9.062        0.616      332.249        0.788      874.293
01/12/2014  23:43:00       -3.660      -14.109        1.542       23.642       18.498       11.976      558.939      342.172      143.435        0.063        0.052       14.576       10.219        0.492      332.251        0.792      874.321
01/12/2014  23:44:00       13.369      -52.863       -8.560       19.832       36.883       21.562      393.319     1360.370      464.927        0.263        0.111       54.527       21.474        0.155      332.256        0.802      874.313
01/12/2014  23:45:00      -35.306      -28.369       -0.584       50.097       35.048       21.606     2509.691     1228.342      466.802        0.313        0.210       45.292       16.377        0.131      332.252        0.795      874.292
01/12/2014  23:46:00      -75.753     -100.474       -9.729       54.000       45.810       27.981     2915.995     2098.516      782.934        1.086        0.290      125.831       26.644        0.045      332.256        0.800      874.268
01/12/2014  23:47:00     -103.960      -80.656        7.299       58.340       50.527       30.746     3403.557     2552.941      945.301        1.213        0.345      131.579       33.981        0.067      332.050        0.459      874.238
01/12/2014  23:48:00     -131.744     -117.311       -3.047       66.859       68.487       33.683     4470.119     4690.417     1134.564        2.071        0.515      176.404       39.465        0.050      331.994        0.366      874.180
01/12/2014  23:49:00     -167.188     -133.162       -7.519       59.455       67.573       31.095     3534.843     4566.164      966.901        2.740        0.453      213.738       34.506        0.026      331.989        0.357      874.119
01/12/2014  23:50:00     -136.198      -95.270        1.360       54.486       52.649       32.778     2968.670     2771.955     1074.424        1.722        0.341      166.211       32.789        0.039      331.987        0.355      874.093
01/12/2014  23:51:00     -104.454      -58.921       10.580       56.817       46.158       38.428     3228.144     2130.596     1476.723        1.066        0.342      119.926       25.253        0.044      331.947        0.291      874.090
01/12/2014  23:52:00     -137.686     -104.503       -8.942       40.193       48.346       24.768     1615.502     2337.337      613.474        1.726        0.228      172.854       21.746        0.016      331.968        0.326      874.093
01/12/2014  23:53:00     -124.975     -113.852       -8.650       32.704       37.464       24.513     1069.540     1403.514      600.870        1.586        0.154      169.059       18.703        0.012      331.969        0.325      874.099
01/12/2014  23:54:00      -88.844      -48.563       -1.181       53.971       36.173       23.439     2912.860     1308.520      549.381        0.751        0.239      101.250       20.265        0.040      331.953        0.299      874.122
01/12/2014  23:55:00     -109.185      -91.864       -6.982       33.114       28.036       20.136     1096.514      786.028      405.441        1.135        0.114      142.689       12.610        0.008      332.013        0.399      874.148
01/12/2014  23:56:00     -105.281      -69.912       -0.790       29.346       40.081       19.694      861.207     1606.479      387.857        0.941        0.143      126.380        6.928        0.003      332.007        0.388      874.160
01/12/2014  23:57:00     -113.704      -57.050       -2.319       31.579       27.069       21.962      997.215      732.751      482.330        0.920        0.111      127.214       17.573        0.019      332.015        0.402      874.182
01/12/2014  23:58:00     -116.792      -55.508       -5.321       33.218       33.192       24.124     1103.418     1101.735      581.983        0.977        0.139      129.312       24.067        0.035      331.966        0.321      874.214
01/12/2014  23:59:00     -108.382      -34.763       -6.631       41.293       23.932       21.493     1705.082      572.744      461.960        0.787        0.137      113.820       22.739        0.040      332.005        0.385      874.231
